GFSSW_850_thetae_000.txt.gz
Theta_e
313 313 313 313 312 312 311 310 308 308 308 309 308 310 311 312 313 311 310 314 317 317 315 313 316 316 317 318 318 317 313 314 316 318 317 316 317 321 326 330 329 328 328 328 327
313 313 313 313 312 312 311 310 308 308 308 309 309 312 311 313 312 312 315 318 317 317 315 314 315 317 319 318 319 315 312 314 314 316 314 315 316 319 322 327 329 331 329 326 325
313 313 313 313 313 312 311 309 309 308 309 309 311 311 313 313 316 316 320 317 316 315 314 314 315 318 318 318 318 314 313 313 313 317 316 314 315 319 319 322 330 330 327 326 324
314 314 313 313 312 311 310 309 309 309 309 311 311 313 313 315 321 317 315 316 315 316 315 315 316 318 318 317 318 314 313 315 315 315 314 313 316 315 319 321 326 329 330 327 326
314 313 313 313 312 311 310 309 309 309 310 311 313 314 314 315 316 316 318 318 317 315 314 314 319 320 316 315 315 312 313 315 316 317 315 315 314 314 317 319 326 329 330 329 326
313 313 313 312 311 310 309 309 309 309 311 313 314 315 315 318 319 317 318 318 318 319 319 319 319 319 318 316 314 315 314 314 315 317 317 315 315 317 316 320 329 330 330 329 327
312 313 313 312 310 309 309 309 310 311 313 314 315 315 315 317 318 317 317 317 317 318 319 319 319 319 319 316 316 315 312 313 314 317 317 317 317 315 317 318 329 330 330 329 328
312 312 312 311 310 309 309 310 312 313 314 315 315 315 314 318 318 317 317 317 317 319 319 318 319 319 318 317 317 315 313 313 315 316 318 316 314 315 316 317 324 329 330 329 328
312 312 312 311 310 310 311 312 313 314 315 316 315 315 315 320 317 317 316 318 318 318 317 318 319 318 318 312 312 312 313 315 317 316 316 316 317 315 316 316 317 318 320 324 327
312 311 312 310 310 311 312 313 314 316 316 315 320 318 316 318 316 316 316 318 319 319 319 319 319 314 313 312 313 314 316 314 315 316 317 314 316 315 316 317 320 320 322 324 324
313 311 311 311 312 312 313 315 317 317 317 315 317 320 319 317 317 316 315 318 320 320 318 319 316 315 317 316 316 316 316 315 316 316 316 315 315 315 320 321 321 321 323 323 322
313 312 311 312 313 313 316 322 326 324 319 317 319 319 319 318 317 317 317 319 319 318 318 315 316 317 317 319 319 318 319 318 317 317 315 316 315 316 319 319 320 321 323 323 322
313 312 312 313 313 314 318 324 323 319 320 318 318 318 319 319 318 318 320 320 319 318 317 316 318 318 319 318 319 319 318 319 319 318 313 317 316 317 316 317 318 320 321 320 321
313 312 313 313 314 315 317 325 321 321 312 315 317 317 319 319 318 319 318 319 319 317 317 318 319 320 319 319 319 322 320 319 319 317 314 315 317 317 317 317 317 319 320 319 319
315 314 314 316 325 324 325 324 317 322 313 315 318 318 319 319 319 318 318 322 320 317 318 319 319 319 319 319 319 321 320 320 320 318 318 318 317 317 317 317 315 316 319 318 318
318 316 316 318 326 323 322 316 317 318 317 318 318 318 317 319 319 319 319 321 321 318 317 318 319 319 319 319 319 319 321 319 319 318 319 321 320 318 318 317 317 316 318 318 318
317 318 322 322 326 321 317 316 318 316 320 317 318 319 319 319 320 320 318 317 318 319 319 319 319 318 319 320 318 317 320 323 321 318 319 322 322 321 318 317 317 317 317 318 318
316 318 324 321 324 320 316 318 323 321 319 317 318 319 320 320 319 320 319 317 316 320 319 320 320 318 317 318 319 319 318 318 323 318 321 318 321 318 316 318 319 319 319 319 318
316 317 318 317 317 317 321 318 322 321 318 319 319 320 320 321 320 318 317 317 317 317 320 320 320 318 317 317 319 320 315 316 317 314 316 317 318 316 315 315 317 317 317 317 316
315 316 316 316 316 316 320 321 324 320 320 318 319 320 320 320 321 320 320 319 320 316 316 318 319 317 317 319 318 315 316 319 313 317 316 316 319 319 317 316 313 313 314 316 315
315 315 316 314 316 315 318 322 322 320 322 319 320 319 320 319 319 320 320 319 319 319 315 319 316 317 319 318 318 318 318 317 315 312 314 313 315 314 317 314 313 313 314 314 313
319 317 321 320 312 317 320 324 320 319 321 321 322 322 320 321 323 322 322 320 320 320 316 316 313 312 318 317 317 317 318 315 311 319 310 309 313 314 312 313 314 314 313 313 312
322 325 324 318 308 306 321 322 320 319 320 321 321 321 321 321 322 322 321 319 316 316 319 316 313 313 318 319 316 317 317 318 313 307 313 309 310 314 314 313 313 312 312 311 311
323 315 320 320 322 320 322 321 321 321 321 321 321 321 321 321 320 322 321 319 315 314 316 318 316 313 316 317 313 315 315 317 314 310 312 311 313 314 313 312 312 311 311 311 311
324 316 315 309 314 322 322 321 321 321 321 321 320 321 320 321 322 321 320 319 317 316 317 315 315 315 314 314 315 315 314 313 314 313 313 313 314 315 312 311 312 311 311 310 308
322 322 315 313 314 320 319 321 321 321 320 321 320 321 319 317 319 320 318 317 318 317 318 313 312 312 315 315 314 314 312 313 313 313 313 315 315 312 312 312 311 309 309 307 304
322 323 316 320 314 317 316 320 321 320 320 320 319 317 316 319 318 319 319 319 318 317 313 310 306 307 311 309 310 309 313 316 315 314 314 312 313 311 310 310 309 308 307 304 302

GFSSW_850_thetae_003.txt.gz
Theta_e
313 313 313 313 313 313 312 311 311 309 308 308 308 308 309 311 311 313 312 311 313 316 314 313 315 316 316 317 317 316 311 312 314 315 313 319 318 327 331 329 328 327 331 336 338
313 313 313 313 313 313 312 311 310 309 308 308 308 308 311 312 312 311 310 310 315 317 316 313 315 316 317 318 318 314 309 313 314 313 312 315 324 328 329 328 328 327 330 335 330
313 313 313 313 313 313 312 311 310 308 308 308 308 311 312 312 314 314 316 318 317 318 316 315 315 315 317 317 316 313 311 312 313 317 320 316 316 319 327 327 329 326 328 330 328
314 314 314 314 313 313 312 311 309 309 308 309 310 311 313 314 317 317 318 317 318 318 315 315 314 317 317 316 317 313 313 312 313 316 313 312 315 320 321 328 328 328 328 328 328
314 313 313 313 313 312 311 310 309 309 309 309 311 313 313 315 316 317 316 317 316 315 314 315 315 316 315 314 315 311 312 314 315 314 314 314 313 315 316 324 329 327 326 325 325
313 312 313 313 313 312 310 309 309 309 309 311 313 314 314 315 318 317 317 317 317 317 317 315 315 317 318 315 311 312 312 313 315 316 314 313 314 316 316 328 329 328 326 326 325
312 312 312 313 312 311 310 309 309 309 311 313 314 315 315 317 318 317 316 316 317 317 318 318 318 318 316 313 314 313 311 312 313 315 315 316 316 313 318 329 329 328 328 327 326
313 312 312 312 311 310 309 309 309 311 312 314 315 315 315 316 318 317 316 316 317 318 318 317 318 318 315 314 314 313 311 312 313 315 315 314 312 314 317 329 329 329 328 327 326
314 312 312 312 310 309 309 310 311 312 314 315 315 315 314 317 317 317 316 317 317 318 318 318 319 316 316 311 310 310 312 314 316 314 314 315 315 313 313 326 325 327 328 328 328
314 312 312 311 310 310 311 312 313 314 316 316 320 316 315 317 315 317 316 317 319 319 318 319 318 312 311 309 310 313 315 313 314 314 314 315 314 313 316 316 318 321 321 323 326
313 311 311 311 310 311 312 314 317 317 318 313 315 317 319 318 316 316 315 317 319 319 316 316 314 315 315 315 315 316 315 314 313 314 314 314 316 316 318 320 320 319 321 322 324
313 311 311 311 312 312 314 321 325 323 321 314 316 318 319 317 316 316 316 318 318 316 316 314 316 316 316 317 318 317 316 317 314 315 315 317 315 315 316 318 320 318 320 322 323
313 312 311 312 312 314 317 321 323 321 320 317 318 318 319 318 317 318 319 319 318 317 316 315 317 317 317 317 319 319 317 318 316 316 316 318 317 314 315 317 319 319 319 320 321
313 312 312 313 314 315 317 324 322 321 311 314 316 317 319 318 318 318 319 319 318 315 315 316 317 318 317 318 317 321 319 318 315 317 319 315 318 317 316 316 316 318 318 318 318
314 313 313 315 323 319 325 323 319 322 311 313 317 318 318 319 318 318 320 321 317 317 317 319 319 318 318 318 318 320 318 318 317 314 314 316 316 316 315 317 316 317 318 317 317
317 314 314 321 325 323 321 316 318 316 314 317 317 317 317 318 319 318 320 321 319 316 315 318 318 318 318 318 318 318 319 318 317 316 317 319 317 317 316 316 315 316 317 317 317
318 316 317 324 326 320 318 316 313 317 317 316 317 317 317 318 318 317 316 316 318 318 318 317 317 315 318 320 317 316 318 320 320 316 318 318 319 317 315 314 315 315 316 317 317
317 320 322 323 323 319 320 314 323 319 318 316 317 317 319 319 318 318 317 316 315 318 317 318 318 316 315 317 318 317 317 318 322 317 318 316 320 317 314 316 317 317 318 317 317
317 323 322 317 319 319 317 315 320 319 317 317 318 319 320 319 318 317 317 316 316 316 320 318 318 317 316 316 318 318 314 314 315 311 316 315 316 315 314 315 316 317 315 315 316
316 319 318 317 317 316 318 319 323 320 319 317 319 318 319 319 320 319 319 318 319 315 315 317 316 316 316 318 316 315 315 316 311 315 315 316 317 316 314 315 312 311 313 313 313
316 316 316 316 317 314 314 319 323 319 321 318 317 318 319 318 319 319 319 318 318 318 315 317 313 315 317 317 317 316 316 313 313 310 312 312 316 311 314 312 311 311 311 311 311
316 310 319 315 313 313 316 321 322 318 320 321 320 320 318 320 322 321 321 319 318 319 316 315 312 312 317 315 316 316 316 312 309 316 308 306 312 310 311 312 311 310 310 309 309
317 326 325 319 308 304 315 322 319 319 319 320 321 321 320 321 321 321 320 318 314 316 318 315 312 313 317 317 314 317 316 313 309 307 314 307 309 311 311 312 311 310 309 309 309
320 316 323 321 313 311 317 320 321 320 320 320 320 320 319 321 319 320 321 318 314 315 317 316 314 312 315 316 312 313 314 314 312 308 310 309 311 313 311 309 309 309 309 309 309
322 314 318 311 314 321 319 319 320 320 320 320 320 320 319 321 321 321 319 317 316 316 316 312 313 314 313 312 313 314 313 313 314 312 312 312 311 312 310 309 309 310 309 309 307
323 317 314 310 315 318 318 321 319 320 320 320 319 320 319 316 318 319 317 315 316 317 316 309 312 310 316 312 312 313 311 310 311 312 313 313 314 311 311 311 309 309 308 308 306
321 322 314 313 312 315 315 320 319 318 319 319 318 316 316 318 318 317 316 316 316 316 311 307 305 304 306 308 308 305 309 312 312 314 311 313 312 309 309 309 309 309 308 307 303

GFSSW_850_thetae_006.txt.gz
Theta_e
311 312 312 312 313 313 313 312 312 311 310 308 307 308 308 308 311 310 311 312 311 315 313 312 312 312 315 316 316 314 310 312 318 322 322 319 321 329 329 329 328 328 334 333 334
312 313 313 313 313 313 313 312 312 311 309 308 308 308 308 311 311 312 312 311 311 315 314 312 314 315 316 317 317 312 310 312 312 315 323 324 323 327 329 328 326 328 334 335 334
312 313 313 313 313 313 313 312 311 310 309 308 308 308 310 312 313 313 312 315 314 314 316 315 313 314 317 316 316 312 312 310 316 317 320 319 318 324 328 327 327 332 337 338 333
313 313 313 313 313 313 313 312 311 310 308 308 308 310 312 312 317 317 317 318 316 317 317 316 314 315 315 315 316 313 312 312 317 319 315 318 316 326 324 326 327 326 330 336 327
314 313 313 312 313 313 313 311 310 309 308 308 310 311 312 314 315 317 316 316 317 317 316 315 314 315 315 315 313 312 311 312 313 314 314 316 316 322 317 327 327 329 330 330 328
314 313 312 312 313 313 312 311 309 309 308 309 310 312 313 316 317 317 316 316 316 316 316 315 314 314 317 313 314 314 311 311 313 312 312 312 313 315 315 327 327 328 328 328 327
313 313 312 312 312 312 311 310 309 308 309 310 312 313 314 316 317 316 316 316 316 316 317 316 315 316 317 313 312 311 311 311 312 314 312 315 314 313 320 328 327 327 328 328 328
315 314 312 312 312 311 310 309 308 309 311 311 313 314 314 316 316 317 316 316 316 316 316 317 317 316 317 313 313 311 309 310 312 314 313 312 310 309 325 327 325 324 323 324 324
315 314 312 312 311 310 309 309 310 311 312 313 315 315 315 316 317 316 316 316 317 318 317 316 316 315 312 310 310 309 311 313 315 313 314 312 314 313 317 327 324 325 325 325 325
315 314 312 311 310 309 309 310 311 312 313 316 319 316 314 317 316 316 316 315 318 318 318 318 316 312 311 309 311 311 312 312 314 313 312 313 316 315 316 323 320 322 325 325 326
315 312 311 311 310 310 311 312 315 317 316 313 313 315 316 317 315 316 316 316 319 318 316 315 313 313 314 312 311 313 313 313 312 312 315 315 315 314 318 317 317 318 321 322 324
314 312 311 310 310 311 312 317 325 323 320 313 314 316 318 318 316 316 316 318 317 316 315 313 315 315 315 316 316 315 314 314 314 314 315 316 314 312 314 316 317 319 322 324 325
314 311 310 310 311 312 316 320 323 323 320 316 317 318 318 317 316 317 317 319 317 316 314 314 316 316 317 316 318 318 315 316 315 316 315 316 317 314 315 317 318 319 322 322 321
313 311 311 311 313 313 315 321 324 322 311 314 315 316 317 318 317 318 318 319 316 314 315 317 316 316 316 317 316 319 317 315 316 317 320 314 320 316 316 317 316 317 319 319 319
312 312 312 314 317 318 324 319 320 322 311 313 316 317 318 319 317 318 320 319 316 316 316 318 318 317 317 318 318 319 315 315 314 313 314 316 317 315 316 318 316 316 317 317 317
313 313 314 320 323 325 317 317 319 314 314 315 316 316 317 318 317 319 320 319 318 315 315 316 317 316 317 317 316 316 317 316 315 315 316 316 316 315 315 316 316 316 317 316 316
314 314 315 323 326 318 317 317 312 315 316 315 316 316 317 316 317 316 315 315 316 317 318 316 316 314 316 319 316 316 317 318 319 315 318 317 317 315 314 313 316 316 317 316 316
318 317 318 325 321 319 319 311 318 318 316 314 316 315 318 318 317 316 315 315 314 315 316 317 316 316 314 317 317 316 316 317 320 316 318 316 319 317 313 315 317 317 317 316 316
317 318 324 318 317 318 318 309 317 317 316 316 317 318 319 318 317 316 315 315 315 315 319 317 317 315 315 315 317 316 314 313 314 311 315 314 316 315 313 313 315 316 315 315 314
318 323 318 315 316 317 314 315 322 320 318 317 317 317 318 319 318 318 318 317 317 316 314 316 316 315 315 316 315 316 313 314 310 315 315 315 316 316 315 315 313 312 313 313 312
320 319 319 316 316 317 310 316 321 322 319 317 317 318 317 317 318 319 318 318 318 318 316 314 313 314 315 316 316 315 315 312 311 309 311 311 314 311 313 314 311 311 313 313 312
319 310 318 316 312 310 312 319 322 318 319 320 318 318 316 319 320 320 319 318 317 318 316 314 312 312 316 314 314 315 315 309 307 312 307 305 310 309 308 311 312 311 311 311 310
316 323 322 316 307 303 312 319 320 317 319 320 320 319 318 319 320 319 319 317 313 315 315 313 312 313 315 313 313 316 315 310 307 307 312 308 309 309 310 310 310 310 309 308 308
317 317 325 321 310 310 314 317 319 319 319 319 318 318 318 320 317 319 319 317 314 315 315 313 311 311 313 313 311 314 315 311 310 307 309 308 310 313 310 308 308 308 308 308 308
317 316 320 311 312 311 313 318 319 320 319 318 319 319 319 320 320 319 318 316 315 315 315 310 313 312 312 311 312 312 312 313 312 310 311 311 309 309 309 307 308 309 308 308 308
319 315 315 313 317 318 314 317 318 319 319 319 318 319 318 316 317 318 315 313 313 315 313 307 310 308 315 311 310 312 311 310 311 311 310 312 311 310 310 310 309 309 309 309 308
321 320 318 308 310 315 313 319 319 317 318 318 317 315 317 318 316 315 314 313 314 314 309 305 305 304 304 306 305 306 308 309 309 309 309 311 310 308 308 309 309 309 309 310 308

GFSSW_850_thetae_009.txt.gz
Theta_e
310 310 311 312 312 313 313 313 312 312 311 310 308 307 307 307 308 310 310 310 311 313 314 313 314 311 314 315 315 314 315 321 321 326 327 324 328 326 329 330 329 328 336 336 336
310 311 312 312 313 313 313 313 312 312 311 310 308 307 308 309 311 311 312 312 312 314 312 312 312 312 315 316 316 314 316 317 317 323 326 324 322 328 329 328 326 333 335 335 336
310 312 313 313 313 313 313 313 312 311 310 309 307 308 309 311 313 316 312 311 311 315 314 312 314 315 316 315 315 313 317 313 314 319 325 323 320 327 329 329 327 335 335 334 338
311 312 313 313 312 312 312 313 312 311 310 308 308 308 310 312 317 316 315 315 316 315 315 315 314 314 315 316 315 315 313 312 317 318 319 321 321 328 327 325 327 330 330 332 335
312 313 313 312 311 312 312 312 311 310 308 308 308 309 311 313 314 316 316 317 315 315 315 315 314 314 317 316 314 313 312 311 312 314 319 318 323 327 317 326 327 330 332 331 331
313 314 312 312 311 312 312 312 310 309 308 308 309 311 312 315 316 317 316 316 316 316 317 315 314 314 316 314 315 314 311 311 310 312 315 315 313 318 316 327 328 329 331 333 331
313 313 313 313 311 312 312 310 309 308 308 309 310 311 313 315 316 315 316 315 316 316 316 315 314 314 315 314 312 310 313 312 312 312 312 314 314 311 321 325 329 333 334 334 329
314 314 314 313 312 312 311 309 308 308 309 311 311 313 313 315 315 317 316 315 315 315 315 316 315 314 315 312 312 313 312 315 313 314 312 312 314 315 321 323 323 327 330 329 327
314 315 315 312 311 311 309 308 308 309 310 312 314 314 314 315 317 316 316 315 315 315 315 315 315 315 312 314 314 313 314 314 314 313 314 315 316 317 317 323 321 322 323 325 326
315 315 314 312 311 310 308 309 310 310 312 314 316 316 315 317 317 315 316 315 317 316 315 315 314 315 313 314 315 315 314 314 315 314 317 319 319 318 318 322 321 322 323 324 324
315 315 313 311 310 309 309 310 314 314 314 313 313 314 315 318 316 315 316 316 318 317 317 314 316 317 315 313 312 313 313 314 313 315 319 318 319 318 318 318 319 320 322 324 325
315 315 312 311 310 310 311 314 319 322 320 314 314 314 315 317 316 315 315 318 317 317 315 317 317 314 315 316 315 316 316 317 317 316 319 319 320 319 317 317 317 319 320 322 323
315 314 311 310 310 311 312 321 321 323 320 316 316 316 317 317 317 315 316 318 316 316 315 317 316 315 317 317 319 317 317 316 319 318 318 320 321 321 319 318 318 318 319 321 323
315 313 311 310 311 312 316 316 324 324 314 315 314 315 316 317 316 317 318 318 316 315 316 318 316 316 317 318 317 320 315 318 319 320 322 316 322 321 321 320 319 318 317 319 320
315 313 311 310 315 314 323 323 322 322 317 314 315 316 317 317 316 318 319 319 316 316 317 318 317 317 318 317 317 319 316 318 316 317 318 319 322 319 320 322 321 318 317 316 317
315 312 311 312 319 320 324 321 322 318 319 314 315 315 316 316 316 318 319 318 317 317 316 316 316 316 317 315 316 316 318 318 317 318 322 318 319 320 321 322 321 318 317 315 315
315 312 312 316 322 324 321 320 317 319 316 315 315 315 316 317 317 315 316 317 319 321 320 317 316 315 316 319 316 318 320 324 324 325 323 317 319 321 318 317 320 318 317 315 315
315 313 314 321 325 319 318 314 316 316 317 313 314 315 317 317 316 315 316 318 315 316 318 318 320 316 315 317 319 317 320 325 324 324 322 317 323 321 315 315 317 317 317 316 315
315 316 316 324 322 319 315 314 315 316 315 315 316 317 318 317 317 317 315 316 315 315 321 319 318 314 314 315 317 316 318 316 318 313 319 319 318 317 314 315 316 315 315 315 315
316 317 318 322 318 317 315 313 318 318 317 315 316 316 319 318 318 317 317 317 316 316 314 317 318 314 315 315 315 317 314 318 316 319 318 317 318 321 318 317 316 315 315 315 315
314 318 323 318 317 316 315 314 321 322 319 316 317 317 317 318 318 318 318 317 317 317 315 313 317 317 315 317 318 317 317 314 314 314 316 316 317 315 317 317 317 316 314 314 314
317 312 320 316 313 309 314 316 321 320 318 319 316 316 317 318 319 319 320 318 316 317 318 314 316 319 316 314 314 315 315 314 317 314 311 314 317 311 312 313 315 313 313 313 313
318 322 322 315 311 308 311 318 320 317 318 319 319 318 318 319 320 319 319 315 313 315 316 314 316 319 318 315 314 317 315 311 311 312 315 323 316 311 311 311 312 313 311 311 311
318 320 323 316 311 311 313 316 318 318 318 318 318 318 319 320 318 320 319 315 314 315 314 313 312 316 319 315 314 315 315 312 314 316 314 317 315 313 314 312 310 310 310 309 308
317 316 320 314 310 309 311 314 318 319 318 317 318 318 319 320 319 319 318 315 315 315 314 313 316 313 312 312 312 312 314 313 313 313 318 314 312 312 313 313 310 308 308 308 307
316 315 315 313 312 311 310 318 318 318 318 318 319 318 317 318 318 320 317 314 314 315 313 309 314 310 314 311 311 313 311 312 313 312 312 312 314 311 310 309 309 308 307 307 308
318 317 315 306 312 313 313 314 317 318 318 317 317 317 317 317 316 314 312 312 313 315 311 309 309 310 311 307 307 312 312 312 311 311 314 315 315 311 311 310 310 309 308 308 309

GFSSW_850_thetae_012.txt.gz
Theta_e
309 310 310 311 312 312 313 313 313 313 312 311 310 308 307 307 307 308 309 310 310 311 313 311 313 313 315 315 316 316 318 321 327 331 329 328 326 326 328 330 332 331 336 337 337
309 310 310 311 312 313 312 312 313 312 312 311 309 307 307 308 310 311 313 312 311 312 313 314 314 314 315 316 317 318 320 321 326 329 327 326 325 327 330 332 330 336 338 340 340
309 310 310 312 313 312 312 312 313 312 311 310 308 307 308 310 313 317 315 312 311 313 313 313 313 315 315 316 318 319 320 322 326 325 324 324 324 325 331 332 330 336 339 340 338
309 310 312 313 313 312 311 312 312 312 310 309 307 307 309 311 319 316 312 311 313 315 314 314 315 316 316 317 318 319 318 318 323 326 326 325 323 329 329 327 329 336 338 337 336
309 311 313 313 312 312 311 312 312 311 310 308 308 308 310 315 316 316 314 314 316 315 314 315 315 316 316 318 318 318 318 316 315 321 325 324 328 329 324 329 333 335 337 336 334
310 312 313 313 313 312 312 312 311 310 308 308 308 310 311 318 316 316 315 313 314 314 315 315 316 316 317 319 318 318 316 315 315 319 319 324 324 325 322 331 333 335 335 335 334
311 313 313 314 313 312 312 311 310 309 308 308 309 311 312 316 316 316 315 316 315 316 317 316 315 315 317 319 315 315 316 316 315 319 319 320 318 320 322 328 333 333 334 335 333
312 313 314 314 313 311 311 310 309 308 308 309 311 312 317 315 315 315 316 316 315 315 316 316 316 316 318 314 315 316 317 318 317 318 315 316 317 320 323 327 332 332 332 332 329
313 314 315 314 313 311 310 309 308 308 310 311 313 314 318 315 316 315 315 315 314 315 315 315 316 317 316 318 317 316 316 317 316 318 318 318 317 320 325 327 328 330 330 329 327
313 314 315 314 312 311 309 308 309 310 311 313 314 318 316 318 317 315 315 315 316 315 315 316 317 319 318 317 317 316 316 316 316 320 318 318 322 321 326 327 327 327 328 328 327
313 314 315 314 311 310 309 309 312 314 312 317 316 317 315 316 317 315 315 316 317 318 320 318 319 318 318 317 317 318 318 317 319 321 322 322 322 322 323 327 327 327 327 327 327
314 315 315 312 311 309 309 311 316 320 320 314 314 314 314 315 318 315 315 319 319 319 319 319 319 318 319 318 318 318 318 320 319 320 323 323 324 322 322 324 326 327 327 327 326
314 315 314 311 310 309 310 313 321 323 324 319 315 316 317 317 317 316 317 318 319 319 319 320 320 319 320 320 320 320 320 322 321 321 322 323 324 324 322 322 322 324 325 326 326
314 315 313 311 309 310 312 314 315 323 320 318 317 318 316 317 318 317 317 319 319 320 321 321 319 320 321 321 321 322 320 321 322 322 321 322 322 325 324 324 324 323 325 325 326
314 314 313 310 313 311 318 316 323 321 319 317 317 316 317 318 318 319 319 319 320 320 321 322 321 321 322 321 321 322 321 323 322 323 323 322 323 326 325 326 326 324 324 324 322
314 314 313 310 313 314 322 324 323 325 318 317 317 318 319 318 318 319 320 319 319 321 321 321 319 321 321 320 320 320 322 322 322 323 324 323 323 323 327 326 326 324 322 321 320
314 314 312 311 316 318 324 323 322 320 317 317 317 318 320 319 320 321 321 321 322 322 323 321 321 319 320 322 321 322 323 323 323 324 324 322 323 322 323 323 325 325 321 319 318
314 314 313 311 321 325 323 320 319 317 318 317 317 319 320 320 320 320 321 322 320 322 322 320 322 320 319 322 322 323 323 322 322 324 321 322 322 322 321 321 323 323 320 319 318
313 314 313 312 316 324 319 325 320 320 320 318 318 319 320 320 320 321 322 322 321 321 321 321 320 318 319 320 320 321 322 322 324 321 324 322 323 322 320 320 321 322 320 318 318
314 314 313 314 315 317 323 321 319 322 320 318 317 318 320 321 319 320 322 320 321 320 320 322 321 319 318 319 319 321 319 322 323 324 321 320 321 320 322 321 321 322 320 319 318
314 317 317 315 320 321 325 320 321 324 322 319 318 319 319 321 320 319 320 321 320 320 319 320 322 321 320 321 322 320 320 318 320 321 317 316 316 321 321 322 321 321 320 319 318
317 320 318 321 321 319 321 319 322 323 320 321 320 320 321 322 322 322 321 322 320 320 322 319 322 324 322 319 319 320 320 318 318 318 319 321 317 317 319 319 320 320 319 319 318
317 320 323 320 323 324 318 320 322 321 321 322 322 322 322 324 324 323 323 317 316 320 322 320 323 324 321 320 319 320 319 317 318 320 319 326 317 317 317 318 318 319 319 318 317
318 325 322 316 316 319 319 319 319 320 321 321 322 323 324 324 323 324 323 318 317 318 313 316 321 323 324 321 320 321 320 318 317 319 318 319 316 316 317 318 318 317 318 317 315
320 321 320 324 318 318 318 318 319 322 320 320 322 323 324 325 324 324 322 318 318 316 318 320 322 319 317 317 316 318 319 318 318 318 318 316 316 315 316 317 317 317 316 315 314
320 320 318 319 315 317 315 317 318 321 322 322 324 323 324 325 324 325 323 321 321 319 320 316 322 317 319 316 316 317 317 318 318 318 317 317 317 317 316 316 316 315 314 314 312
317 317 318 313 317 318 317 318 318 322 320 320 323 324 324 322 320 320 318 318 319 321 320 320 318 317 319 314 315 319 317 317 317 318 318 318 318 317 316 316 316 315 314 313 312

GFSSW_850_thetae_015.txt.gz
Theta_e
308 308 309 310 310 311 312 312 312 312 313 312 311 310 309 307 307 308 311 312 312 309 314 316 314 317 316 316 316 317 320 320 323 330 334 328 327 327 327 329 332 333 335 338 341
308 308 309 310 311 312 313 312 312 312 312 312 311 310 307 307 308 311 314 312 310 310 313 315 316 316 316 317 316 317 319 321 328 329 330 328 327 327 327 328 332 335 337 339 340
308 308 309 310 311 313 312 311 312 312 312 311 310 308 307 308 316 321 317 313 311 312 315 315 316 315 317 317 317 318 321 323 327 326 327 326 326 326 326 329 331 336 338 338 338
308 309 310 311 312 313 312 311 312 312 312 310 309 307 308 310 323 319 315 310 311 313 315 315 315 316 318 318 318 320 320 322 326 324 323 324 324 327 327 321 326 334 336 335 338
308 309 310 312 313 313 312 311 312 312 311 309 308 308 310 321 320 316 314 312 312 315 315 315 316 317 318 318 318 320 322 320 323 325 324 325 327 326 327 327 331 336 335 334 334
308 309 311 313 313 313 312 312 312 311 310 308 308 308 312 321 318 319 315 313 316 317 315 315 316 316 317 318 320 319 321 319 321 323 324 325 325 323 326 328 331 332 329 329 329
308 309 312 313 314 314 312 312 311 310 309 308 308 310 315 319 318 320 316 315 316 315 316 317 317 317 319 320 319 318 318 320 322 322 323 325 320 324 327 328 329 329 328 329 328
308 310 313 314 314 314 312 311 310 309 308 308 310 311 319 319 318 319 320 319 317 317 318 318 318 317 319 318 318 318 319 321 321 322 322 322 320 324 325 328 329 329 330 330 329
308 311 313 314 314 314 311 310 309 308 308 310 312 317 322 317 317 317 318 318 318 318 317 317 318 318 319 320 319 319 318 319 320 321 322 320 320 324 324 327 329 329 331 330 329
308 312 313 314 314 313 311 309 308 309 310 311 314 320 320 318 319 316 317 317 319 318 318 318 319 321 321 321 318 319 319 319 320 320 319 318 321 323 324 325 328 328 329 330 329
308 312 314 315 314 312 310 308 313 317 313 319 319 319 318 318 318 317 317 317 319 320 321 319 320 320 320 320 319 319 318 318 319 319 318 318 321 321 325 325 325 326 328 329 329
309 313 314 315 314 311 310 315 319 323 324 314 317 317 318 318 318 317 317 318 320 320 321 321 320 320 320 319 318 318 319 320 320 320 322 320 321 322 324 325 326 326 326 327 328
309 313 314 315 313 311 309 313 321 322 325 320 318 318 318 319 318 318 318 319 320 320 320 321 320 320 319 318 318 320 318 321 321 322 322 322 324 325 324 325 326 327 327 327 329
310 313 314 314 312 313 312 312 315 315 325 320 319 319 318 318 319 318 318 319 319 320 320 321 321 319 319 320 320 321 322 321 321 323 322 322 322 325 326 325 325 326 327 328 328
310 313 314 314 320 316 323 322 319 325 324 320 319 318 318 318 318 319 318 318 318 320 320 322 322 322 320 322 323 324 322 323 322 322 324 323 322 325 326 326 326 325 325 326 328
311 313 314 314 312 319 322 328 326 329 322 319 319 318 319 319 318 318 318 318 320 320 321 321 322 322 323 322 322 323 323 324 323 323 324 322 323 325 327 326 327 326 327 327 327
311 313 314 313 316 319 321 327 327 324 319 318 318 319 319 318 319 319 319 319 318 319 321 322 321 322 322 323 323 323 323 324 323 324 324 323 323 323 323 325 326 327 326 326 324
311 313 314 314 318 321 327 327 324 319 320 318 317 318 319 319 319 319 319 319 320 322 321 322 324 322 322 323 323 323 322 323 321 322 321 324 322 322 324 323 323 326 325 325 322
311 313 313 313 313 322 326 328 324 318 320 318 318 318 320 319 319 320 321 320 320 321 321 321 321 321 322 322 322 322 323 323 324 324 324 321 320 323 324 323 323 326 325 323 321
312 313 315 313 312 321 326 324 321 321 320 319 318 319 320 320 319 320 321 322 323 322 323 322 322 321 321 322 322 322 322 322 321 322 322 320 321 319 324 323 324 326 325 323 321
316 316 315 313 313 322 325 323 320 321 321 319 318 319 320 320 320 320 321 322 323 323 322 321 321 323 322 322 322 323 321 321 322 324 323 318 319 320 319 322 323 324 324 323 321
317 320 323 314 321 323 325 322 319 323 323 321 321 319 320 321 321 320 319 320 322 322 321 320 322 325 323 322 322 323 323 322 322 320 320 324 319 319 320 321 322 322 323 323 322
318 320 324 318 327 330 322 321 320 323 323 322 320 320 320 320 320 320 320 322 322 323 321 323 322 324 323 323 321 320 321 321 320 322 319 326 320 320 319 319 319 321 322 322 322
318 324 323 322 322 323 323 321 321 322 322 322 320 322 323 323 323 324 324 321 320 322 317 319 322 322 324 323 323 323 320 320 320 321 320 321 318 318 319 319 318 319 320 321 321
318 321 321 326 326 323 322 321 320 322 322 323 324 322 322 323 324 325 325 322 321 318 319 322 323 322 322 321 320 320 320 320 320 319 321 319 316 316 317 317 317 318 318 319 321
319 321 320 323 321 322 320 320 320 322 323 324 323 322 322 324 324 323 326 324 324 323 323 322 324 322 323 321 320 320 319 318 319 319 318 318 318 318 318 317 317 317 318 318 319
320 320 321 323 325 322 323 320 320 323 324 323 323 324 324 326 325 324 323 323 324 325 325 324 324 321 320 319 320 322 320 319 319 319 319 319 319 319 319 317 316 317 317 317 317

GFSSW_850_thetae_018.txt.gz
Theta_e
309 309 309 309 310 310 311 312 312 311 311 312 312 311 310 308 307 307 310 312 314 310 311 316 311 315 317 317 317 316 317 319 321 327 328 327 329 328 330 330 326 326 331 339 339
309 308 308 309 310 310 311 312 312 311 312 312 311 310 308 307 308 311 319 313 312 310 312 316 315 315 317 317 317 317 318 320 329 329 326 326 327 327 328 332 333 329 326 339 340
309 308 308 309 310 311 312 312 312 311 312 312 311 309 307 307 317 322 318 315 312 310 312 317 317 317 317 317 318 318 318 320 326 326 326 327 327 325 325 328 331 331 337 339 337
309 308 308 309 310 311 313 312 312 312 312 311 310 308 307 309 324 321 317 311 311 311 316 317 316 317 317 318 318 318 318 320 325 326 327 328 327 325 322 323 325 332 336 337 337
308 307 308 309 311 313 313 313 312 312 311 310 309 308 308 321 322 321 316 313 311 313 318 316 316 316 318 319 318 318 321 321 325 324 326 325 326 326 324 325 327 332 334 335 336
308 307 308 309 311 313 313 313 312 311 311 309 308 308 312 322 319 320 316 314 313 315 317 315 317 317 318 318 318 319 321 321 323 325 325 326 324 327 326 326 332 333 332 332 331
308 307 308 310 312 313 314 312 311 311 309 308 308 309 316 318 319 321 317 315 317 317 316 316 317 318 319 319 319 320 320 320 322 323 326 324 327 325 327 328 330 328 329 328 328
308 308 308 311 313 314 314 312 311 310 308 308 309 311 318 321 319 320 320 319 317 317 316 319 319 318 319 320 320 319 320 320 321 322 323 325 322 323 328 327 327 327 327 327 326
309 308 308 312 313 314 313 311 310 308 308 309 313 319 322 320 318 318 319 320 320 318 318 318 318 319 320 320 320 319 318 320 322 322 323 322 321 323 327 327 328 328 328 328 327
311 308 308 312 314 314 313 310 309 308 309 310 312 318 318 320 319 317 318 319 320 319 319 319 319 321 321 320 319 318 319 320 320 320 322 320 321 323 324 327 328 328 328 329 329
312 308 309 313 314 314 312 309 316 317 316 317 320 318 318 319 319 318 318 319 320 320 322 320 321 321 322 321 320 320 319 320 320 321 320 319 321 322 323 325 327 328 329 329 329
313 308 309 313 314 314 311 317 321 324 325 321 314 319 319 319 319 318 318 319 321 322 321 319 320 321 321 320 321 319 320 319 319 318 319 318 320 320 323 324 326 327 328 329 329
313 308 309 313 314 314 311 309 320 320 324 322 316 317 319 318 318 318 318 319 320 321 321 322 322 321 320 321 319 319 320 321 320 319 317 322 320 321 322 324 324 325 326 327 329
314 309 310 314 314 313 311 309 317 318 324 322 319 319 319 319 318 318 318 319 321 321 320 321 322 321 320 318 319 321 322 321 321 322 321 322 323 323 324 323 324 325 326 326 328
314 310 310 313 321 317 324 317 322 324 328 322 320 318 319 318 318 319 319 319 320 321 321 322 321 320 319 322 322 322 322 322 322 320 324 323 324 325 325 325 325 326 327 327 328
314 310 310 314 314 317 324 328 324 331 326 320 319 320 319 318 318 318 319 318 319 319 322 320 321 322 323 322 322 323 323 323 321 322 328 324 324 326 325 324 326 325 326 327 328
315 311 310 314 317 315 320 328 328 324 320 320 319 319 319 319 319 318 319 319 319 319 322 320 320 321 322 320 322 321 321 323 328 329 328 323 323 327 324 325 327 327 326 327 329
315 312 310 313 319 322 325 329 325 320 321 318 318 319 319 319 318 318 320 318 319 319 320 323 325 321 321 320 323 324 320 326 328 328 326 324 324 322 326 325 323 326 327 328 328
315 312 310 313 316 322 325 329 325 321 320 319 318 318 318 319 319 318 318 318 319 320 324 324 324 323 322 322 321 319 322 322 323 325 327 321 320 323 324 323 322 327 327 327 326
314 311 310 313 314 321 326 326 323 322 320 319 318 318 319 320 318 319 319 319 319 321 321 324 324 323 322 321 321 321 321 324 323 323 323 320 320 324 324 323 323 326 327 326 325
314 314 314 314 314 321 326 326 324 321 320 320 318 318 319 320 319 319 320 322 322 322 322 321 323 322 322 322 319 322 321 321 320 327 331 328 320 320 320 322 323 324 327 325 324
313 316 317 316 317 317 326 323 321 321 321 321 320 319 319 321 320 319 319 321 322 321 322 321 320 328 322 322 322 322 324 321 332 324 329 330 322 320 320 319 321 322 324 325 324
314 317 319 316 318 323 323 322 322 322 323 323 321 321 320 321 321 320 320 324 324 322 322 322 322 325 323 324 323 322 320 321 322 326 327 331 325 320 319 318 318 320 321 324 324
315 320 324 321 315 321 325 322 322 321 321 321 322 321 320 320 321 321 321 323 322 323 319 322 322 321 326 323 323 324 321 320 321 329 325 323 319 319 320 320 319 319 319 321 322
316 320 322 324 323 323 325 322 322 321 321 322 321 320 322 322 322 323 322 324 322 321 320 322 323 321 321 321 322 322 321 321 320 321 322 322 319 319 318 319 318 318 319 318 319
317 320 320 321 320 324 324 325 322 321 323 323 323 321 323 323 323 323 323 326 324 323 323 323 326 325 325 322 322 321 321 321 320 319 319 319 319 319 319 318 318 317 317 318 317
315 320 321 322 323 326 327 325 323 322 322 322 322 323 323 325 325 325 325 325 324 326 326 327 330 326 325 320 321 321 322 320 321 319 319 320 320 319 319 318 318 317 317 317 317

GFSSW_850_thetae_021.txt.gz
Theta_e
309 310 309 308 308 309 310 310 311 312 311 311 312 311 310 308 307 307 310 313 312 312 309 312 312 311 316 316 317 316 310 311 316 330 327 326 330 330 328 326 326 330 334 335 326
309 309 309 308 308 309 310 311 312 312 311 312 312 310 309 307 308 317 319 318 312 311 309 313 317 312 314 316 317 314 310 314 326 328 327 325 327 326 327 328 326 323 335 332 330
309 309 309 308 308 309 310 311 312 312 311 312 311 310 307 307 319 322 317 314 312 311 309 315 317 315 314 317 317 316 314 323 326 326 326 324 326 325 325 329 326 323 328 334 332
310 308 309 307 308 309 311 312 312 311 311 311 310 308 307 309 322 321 316 313 311 310 312 315 316 316 316 313 316 315 316 321 325 327 327 327 326 325 323 328 325 324 330 333 332
311 308 308 307 308 310 311 313 313 311 311 310 309 307 307 315 319 321 316 315 311 313 315 317 318 317 315 315 316 316 317 324 322 323 325 326 325 325 324 325 328 332 334 333 333
313 309 307 307 308 310 312 313 312 311 310 309 308 307 309 321 321 321 317 315 312 313 316 317 317 316 316 316 315 318 318 325 325 325 323 322 324 326 325 327 331 333 334 333 331
316 311 307 307 308 311 313 313 312 311 310 308 307 308 310 313 320 320 321 314 315 316 316 316 317 318 318 318 320 319 318 318 322 326 325 322 325 325 326 331 332 333 333 332 327
319 312 308 308 309 311 313 313 311 310 309 308 308 310 312 318 318 319 319 318 317 317 317 317 319 318 318 319 319 318 318 319 320 324 324 323 325 323 326 330 331 330 329 330 327
322 314 309 307 309 312 314 313 310 309 308 308 312 322 318 321 319 318 320 321 319 319 317 318 318 318 319 318 317 317 316 319 320 321 322 321 320 326 326 328 328 328 327 327 326
322 316 311 307 309 312 314 312 309 308 308 309 310 315 315 319 318 318 318 320 320 319 319 318 318 317 316 317 318 317 317 317 319 319 320 318 318 324 327 326 326 327 326 326 326
321 318 312 307 309 313 314 311 320 321 315 311 314 314 319 318 319 318 318 319 319 319 318 319 316 317 319 319 319 318 317 317 316 317 319 318 318 320 323 322 323 326 326 327 327
322 318 313 307 309 313 314 311 319 317 321 322 324 315 318 319 319 319 318 319 320 320 320 318 319 320 320 319 319 319 320 318 318 317 316 317 318 318 323 323 324 326 326 327 329
321 320 313 308 310 313 314 312 314 318 320 322 322 319 317 319 319 318 318 318 320 320 320 319 321 321 321 321 320 320 320 319 318 316 316 319 318 318 319 322 326 327 325 325 329
319 321 314 308 311 319 319 311 310 313 321 322 323 317 316 318 319 317 318 318 320 321 320 320 321 321 321 321 319 319 321 321 321 319 317 319 319 321 322 321 321 325 326 328 329
317 321 315 308 315 317 321 318 318 321 326 319 321 318 318 318 318 317 318 319 320 321 320 320 321 321 322 321 319 321 320 320 321 320 322 321 321 320 321 320 321 321 324 327 330
317 320 315 308 312 317 324 326 324 326 326 322 320 318 318 319 319 318 318 318 320 320 319 319 320 321 321 321 319 322 322 322 321 319 320 322 323 322 322 322 322 323 325 327 330
317 319 317 309 312 317 317 325 324 322 320 321 319 319 318 318 318 317 318 317 316 319 320 320 320 320 321 320 320 321 319 321 320 322 321 324 323 322 322 321 322 323 324 325 329
316 319 317 310 314 321 321 324 327 322 321 319 319 319 318 318 317 317 317 316 315 317 320 322 322 321 320 319 322 321 320 321 324 325 325 323 326 323 321 322 322 324 323 324 329
318 317 315 310 313 321 323 325 321 323 318 320 318 318 317 318 317 317 316 317 316 315 320 322 324 322 322 322 320 320 321 321 324 324 326 325 321 322 321 322 324 323 322 328 329
314 315 315 312 312 318 322 322 323 321 322 320 320 317 317 318 318 317 316 317 317 316 320 323 323 322 322 322 320 320 319 321 320 322 321 318 320 323 322 322 321 321 322 328 328
313 314 315 313 312 318 319 321 322 322 321 322 320 317 317 318 318 318 318 318 319 321 321 321 322 324 322 322 319 320 319 319 319 319 320 320 317 318 319 319 319 323 326 327 326
314 315 314 310 315 316 317 319 320 322 322 322 320 318 317 320 319 317 319 325 321 321 322 320 321 319 323 320 319 320 322 322 316 318 316 315 317 317 316 318 320 321 325 327 326
314 315 314 310 314 315 315 320 321 322 322 322 322 320 320 319 321 318 323 323 323 321 321 321 318 315 317 319 321 321 320 318 321 316 317 313 316 316 316 317 318 320 321 325 325
314 316 318 316 312 314 314 318 322 321 322 322 322 322 320 320 319 321 323 322 322 319 319 322 321 317 316 319 321 322 321 319 318 314 315 315 318 315 315 315 317 318 319 323 325
314 314 318 320 318 313 315 319 322 323 321 321 321 321 320 319 320 320 324 322 322 320 320 320 319 320 321 322 321 321 322 321 319 318 316 317 319 317 316 315 316 318 318 318 320
314 315 319 318 318 317 316 320 322 321 321 321 322 320 319 320 322 321 324 324 322 321 320 320 322 322 322 321 319 319 319 319 319 319 318 317 316 315 316 317 316 316 317 318 318
310 315 318 319 318 317 316 321 322 321 321 320 322 322 321 324 323 325 324 324 323 321 320 320 316 315 320 315 315 312 315 318 318 318 318 315 315 315 314 315 316 317 316 317 317

GFSSW_850_thetae_027.txt.gz
Theta_e
310 309 308 308 309 309 309 308 309 310 311 311 310 311 310 309 308 312 318 316 317 311 309 308 311 310 314 316 316 315 309 310 311 321 325 326 326 327 326 327 331 331 332 332 334
316 312 309 308 308 309 308 308 309 311 311 311 310 310 309 309 311 320 318 314 315 312 310 309 313 311 314 315 315 311 309 312 311 325 324 325 325 327 325 328 329 331 330 331 332
321 319 314 309 308 308 308 308 310 311 312 311 310 310 309 307 313 320 320 314 314 311 309 314 315 313 313 314 315 312 312 311 323 326 325 323 324 325 326 327 328 330 329 330 330
322 322 320 312 308 308 308 308 310 311 312 311 310 309 308 307 318 317 318 314 311 310 311 315 316 314 312 313 315 314 313 319 323 325 324 324 324 322 325 327 329 329 328 328 327
323 322 322 319 309 307 308 308 310 312 312 310 309 309 308 308 314 320 317 313 310 311 312 315 316 317 314 313 313 312 313 315 319 325 325 326 323 323 325 328 329 327 322 326 321
319 319 322 322 312 307 307 308 310 312 312 310 309 308 307 308 321 320 318 313 311 313 314 315 317 317 316 314 313 314 319 322 324 325 325 323 324 325 325 331 330 328 321 322 324
315 316 318 322 317 308 307 308 311 312 311 309 308 308 308 308 320 320 318 314 313 314 315 316 317 317 317 315 318 318 322 323 323 323 322 324 324 324 326 331 330 328 324 325 327
313 315 313 321 321 310 307 308 311 313 311 309 308 307 308 310 317 318 318 317 316 316 316 316 316 317 317 317 316 315 316 319 321 323 323 320 322 322 325 328 329 331 329 328 328
308 314 315 317 321 314 307 308 311 313 311 308 307 308 309 313 316 318 318 319 319 318 318 317 317 317 316 315 313 312 315 316 322 323 322 319 322 321 326 327 329 329 331 331 329
303 308 314 314 320 317 307 308 312 312 313 312 308 309 309 317 319 319 317 318 319 319 318 318 317 314 312 313 315 317 316 315 318 321 322 321 318 321 324 328 329 330 331 331 331
312 305 310 316 318 318 307 310 312 320 318 313 309 308 309 315 317 318 319 318 318 318 316 317 314 315 315 315 317 318 317 316 315 314 320 320 318 322 324 328 327 327 330 328 330
310 303 312 318 317 318 308 311 315 314 314 316 317 318 319 320 318 318 317 318 318 317 318 315 317 316 317 318 319 319 318 317 316 314 316 314 318 323 323 326 327 327 327 327 329
301 305 311 317 319 319 308 314 319 316 313 313 315 315 316 317 318 318 317 318 317 317 317 315 317 317 319 319 319 318 318 317 318 313 314 315 317 325 324 322 323 325 325 326 328
299 309 315 317 317 317 314 320 314 314 315 317 320 317 317 317 316 318 318 318 317 317 316 316 317 319 319 319 319 319 317 317 318 314 314 313 314 316 323 324 321 322 324 325 326
298 305 316 318 316 310 319 317 311 317 310 312 320 318 316 316 317 318 318 317 316 318 316 317 318 319 319 319 318 317 317 318 318 317 316 318 316 314 320 323 323 322 322 324 325
298 304 315 319 319 313 320 318 319 315 313 316 320 315 314 316 317 316 317 317 317 317 317 316 318 318 318 319 318 317 319 316 316 316 317 320 317 316 318 321 323 323 322 323 325
303 310 314 316 317 317 314 319 322 316 313 320 318 315 314 315 315 316 315 316 316 317 318 317 318 318 319 319 317 316 315 315 316 317 317 320 319 317 316 316 316 317 321 324 324
304 308 313 315 316 317 312 321 322 318 319 320 317 315 315 315 315 315 314 314 314 315 315 317 318 319 319 319 320 319 316 315 317 318 319 321 322 320 318 319 319 319 320 322 325
305 307 310 314 316 311 319 322 318 317 319 314 316 316 316 316 315 315 313 313 313 314 316 319 319 320 320 320 319 320 318 316 319 317 320 318 319 315 317 319 318 319 320 321 322
305 305 309 311 315 315 318 319 320 318 320 319 317 316 316 315 315 314 313 314 314 313 315 317 318 320 320 320 319 319 317 319 317 322 323 318 317 316 320 321 319 319 323 324 324
304 306 309 311 315 312 315 317 318 318 318 321 320 317 316 315 314 313 314 314 314 314 315 317 315 316 320 319 318 318 317 316 316 314 317 317 317 311 316 319 319 317 320 323 325
304 308 309 309 314 312 312 315 316 317 317 320 321 321 317 314 314 314 315 315 315 317 317 317 315 315 318 318 317 318 318 315 314 316 312 312 315 313 312 314 316 319 319 321 324
304 308 310 309 314 313 312 314 315 316 316 318 320 320 317 314 315 314 315 317 317 316 317 317 316 315 317 317 316 319 316 317 314 310 314 313 314 312 311 311 315 318 321 321 322
304 309 311 311 312 313 312 314 316 315 315 316 318 320 320 318 316 316 318 320 319 318 318 317 314 316 317 317 316 319 319 316 316 313 314 312 315 314 314 312 313 315 319 321 322
304 308 310 312 311 313 311 312 315 317 315 314 315 318 320 319 318 319 321 321 319 318 317 317 317 314 314 314 318 318 318 317 316 315 315 316 314 315 313 312 312 313 316 318 322
304 309 311 311 311 311 312 312 314 316 316 315 314 317 316 318 316 316 319 319 319 318 317 315 315 317 318 316 316 318 316 316 315 316 314 315 314 312 312 312 312 313 315 318 320
303 307 311 311 311 311 312 311 312 315 315 315 316 317 318 318 318 317 319 318 318 317 316 315 312 313 316 313 313 313 313 314 315 314 315 315 313 312 312 311 311 313 315 316 317

GFSSW_850_thetae_030.txt.gz
Theta_e
314 313 311 310 308 308 309 308 308 309 310 311 311 310 310 310 309 315 317 314 315 313 309 308 310 310 314 315 315 314 308 308 311 314 320 325 325 326 325 329 331 331 332 331 331
319 318 317 314 310 308 308 308 308 309 310 311 311 310 310 309 311 319 320 316 314 313 310 309 310 311 314 314 315 310 308 310 310 314 324 324 325 326 327 329 330 330 332 332 331
322 321 321 321 315 309 308 308 308 309 311 311 310 310 309 309 312 320 319 316 313 311 308 314 311 312 312 313 313 310 311 310 313 320 324 322 324 325 325 326 329 329 331 329 328
322 323 322 322 321 312 307 308 308 309 311 311 310 309 309 308 317 317 317 313 312 310 313 315 315 314 312 312 313 313 312 313 318 324 324 323 323 323 324 326 329 329 330 329 326
315 319 321 322 322 319 308 307 308 309 311 312 310 309 308 308 312 320 316 313 310 310 314 315 316 316 314 312 312 311 312 315 316 324 325 324 323 325 327 328 326 329 328 326 328
316 316 318 318 320 321 312 307 308 309 311 312 310 308 308 307 320 319 316 312 310 313 314 315 316 316 316 315 312 314 314 320 323 324 325 323 323 326 328 328 327 327 326 320 325
314 315 315 317 315 321 318 308 307 309 311 312 309 308 308 309 315 320 317 315 312 314 315 315 316 316 316 314 316 317 321 321 322 322 322 324 323 324 328 327 323 323 320 320 322
308 313 313 315 315 319 321 310 307 308 311 312 309 308 308 309 314 319 318 318 314 314 314 315 316 316 316 316 315 315 316 317 322 323 322 320 323 323 330 329 326 323 323 322 323
300 309 310 316 316 316 321 312 307 308 311 312 309 308 309 311 312 316 317 318 318 317 317 316 316 316 315 314 312 311 314 315 322 322 321 320 320 322 329 330 329 327 325 323 324
299 301 311 314 316 315 320 313 308 310 312 312 312 309 308 314 317 318 319 318 318 319 317 317 316 312 311 311 315 316 316 315 317 322 322 321 319 320 324 327 329 330 329 327 327
299 299 306 315 318 315 319 310 311 315 317 317 309 309 308 313 316 317 318 317 318 318 315 316 313 314 313 314 315 317 317 316 314 315 322 321 319 321 322 325 327 328 329 330 330
300 299 307 313 319 316 319 308 312 313 315 314 315 315 317 317 318 317 317 317 317 316 316 314 316 314 314 315 317 318 318 317 316 312 318 318 319 320 321 325 327 328 329 330 330
300 299 307 314 317 314 318 310 312 319 314 313 314 315 315 316 316 317 316 317 316 316 316 315 315 316 318 317 318 317 318 317 317 313 312 315 317 323 322 323 326 327 328 330 329
304 299 310 314 316 314 315 318 319 317 313 314 317 316 316 316 316 316 317 317 317 316 315 316 315 318 319 318 318 318 317 315 317 313 313 313 315 314 322 323 321 324 326 328 330
305 299 310 314 316 312 316 316 312 315 309 312 319 317 317 316 316 317 317 317 315 316 315 317 318 318 318 318 317 317 316 317 317 315 316 317 315 314 319 324 324 323 324 326 326
305 302 309 313 315 312 318 316 317 316 310 311 318 317 314 315 316 315 317 316 316 316 316 315 316 316 316 317 317 317 317 314 314 314 316 318 316 315 315 322 325 324 325 327 325
303 305 308 312 314 314 315 315 322 317 312 314 319 314 313 313 314 314 313 315 315 316 317 316 317 316 318 318 316 316 314 314 315 317 317 318 319 317 315 314 317 320 323 325 326
303 305 305 309 312 314 317 318 319 316 314 316 316 313 313 313 314 314 313 314 313 313 313 316 315 318 318 317 316 317 315 314 316 316 316 318 319 317 317 317 318 318 318 318 322
302 304 304 309 312 315 315 318 316 316 317 315 315 314 314 314 314 314 313 312 312 313 315 315 316 318 319 319 317 318 317 314 317 315 318 316 316 313 315 317 317 319 318 317 319
302 303 303 308 311 314 315 316 317 315 319 319 315 315 314 313 314 314 312 312 313 313 314 316 317 318 319 319 318 318 315 318 315 321 322 316 316 314 315 318 319 318 320 320 320
302 304 304 306 312 313 314 314 315 317 318 319 321 319 314 314 313 313 313 314 312 311 313 314 313 314 319 317 316 316 317 314 315 313 316 315 315 311 313 315 317 316 319 321 322
303 304 305 307 312 311 313 312 313 317 317 317 319 320 319 314 314 313 314 314 313 314 314 315 313 311 316 316 316 315 316 314 315 316 311 311 314 312 309 310 314 315 319 319 320
302 304 306 307 310 312 312 313 312 315 316 317 318 319 317 315 315 313 313 314 314 314 315 315 314 313 314 314 315 318 315 314 312 309 313 312 314 311 310 311 314 314 318 318 320
302 304 307 308 309 310 311 313 312 314 315 316 316 318 319 318 313 314 313 318 316 315 316 316 314 314 315 314 314 318 316 315 315 312 313 312 314 313 312 311 311 315 315 315 318
302 304 308 310 308 309 310 312 312 313 315 315 314 317 318 319 316 317 318 319 317 317 315 313 314 313 313 314 315 316 318 314 315 314 315 315 312 313 312 311 312 313 314 314 316
301 305 307 310 308 309 311 312 312 312 314 315 315 315 316 318 316 316 319 317 317 316 315 313 315 313 317 316 316 317 315 314 314 314 313 313 313 310 311 312 312 312 315 317 319
301 304 307 308 309 308 310 311 311 313 313 314 314 314 315 315 316 315 316 316 316 316 315 313 311 312 316 313 314 314 313 314 314 313 314 314 312 310 311 311 310 312 315 316 317

GFSSW_850_thetae_036.txt.gz
Theta_e
321 321 321 320 320 320 320 313 308 308 308 309 310 311 310 310 309 315 318 317 313 313 310 312 312 314 314 315 315 315 318 317 319 320 321 325 329 329 330 332 333 333 335 332 333
320 321 322 322 322 321 321 321 313 308 308 309 310 311 310 309 309 318 319 317 313 312 309 312 313 313 315 316 317 318 318 317 318 318 319 325 328 329 331 332 332 330 330 331 331
316 315 320 321 321 321 322 321 320 310 307 308 309 311 310 309 310 320 318 315 312 310 309 312 312 314 316 316 317 318 319 318 318 317 318 324 327 328 329 332 332 330 329 329 328
314 314 314 313 317 319 320 319 320 317 308 308 309 311 310 309 316 317 318 313 311 309 311 312 313 315 317 318 317 318 318 318 318 320 323 326 327 328 329 331 331 329 328 327 326
305 308 312 314 314 312 318 316 317 320 311 307 308 311 310 312 311 316 317 312 310 312 314 316 317 318 318 318 317 318 319 318 319 319 325 325 326 328 331 332 331 329 328 328 327
299 299 304 311 314 314 312 314 314 320 316 308 308 309 312 312 309 319 314 310 310 313 314 315 318 318 319 319 319 318 319 324 321 325 327 327 328 328 330 330 329 329 327 327 327
299 298 299 303 309 313 314 312 311 318 320 311 307 309 311 312 309 319 313 311 310 313 315 314 316 318 318 320 318 318 324 323 325 326 327 326 327 330 328 329 329 328 327 326 327
299 299 298 298 300 307 309 309 312 316 320 314 308 310 313 310 309 316 316 313 312 313 314 314 315 317 318 318 319 320 322 323 323 324 325 327 328 331 327 327 326 326 327 324 327
299 300 299 299 299 303 306 306 312 313 318 312 309 311 313 309 308 311 319 317 314 312 313 315 316 318 318 319 320 320 320 321 324 324 326 327 326 330 328 325 325 324 322 323 325
301 300 300 299 299 301 303 307 311 313 313 311 312 312 311 311 312 310 317 316 316 315 315 316 319 320 319 319 320 320 320 322 325 326 326 325 325 330 329 326 326 326 323 323 324
305 302 301 300 299 301 303 312 316 314 313 316 315 314 309 312 315 316 315 315 318 319 321 319 320 319 318 318 320 320 320 320 321 322 324 323 323 328 329 329 328 328 328 325 324
306 305 303 301 299 301 303 315 316 313 315 314 311 314 313 311 316 317 317 319 319 321 321 321 320 319 318 319 320 321 320 321 321 319 321 322 322 324 329 331 330 330 330 330 328
305 306 305 303 301 306 306 313 313 314 318 316 316 315 314 314 315 317 317 319 320 321 321 321 321 319 319 321 321 322 321 321 321 320 320 320 322 324 326 328 330 329 329 329 329
305 305 305 303 304 310 311 308 311 316 319 314 314 315 315 315 317 316 317 318 319 321 321 321 320 320 321 321 321 321 321 321 321 321 320 320 321 322 324 327 328 328 328 329 328
306 304 304 304 311 312 313 312 314 315 313 314 317 316 317 315 315 316 316 318 320 320 321 321 321 321 321 321 321 321 321 321 322 322 322 322 321 321 322 325 326 327 328 327 328
304 305 304 305 307 311 314 315 316 321 313 313 318 319 318 317 316 316 317 317 318 320 320 320 319 321 321 320 321 321 322 321 322 322 323 321 322 321 322 322 322 324 326 328 328
301 305 304 304 306 312 313 316 320 318 313 313 319 319 318 317 316 317 318 319 319 320 321 320 320 320 320 321 321 321 322 323 322 323 323 322 323 322 321 321 322 322 323 326 327
298 301 304 303 306 309 311 318 314 311 313 315 318 319 318 316 316 317 318 319 319 319 320 320 320 320 320 321 321 321 322 323 322 321 320 322 321 321 321 321 321 322 322 322 326
299 300 304 303 303 308 312 315 310 310 314 313 315 319 319 316 316 318 318 318 319 319 320 320 319 319 320 320 321 322 322 321 324 324 323 321 321 321 320 321 322 322 323 322 322
299 301 303 303 303 305 310 314 311 311 314 316 315 316 320 318 315 317 318 318 319 319 319 319 319 320 322 321 321 322 321 323 323 323 322 321 321 320 320 319 320 321 321 323 324
299 301 303 303 303 305 310 313 311 311 315 317 318 315 317 319 316 317 318 316 319 318 319 319 319 322 322 323 322 323 323 322 322 323 322 322 321 321 320 320 320 321 320 321 322
300 303 303 303 305 305 309 311 310 311 314 317 319 319 317 317 318 317 318 318 317 319 319 319 320 321 320 320 320 321 321 322 323 322 322 324 321 320 321 321 319 321 319 320 321
301 302 303 302 305 308 309 310 311 311 312 317 318 320 321 320 319 317 316 317 317 319 319 319 320 320 320 319 320 320 320 320 321 321 322 328 322 320 320 320 320 319 319 318 319
300 303 304 303 304 307 310 309 310 310 312 314 317 318 321 322 319 318 317 316 316 318 318 319 319 320 320 319 319 321 320 320 320 323 322 323 321 321 321 321 321 321 320 318 317
301 304 305 305 306 307 309 308 309 311 310 313 317 319 320 321 320 320 316 319 316 315 317 320 319 319 318 318 317 318 318 320 320 321 322 322 321 321 320 321 320 318 317 317 317
301 305 305 306 305 305 306 310 310 309 311 312 316 317 318 319 319 320 320 321 320 319 319 319 319 319 319 318 318 318 318 319 320 320 321 321 321 320 320 320 319 318 317 319 320
301 303 305 306 307 307 306 309 309 310 310 310 312 315 317 318 317 317 316 316 317 321 320 320 321 320 320 320 319 321 320 319 320 320 321 321 321 320 320 320 319 318 319 318 318

GFSSW_850_thetae_042.txt.gz
Theta_e
316 317 317 319 320 319 319 318 320 321 321 320 318 311 310 311 312 310 316 320 320 315 312 316 317 317 317 318 318 318 318 320 321 321 323 324 328 326 325 329 336 334 333 331 332
310 309 312 315 316 317 315 317 319 321 321 319 319 316 310 310 312 312 316 319 318 313 311 317 316 317 318 318 319 318 320 321 320 320 321 321 324 324 326 329 330 325 330 331 334
301 302 304 312 313 314 313 313 312 313 316 316 315 318 313 310 315 321 318 318 316 312 316 316 316 316 318 318 319 319 320 321 320 320 320 321 325 323 329 333 328 323 330 332 331
299 299 300 302 306 308 310 310 312 311 311 313 312 317 316 311 320 323 319 317 315 311 313 314 315 316 317 320 320 319 319 320 320 320 320 320 326 328 331 334 333 332 331 330 329
299 299 299 299 299 299 301 305 309 309 310 310 310 316 316 318 319 320 316 314 313 310 316 315 316 317 319 320 320 320 320 320 321 322 321 324 326 327 333 332 331 330 330 330 328
300 299 299 299 299 299 299 301 304 305 308 309 309 313 318 317 317 317 316 314 313 313 316 316 318 320 320 321 320 321 321 320 322 322 323 326 324 323 331 332 330 330 328 328 326
304 302 299 299 299 299 299 299 300 302 305 306 309 313 317 316 316 316 319 318 315 316 317 318 318 319 319 322 320 319 320 321 323 324 325 326 323 324 324 330 327 326 326 322 324
307 306 304 299 299 299 299 299 300 301 302 305 309 312 316 314 316 316 318 318 316 316 317 318 318 318 319 320 321 320 320 321 325 325 325 324 325 323 322 327 325 322 323 324 324
307 306 306 302 300 299 300 300 300 302 303 307 310 316 315 314 316 314 317 318 316 316 317 318 317 318 319 320 320 320 321 322 325 323 326 326 326 324 324 328 326 325 326 328 327
306 307 306 305 303 300 300 300 302 311 316 315 315 316 315 314 315 315 315 319 317 316 318 318 317 318 320 320 321 321 322 323 326 326 324 328 328 324 325 325 325 325 321 325 327
304 305 306 306 306 301 300 300 314 320 319 319 318 314 317 316 315 314 314 319 319 318 319 318 318 318 320 321 320 320 322 323 326 326 325 327 330 328 329 326 325 323 319 321 324
302 303 306 306 306 304 301 310 312 317 317 313 312 313 315 317 316 316 314 320 319 320 319 319 321 321 321 322 321 320 320 322 322 324 322 322 323 329 329 328 327 325 322 322 324
302 302 305 306 305 304 302 306 314 316 316 311 311 312 313 315 316 317 316 318 320 320 320 320 321 323 322 321 320 319 320 321 323 323 323 322 322 323 329 328 328 328 327 325 325
300 302 303 306 304 308 308 311 312 314 316 310 311 316 314 315 316 315 317 318 319 319 320 321 322 322 322 321 320 319 320 321 322 323 322 323 324 323 328 327 328 328 327 326 325
302 301 301 305 308 312 316 316 316 320 308 312 316 317 318 317 317 316 316 319 320 319 321 322 322 322 322 319 319 320 323 323 322 321 324 323 323 321 323 325 329 330 328 327 326
302 301 300 302 306 307 313 314 316 315 311 313 318 318 318 318 317 317 316 317 319 320 321 321 322 322 322 320 320 322 323 324 323 322 325 324 322 324 325 325 324 327 329 328 327
302 302 301 303 305 306 308 314 315 311 310 310 317 319 318 319 318 318 318 318 320 320 322 321 321 322 321 321 321 321 322 324 324 326 327 324 323 324 325 324 324 324 324 328 327
302 302 300 302 304 309 309 314 309 307 310 315 315 316 320 319 319 318 318 318 320 319 320 322 323 321 321 321 322 322 322 325 331 331 328 325 324 322 324 323 322 322 321 324 328
302 302 302 303 304 306 307 312 310 308 310 311 314 316 318 320 319 318 319 319 319 319 320 322 322 321 321 321 322 323 323 323 328 327 328 328 324 322 322 321 321 321 322 323 323
303 302 302 303 303 305 308 309 310 308 309 311 312 313 318 321 319 319 319 319 319 320 320 321 323 322 321 321 321 321 323 326 326 329 331 324 322 323 323 321 322 321 322 324 324
303 303 303 303 304 305 306 309 309 308 308 309 311 312 313 318 321 319 319 319 319 319 319 321 322 323 322 321 321 321 322 325 326 326 329 328 325 323 323 323 322 322 321 321 322
303 304 304 304 305 305 307 307 308 309 308 311 312 312 312 316 318 321 320 320 319 320 320 320 322 323 322 321 321 321 322 323 328 326 328 333 327 324 324 323 322 322 321 321 321
303 303 304 304 305 305 307 308 306 309 309 310 311 313 314 316 319 319 320 322 319 321 320 321 321 323 323 323 322 322 321 323 324 326 328 330 326 323 322 321 321 320 320 321 320
303 304 305 305 304 306 307 309 308 307 309 309 311 312 313 315 318 321 321 321 320 320 318 322 322 322 324 322 323 323 322 324 325 327 326 326 325 324 324 323 322 322 320 320 321
302 304 305 306 306 308 308 307 308 308 307 309 311 312 313 315 317 318 319 321 320 319 319 322 323 321 322 321 321 323 321 321 323 325 325 325 322 322 322 323 321 322 322 322 321
300 305 305 306 306 308 308 309 308 309 308 308 311 311 313 314 317 317 320 319 321 321 320 321 322 323 323 322 320 320 321 322 321 321 321 321 322 322 321 321 321 321 320 321 320
302 303 306 306 308 307 309 310 310 309 309 308 310 311 312 313 314 319 318 317 317 319 321 321 323 323 324 323 321 321 320 320 321 321 320 320 322 321 321 322 322 321 320 320 320

GFSSW_850_thetae_045.txt.gz
Theta_e
308 309 311 309 311 314 313 316 315 316 317 319 319 318 317 317 315 313 313 314 319 319 314 312 315 316 317 317 317 317 312 313 315 318 322 323 327 326 324 331 328 332 332 331 330
300 300 301 302 303 307 311 311 311 310 310 312 315 315 313 316 315 315 315 316 320 318 313 314 316 316 317 317 317 314 311 314 318 317 317 324 325 325 325 322 325 329 329 329 330
299 299 299 299 300 302 305 306 307 307 308 308 308 310 310 313 313 321 319 317 317 316 312 317 317 315 316 317 317 316 313 316 318 320 320 319 324 325 323 323 327 326 329 329 329
300 299 299 299 299 299 299 300 300 303 305 307 307 307 307 312 319 320 318 317 317 315 311 315 314 315 314 313 316 316 317 317 318 321 321 320 326 329 330 331 331 329 328 328 328
303 301 300 299 299 299 299 299 300 301 303 304 306 307 307 316 316 316 319 316 314 314 311 313 314 315 314 315 318 318 317 319 320 320 321 324 325 327 328 328 329 329 329 329 328
307 304 301 300 299 299 299 299 300 300 300 303 305 306 310 317 313 317 318 316 313 314 310 316 316 315 318 319 317 319 319 319 319 319 322 324 323 323 327 330 329 328 327 326 325
306 307 305 302 300 299 300 300 300 300 300 302 304 308 310 307 312 317 318 319 315 313 314 316 317 318 319 318 320 320 317 317 317 323 324 324 324 324 324 325 329 329 324 324 324
306 306 307 306 301 300 299 300 300 300 301 302 304 310 312 306 315 312 316 318 318 315 316 317 318 318 318 318 318 317 317 317 317 322 323 323 324 324 323 323 325 323 323 323 323
304 306 306 306 305 301 300 300 300 300 303 312 310 313 315 312 312 310 315 316 319 316 316 316 318 317 317 316 316 316 316 316 320 323 323 323 324 324 323 323 323 322 323 324 323
302 303 305 305 306 305 301 300 301 300 305 317 314 315 312 312 313 315 314 315 319 316 316 317 317 315 313 314 317 318 318 319 322 322 324 324 323 323 322 326 321 323 326 326 324
303 302 302 304 304 305 302 300 309 317 319 319 317 310 313 314 317 315 314 316 318 317 315 317 315 315 313 315 318 318 318 318 321 322 324 327 325 322 321 325 323 325 324 327 326
302 302 302 302 305 305 303 302 306 312 314 316 317 319 318 315 316 316 314 315 319 318 316 316 317 316 317 317 318 320 318 317 320 324 323 321 326 322 321 324 323 321 324 325 327
303 301 302 302 305 305 304 303 301 308 313 312 311 312 309 308 311 313 316 314 319 319 318 317 318 318 318 320 320 319 318 317 319 321 321 319 319 325 325 327 324 320 320 320 325
304 302 300 302 303 309 308 313 311 313 315 311 309 311 310 311 313 313 316 315 318 319 318 318 318 319 319 321 319 318 317 320 321 321 320 320 322 329 329 328 326 323 319 320 323
303 304 301 301 306 308 311 316 317 317 303 308 311 311 312 312 315 315 314 315 316 318 317 318 318 319 320 321 320 320 320 321 322 321 319 319 323 322 329 328 327 325 324 322 323
302 303 303 301 302 305 308 313 316 315 316 310 317 317 317 313 315 316 315 315 316 317 317 317 319 319 319 321 320 318 322 322 322 320 319 320 320 319 326 324 327 326 326 325 324
302 302 303 301 301 304 307 309 314 314 307 307 318 318 317 318 317 315 315 314 314 318 319 318 318 319 319 320 320 318 320 322 321 320 320 326 326 322 321 321 326 324 327 326 325
303 302 302 302 301 303 308 310 313 306 308 310 311 313 318 317 317 318 317 316 314 316 317 319 319 319 319 319 319 318 319 321 324 324 327 326 327 321 322 320 321 323 328 327 326
303 303 302 303 301 302 306 311 308 307 307 306 307 308 317 318 318 318 317 316 316 315 317 318 319 319 319 320 319 321 320 320 327 326 325 326 325 322 322 319 318 319 321 326 327
304 303 303 303 302 302 307 309 309 309 307 307 307 310 312 317 319 318 317 317 317 316 317 318 320 320 320 319 318 319 321 323 326 328 329 328 327 325 321 322 319 317 319 321 324
304 304 303 303 303 303 306 307 307 307 308 309 307 308 309 310 311 316 319 318 317 317 317 317 318 320 321 321 320 319 319 320 325 326 325 323 323 320 322 322 321 317 321 322 323
304 304 303 303 304 304 305 306 307 307 307 308 309 309 309 310 310 312 320 320 318 317 318 317 318 318 319 320 320 319 319 320 323 325 324 320 322 321 319 319 320 320 320 321 322
304 302 303 303 304 304 304 305 305 306 307 308 309 309 309 310 311 316 320 320 320 320 317 317 318 318 321 319 320 319 319 319 320 322 324 321 323 321 321 320 320 319 320 320 321
302 303 304 304 303 304 304 305 305 306 307 307 307 308 308 309 311 316 319 320 318 320 318 318 318 318 319 320 320 321 321 320 319 320 320 322 324 323 322 321 319 321 321 321 320
302 302 304 306 304 304 304 305 306 306 306 306 306 307 308 309 310 312 318 318 317 317 320 320 319 318 318 320 320 322 322 320 320 320 324 323 322 320 319 319 319 321 321 321 321
300 304 304 304 305 304 305 305 305 307 306 307 307 307 308 308 309 311 317 319 319 319 319 319 319 319 319 319 319 319 320 320 320 321 323 323 322 321 321 320 320 321 321 322 320
303 303 304 304 305 306 305 305 306 306 306 307 307 307 307 309 309 313 318 317 318 318 317 318 319 319 319 319 320 319 319 319 320 320 320 320 319 317 318 320 320 321 321 320 320

GFSSW_850_thetae_048.txt.gz
Theta_e
300 300 300 301 301 302 303 305 309 309 309 309 310 311 314 313 315 315 317 315 315 314 317 312 313 314 316 317 317 317 311 310 312 314 318 323 324 325 324 326 325 327 330 329 331
299 299 299 299 300 300 300 301 304 305 305 305 305 306 307 308 312 315 319 314 319 319 316 311 315 316 316 317 317 313 309 312 312 316 321 324 323 323 322 325 327 327 328 329 329
301 300 299 299 299 299 299 300 300 300 301 302 303 304 305 305 310 317 319 317 317 317 315 313 316 317 315 315 315 313 312 314 315 317 322 323 324 325 323 330 328 326 326 328 328
306 303 300 300 299 299 299 300 300 300 300 301 302 303 304 305 311 320 318 318 318 317 315 312 316 314 313 313 314 314 314 315 316 319 324 323 327 329 326 326 326 327 328 328 326
306 306 304 301 300 300 299 300 299 299 299 300 301 303 304 311 309 312 313 318 317 316 314 311 314 314 313 313 315 315 315 318 319 320 326 326 329 329 329 329 329 327 327 328 326
305 306 304 302 302 300 300 299 300 299 299 299 301 302 307 314 308 315 317 318 316 314 314 311 312 314 314 317 317 318 318 317 318 318 324 324 325 323 328 328 328 328 327 327 326
303 304 305 304 303 302 300 300 300 300 299 299 301 303 310 306 306 315 319 318 319 317 314 311 314 316 317 316 318 318 317 315 317 317 322 322 322 323 328 329 328 327 325 325 325
303 302 304 305 305 303 301 301 300 300 299 299 305 307 309 305 305 308 312 316 317 319 315 314 316 316 317 317 317 316 315 316 316 317 323 321 322 322 328 327 329 324 324 323 323
303 302 301 303 305 303 300 300 301 300 300 299 306 314 311 309 312 311 311 311 317 318 315 316 316 317 317 315 314 315 315 316 316 318 322 321 321 321 324 326 326 322 321 322 322
302 304 303 302 301 303 300 300 301 300 300 303 315 314 311 309 315 316 314 313 315 318 318 317 316 314 311 312 315 315 316 316 316 321 323 322 320 322 321 323 323 320 321 322 322
302 301 303 302 301 302 303 301 304 316 310 317 317 313 310 313 315 316 315 313 314 317 314 315 314 315 313 312 315 316 316 316 315 319 324 323 322 320 322 324 321 321 322 323 324
304 302 302 301 301 302 304 304 305 307 308 308 313 316 315 316 319 316 315 314 314 316 313 314 315 315 314 314 315 315 316 317 315 320 322 321 324 322 319 322 321 321 325 325 324
305 304 303 301 301 302 306 306 311 310 310 310 308 311 312 311 317 316 313 314 316 317 315 315 316 316 316 316 316 316 317 317 316 320 320 318 320 323 322 322 323 322 324 325 326
304 304 304 301 300 303 309 310 310 311 312 310 311 308 309 310 310 307 311 314 314 318 317 315 315 316 317 317 316 317 318 317 320 319 319 317 318 324 323 323 325 321 323 325 327
303 303 304 303 301 304 310 310 313 313 297 304 309 309 310 310 310 311 308 313 313 317 317 318 317 317 318 317 317 319 318 318 319 319 318 319 318 319 323 327 326 321 320 322 324
303 303 303 304 302 301 302 307 313 315 310 311 312 311 310 310 313 315 312 313 315 314 316 316 317 316 316 317 318 319 320 320 320 319 320 320 319 318 328 327 327 325 319 319 322
303 303 302 303 303 302 303 309 312 309 306 306 315 317 314 310 311 314 313 313 313 315 315 315 316 316 317 317 317 317 318 320 321 320 321 323 324 321 319 326 326 326 325 321 320
304 303 303 303 303 302 303 310 311 307 306 308 308 309 317 315 313 314 314 313 312 314 314 316 318 317 317 317 318 317 317 318 321 323 322 323 323 321 320 321 322 326 326 325 322
304 304 303 303 303 301 303 310 311 308 307 306 306 306 306 317 316 316 315 315 313 312 316 317 317 317 317 317 317 318 318 317 323 324 323 322 322 320 319 319 318 321 324 325 325
304 304 303 303 303 301 304 307 308 307 308 308 306 307 309 308 313 315 316 315 316 314 313 316 318 317 317 317 316 318 318 321 322 325 324 325 325 323 323 319 319 316 320 325 325
305 304 303 303 302 302 304 304 306 306 307 309 309 307 307 308 310 311 312 315 315 315 314 314 316 317 317 318 318 318 318 320 322 322 323 323 321 318 321 321 319 317 318 321 325
305 304 303 303 303 303 302 304 305 305 306 306 308 309 309 309 309 310 312 314 319 319 315 314 315 316 316 317 318 317 318 319 322 324 321 318 322 319 318 318 318 319 319 321 324
304 302 303 303 304 304 303 303 304 305 306 307 308 307 307 308 309 311 313 315 317 319 318 319 316 316 317 317 317 318 318 318 319 319 321 321 323 319 318 318 320 319 319 320 321
300 303 302 303 303 302 303 303 303 304 304 304 305 306 306 308 308 308 309 313 317 318 319 319 318 316 318 318 318 319 320 318 318 317 318 319 320 320 319 318 319 320 319 320 321
300 302 304 305 303 303 303 304 304 303 305 305 306 305 306 306 308 307 309 315 317 318 319 321 321 318 317 317 318 318 319 319 319 318 319 318 320 320 319 318 319 322 320 320 320
300 302 303 303 304 304 303 304 304 304 305 305 305 306 305 306 306 307 307 309 317 319 318 318 321 318 317 317 317 318 319 319 319 319 318 318 320 319 320 319 317 319 320 321 321
302 302 304 304 304 305 304 303 304 304 304 305 305 305 306 306 307 309 311 311 316 318 318 318 318 318 317 317 318 317 318 318 318 318 320 321 319 319 318 317 317 319 320 321 320

GFSSW_850_thetae_051.txt.gz
Theta_e
300 299 299 299 299 299 300 300 301 302 304 304 304 305 306 307 311 312 313 316 316 313 316 315 312 311 311 315 316 316 310 310 311 313 315 324 324 324 325 328 329 327 327 328 331
301 301 300 300 299 299 299 299 299 299 300 300 301 302 303 304 308 311 314 316 315 315 318 315 313 316 316 316 316 311 309 312 311 313 315 323 321 322 322 324 328 327 328 329 329
303 301 302 302 300 300 299 299 299 299 299 299 300 301 302 303 307 314 319 315 317 318 317 315 313 316 315 315 314 312 312 311 314 314 315 322 323 325 322 326 327 326 328 325 328
307 302 303 303 302 302 300 299 299 299 299 299 299 300 302 303 308 320 318 318 317 317 316 314 313 315 311 311 313 313 312 313 315 316 322 322 326 327 325 326 326 326 325 325 321
308 307 301 303 303 301 301 301 300 299 299 299 299 300 302 307 305 313 317 314 316 317 317 314 313 313 312 312 314 312 315 317 318 317 321 325 328 328 328 328 327 326 327 327 325
301 301 301 301 301 301 301 300 301 300 299 299 299 300 304 311 306 307 309 309 313 317 315 314 312 314 314 312 316 316 317 316 317 320 326 326 325 324 325 329 327 326 326 327 327
303 301 300 300 300 301 301 301 300 301 300 299 299 301 307 303 305 306 313 316 317 317 315 314 312 314 315 315 317 317 315 313 314 316 322 322 322 323 323 328 327 327 326 326 325
300 303 304 303 300 301 301 300 299 300 301 300 299 304 307 304 305 305 307 317 318 317 316 315 312 315 315 317 315 315 314 315 315 316 320 321 321 319 326 328 327 326 324 324 322
301 300 300 304 303 300 299 300 300 300 300 300 300 306 309 307 308 313 312 307 317 314 317 317 315 315 315 313 313 312 312 315 315 315 320 319 322 319 328 328 328 326 323 322 320
304 303 302 300 301 301 299 300 301 302 302 301 309 309 305 308 311 315 315 315 310 314 316 317 316 312 310 312 314 313 314 315 315 315 321 320 319 319 327 325 327 324 321 320 320
303 304 304 303 301 300 299 301 303 312 308 309 312 308 310 314 313 316 316 315 313 315 315 314 312 313 313 312 313 314 315 314 313 314 319 319 319 317 319 321 323 321 322 321 321
303 304 304 304 304 302 300 304 305 306 307 307 307 310 310 311 315 314 316 314 313 313 313 313 314 313 313 313 313 314 314 314 314 314 319 319 320 318 319 320 321 320 321 322 322
304 304 304 304 304 303 301 307 307 306 309 311 305 304 305 309 314 311 314 313 312 313 313 315 315 315 314 314 315 314 314 314 315 315 319 320 318 319 319 321 321 321 322 323 323
303 304 304 304 304 302 304 308 308 307 308 307 310 306 307 310 313 308 311 314 312 314 315 314 315 314 315 315 314 315 314 316 316 316 317 316 318 315 320 320 321 320 321 323 324
303 303 303 303 304 303 303 305 305 310 300 304 309 308 308 309 309 309 307 312 311 316 316 317 315 314 315 316 315 315 316 316 317 316 317 317 316 315 321 324 322 321 321 322 324
303 303 303 303 303 303 303 302 308 313 309 307 309 311 310 309 309 310 310 309 312 313 315 316 316 314 315 315 315 316 317 317 317 316 319 317 317 317 320 322 323 322 321 323 323
303 304 303 303 302 303 302 304 315 311 305 305 308 311 311 310 309 312 310 312 312 314 314 314 315 315 315 316 316 316 317 317 318 319 321 318 323 320 317 319 322 323 323 322 323
303 304 304 303 303 302 302 307 314 308 306 306 306 306 315 310 310 312 312 309 310 313 312 314 315 314 314 315 316 315 316 317 320 320 319 321 322 320 318 318 321 323 325 323 321
303 304 304 304 303 302 302 307 311 309 307 308 307 307 307 311 315 313 313 312 310 310 315 314 314 315 315 315 315 316 316 315 320 321 322 320 319 318 318 316 317 318 323 324 323
302 304 304 303 303 302 302 304 308 308 307 308 306 307 308 307 311 311 315 315 314 311 312 314 317 316 315 315 315 316 316 319 319 323 325 321 323 320 320 320 316 313 320 324 325
302 304 304 304 303 302 303 302 304 305 305 307 309 308 308 308 308 309 310 315 315 316 311 312 314 314 315 316 316 315 316 319 319 318 319 321 319 317 320 318 318 318 317 320 324
302 304 304 304 303 303 302 302 303 304 305 306 306 308 308 307 308 309 310 313 317 318 317 313 313 315 315 314 316 315 316 317 319 322 319 318 320 316 316 316 317 317 319 319 319
302 301 303 304 304 303 303 302 302 305 305 306 307 306 306 306 306 308 310 312 312 318 318 318 316 314 316 314 314 313 315 316 318 318 320 321 320 317 316 317 318 317 320 320 320
300 302 301 303 303 303 303 304 303 302 303 304 305 304 306 306 307 307 308 309 308 318 318 317 319 317 317 316 315 318 316 316 317 317 317 320 319 318 319 318 317 318 319 321 320
300 300 302 303 303 303 303 304 304 303 303 304 304 304 304 305 305 307 308 309 312 318 319 318 320 319 319 319 318 315 316 317 317 317 318 317 318 317 317 316 316 321 321 319 319
299 301 303 303 303 303 304 304 303 304 304 304 304 305 305 304 305 305 305 306 309 314 317 317 319 318 318 318 317 316 316 316 316 317 316 317 316 316 317 318 317 319 320 320 320
300 301 303 304 304 303 303 303 304 304 304 303 304 304 304 304 305 305 306 307 307 310 314 317 315 314 317 316 317 316 316 316 316 317 318 318 316 316 317 317 317 320 321 320 320

GFSSW_850_thetae_054.txt.gz
Theta_e
306 304 300 300 300 300 299 299 299 299 299 299 300 301 301 302 304 306 309 311 313 316 316 314 311 310 310 312 315 314 309 310 312 311 313 322 323 324 325 327 328 329 328 328 328
306 307 306 302 300 300 301 300 299 299 299 299 299 300 300 301 303 306 311 311 316 314 316 316 312 313 313 315 315 310 308 310 310 310 312 319 322 322 322 322 326 326 326 327 329
304 306 307 307 304 302 300 300 300 300 299 299 299 299 300 301 303 310 319 315 316 313 318 315 313 315 314 314 313 310 311 310 312 314 314 314 321 322 321 323 324 326 326 327 328
303 305 306 306 305 303 303 302 300 300 300 299 299 299 300 301 306 318 316 317 318 318 317 315 312 315 310 310 312 312 311 312 313 315 316 320 324 324 323 325 325 325 324 326 326
302 302 302 301 302 302 303 304 303 300 300 300 299 299 299 304 304 310 317 316 316 316 316 316 312 314 310 310 311 310 312 314 316 317 317 322 325 326 326 326 326 324 324 326 326
301 301 301 301 300 300 301 302 305 302 300 300 300 299 300 308 304 305 305 310 309 312 317 316 312 313 312 312 312 315 315 315 315 316 319 322 325 327 324 327 327 324 324 326 325
302 301 302 301 301 299 299 301 303 306 300 299 301 300 301 301 303 303 307 312 312 313 317 315 313 314 314 314 316 316 315 312 313 314 322 324 321 324 323 325 327 326 326 328 325
302 301 302 302 299 298 299 299 301 302 301 300 300 301 304 302 303 303 304 310 316 316 317 315 313 311 314 315 314 314 312 314 314 317 318 321 318 315 321 325 327 326 325 324 323
303 302 303 303 303 300 299 298 299 301 301 301 300 302 304 303 305 310 310 305 317 317 315 316 314 314 314 313 313 310 312 312 313 313 318 319 319 318 325 327 327 326 324 321 321
303 303 303 304 304 304 303 300 302 310 305 301 307 307 302 302 309 315 315 316 310 313 313 315 315 310 309 311 314 313 313 312 313 315 319 320 319 317 323 327 327 327 326 322 321
302 303 303 304 304 304 304 300 303 306 306 309 309 304 306 310 314 315 316 315 312 314 313 314 312 314 312 312 311 311 313 314 311 312 314 313 313 314 318 324 324 326 326 322 321
302 303 304 304 304 304 303 305 305 304 306 305 305 307 309 313 312 309 310 314 312 312 313 312 314 313 313 312 313 313 313 312 311 312 313 314 317 316 316 319 322 323 325 323 321
301 303 303 304 303 303 302 303 306 303 307 308 307 305 305 308 309 307 312 313 312 312 314 315 314 313 314 313 313 312 312 313 313 312 314 318 317 317 318 319 320 321 322 322 322
301 302 303 303 302 303 305 306 304 303 309 307 310 308 306 306 311 306 309 313 312 312 312 314 314 313 313 314 313 314 312 313 314 314 316 317 319 314 315 318 319 320 321 322 322
300 302 303 303 303 303 303 303 302 308 302 303 309 307 307 307 307 309 308 312 311 313 314 315 314 314 314 314 313 314 313 314 314 314 315 315 314 314 319 321 319 318 321 322 323
299 302 303 303 303 303 302 302 304 313 312 306 308 310 311 310 309 310 311 311 313 313 314 314 315 313 315 314 313 314 315 315 315 314 316 315 315 314 314 318 318 319 321 322 322
299 301 303 303 303 303 302 302 310 311 307 304 305 308 310 310 309 309 309 309 309 312 312 313 314 314 314 315 314 314 314 316 317 319 319 316 316 316 316 315 317 317 320 322 322
299 301 302 304 304 303 302 304 308 309 308 307 306 306 308 309 309 309 307 306 308 312 312 313 313 314 313 315 315 314 314 316 320 319 317 320 322 319 317 317 318 318 320 322 322
299 301 302 303 304 303 302 303 306 308 307 307 306 306 308 308 311 312 309 307 308 312 314 314 314 313 313 314 315 315 315 314 317 319 320 318 317 316 316 316 315 315 319 323 323
299 299 301 303 304 303 303 303 305 308 305 306 307 308 308 308 309 309 314 314 312 309 312 314 315 315 315 314 313 314 314 318 316 321 323 319 321 317 317 316 316 313 317 321 324
299 300 301 303 303 302 304 303 302 302 302 306 307 308 308 307 308 308 309 314 313 317 311 311 313 314 314 315 314 314 315 317 316 315 318 319 317 315 317 317 317 314 316 318 321
299 301 302 304 303 300 303 303 302 302 302 306 306 306 307 306 306 308 310 313 307 315 316 315 312 312 312 312 314 314 314 316 317 318 316 314 316 315 316 315 316 317 318 316 318
300 301 302 304 304 304 304 303 302 302 304 305 306 305 305 305 304 307 309 310 308 315 318 317 317 314 315 314 313 313 312 314 316 314 316 318 317 317 315 316 317 317 319 320 319
299 301 301 303 303 303 304 303 303 302 301 303 304 304 305 305 306 307 307 308 308 314 318 316 318 318 318 318 318 318 316 313 314 315 315 316 318 317 318 317 318 319 320 320 321
299 299 301 303 302 303 303 304 303 303 302 303 303 304 304 304 304 305 306 307 306 310 316 316 316 319 319 318 318 316 316 315 315 314 316 316 316 316 317 315 315 320 320 320 320
298 300 302 302 303 304 303 303 304 303 303 303 303 304 303 304 304 304 304 304 306 309 313 315 316 315 316 317 313 315 316 314 314 314 315 315 315 313 315 317 316 318 318 318 320
299 299 302 303 304 304 304 304 303 303 303 303 303 303 303 303 303 304 304 304 304 306 307 314 314 312 314 313 314 315 313 311 313 314 315 316 315 314 314 315 315 317 318 319 320

GFSSW_850_thetae_057.txt.gz
Theta_e
305 306 307 307 306 306 303 301 300 300 300 300 299 300 300 301 301 303 306 310 309 312 315 313 315 311 311 313 314 314 316 316 316 314 316 319 323 323 324 325 327 329 328 327 326
304 305 306 307 308 308 307 304 302 301 300 300 300 300 300 301 301 304 307 310 309 313 314 314 312 309 310 313 314 315 316 316 314 314 316 315 321 321 323 323 325 326 326 326 327
301 301 302 303 306 307 307 305 304 303 302 301 300 300 300 301 301 308 317 317 310 315 314 313 312 310 314 314 313 312 316 314 314 314 313 313 318 320 322 323 323 326 324 326 326
300 300 300 301 301 302 302 302 302 303 304 304 301 300 300 300 304 317 315 314 315 315 315 314 314 315 314 314 312 314 313 313 314 314 315 316 321 323 322 323 323 324 325 325 325
300 300 299 299 299 300 300 300 300 301 302 304 304 300 300 301 301 304 311 317 318 314 316 313 314 313 314 312 310 312 313 312 314 315 314 318 323 325 325 324 324 325 324 325 325
301 299 299 299 299 298 299 299 299 299 300 302 305 303 300 306 303 304 305 308 314 316 316 314 312 313 312 312 313 313 312 315 316 315 316 321 323 326 324 325 326 325 325 326 326
300 300 300 301 302 301 299 298 298 299 299 301 303 302 301 301 302 302 302 304 308 308 309 315 312 313 312 314 313 315 316 315 315 315 318 322 323 326 324 325 327 326 325 325 323
302 303 302 302 302 303 303 300 299 299 299 300 301 302 300 302 302 303 302 303 310 314 312 314 313 312 312 314 314 316 314 316 315 318 318 322 321 318 321 326 327 326 325 323 322
302 302 302 302 302 303 303 303 301 299 301 304 303 301 301 301 302 307 308 304 304 314 314 314 312 312 313 315 316 314 316 315 315 315 320 322 322 319 323 326 326 326 325 324 321
301 302 301 302 303 303 303 303 301 308 307 303 305 305 303 302 306 314 314 315 306 314 314 313 313 314 313 315 315 316 315 314 316 318 320 321 321 319 321 326 326 326 325 324 321
302 301 302 303 303 303 303 303 302 304 303 307 308 306 304 308 307 314 316 315 311 310 315 314 316 316 314 316 314 314 314 315 314 314 315 316 316 318 316 323 326 326 326 325 323
300 299 301 303 303 303 303 305 304 303 304 304 304 305 305 311 310 314 313 313 312 311 313 314 317 316 314 314 315 314 315 316 315 313 314 317 318 319 318 321 322 324 326 325 323
299 299 301 303 303 303 304 302 304 302 305 307 307 306 306 306 307 307 309 314 312 313 314 316 315 315 314 314 315 316 316 316 316 314 315 317 319 319 318 319 320 321 323 324 324
298 298 300 303 303 303 303 303 303 302 309 307 309 308 307 306 308 306 306 310 312 313 314 315 314 314 314 315 315 316 314 315 314 315 316 317 320 319 319 319 319 320 321 322 322
298 298 300 302 303 303 303 302 302 305 305 305 308 306 307 306 306 309 307 308 313 312 314 315 315 314 314 315 314 316 315 315 315 316 317 317 319 319 317 320 320 321 321 321 321
297 298 299 302 303 303 303 303 303 310 309 307 308 310 309 309 308 310 309 310 310 314 315 313 314 315 315 314 314 315 315 316 316 317 320 319 319 320 319 319 320 319 320 320 320
298 298 299 301 303 302 303 302 308 308 307 307 307 307 306 307 310 309 310 311 312 314 316 315 315 314 314 315 314 315 317 318 320 322 322 317 318 320 319 318 318 320 320 319 320
297 298 299 301 302 302 303 304 306 306 309 307 307 307 306 309 310 309 309 310 310 311 313 315 315 316 315 316 316 316 317 320 322 322 321 320 322 320 320 319 318 318 318 319 320
297 298 299 300 302 303 302 304 305 305 306 306 307 307 308 308 308 311 309 308 308 310 314 314 314 313 314 315 317 316 317 317 319 320 322 321 320 319 319 319 319 318 317 318 319
297 298 298 299 301 303 303 304 303 305 304 305 307 308 308 308 308 309 313 308 311 309 312 315 316 315 314 314 315 317 316 319 318 320 322 320 321 321 320 320 318 320 316 318 320
297 298 298 300 301 302 304 304 303 302 302 304 306 307 307 307 306 307 312 309 308 313 311 313 314 314 315 315 316 316 317 318 318 319 322 321 321 320 321 320 320 320 318 317 317
297 299 299 301 303 302 304 303 302 302 302 304 305 306 306 306 306 305 308 311 308 313 317 316 313 314 314 313 314 315 316 318 320 319 319 320 321 317 319 320 319 319 319 320 318
298 298 299 301 302 302 304 303 302 302 303 304 306 305 305 306 305 306 308 308 307 309 319 318 318 317 316 315 314 315 314 316 317 316 319 323 321 317 318 318 319 318 319 320 320
298 300 299 301 301 302 304 304 303 301 302 303 304 304 305 305 306 306 307 307 307 307 316 316 318 318 319 318 319 320 319 318 316 318 317 319 318 319 319 320 320 319 320 320 320
298 299 300 301 301 302 303 303 303 303 302 302 302 303 304 305 305 305 306 307 305 308 314 317 317 317 319 318 318 316 317 317 317 316 317 317 317 317 318 318 319 318 317 318 319
298 299 299 301 301 303 304 304 304 303 303 302 303 304 304 304 304 304 305 304 304 307 308 308 318 316 315 315 315 314 315 312 315 315 315 316 317 315 315 315 315 317 317 317 318
296 298 300 301 301 303 303 304 304 304 303 303 303 303 303 303 303 303 303 303 304 304 305 308 314 314 313 314 313 313 315 313 315 314 315 315 312 312 318 317 315 315 317 318 320

GFSSW_850_thetae_060.txt.gz
Theta_e
303 303 304 303 304 306 307 308 307 305 303 302 301 300 300 300 302 302 306 306 308 309 310 314 315 314 313 315 316 316 319 319 318 320 320 319 322 322 324 323 328 330 329 331 327
302 302 301 301 302 302 303 305 306 306 305 305 304 301 301 300 301 303 307 308 306 308 311 315 315 314 313 314 315 317 318 319 318 320 319 320 320 320 322 322 326 328 330 327 326
299 299 299 299 299 300 301 301 301 302 303 304 306 305 301 301 305 308 315 316 317 308 314 315 315 313 313 314 315 316 318 318 317 318 318 319 320 320 322 323 322 324 327 330 330
299 298 299 299 299 299 299 299 300 300 300 302 304 307 304 301 306 306 310 313 311 311 313 314 314 313 315 316 315 317 317 317 317 317 317 320 320 322 322 322 326 326 327 330 329
302 299 299 299 299 299 299 299 299 299 299 299 302 303 305 306 304 303 303 304 315 314 313 315 315 315 316 316 316 317 317 317 317 317 317 319 321 322 323 324 326 328 328 329 328
300 299 301 301 300 300 300 299 299 299 299 299 299 300 307 308 304 306 302 303 309 315 315 314 315 315 315 316 316 316 317 317 317 318 318 319 320 324 322 324 328 328 329 328 328
302 303 303 302 302 301 300 299 299 300 300 299 299 300 307 308 308 306 304 302 302 310 314 316 315 314 314 316 315 316 317 318 318 318 319 319 321 325 323 327 328 329 329 328 327
302 302 302 302 301 301 301 300 300 300 300 299 300 305 307 308 305 310 307 304 302 305 311 312 314 314 314 315 316 317 317 318 319 319 319 322 320 322 322 327 327 328 328 328 327
300 300 302 301 301 301 301 300 302 301 303 303 305 307 308 306 303 308 309 310 307 303 311 313 313 315 315 316 317 318 318 318 319 319 321 324 322 323 324 325 325 327 328 328 327
300 300 301 300 301 302 302 302 302 304 307 306 308 307 307 306 306 311 313 315 309 308 313 314 315 316 317 317 318 318 319 318 319 319 319 322 322 322 323 325 326 326 328 328 327
300 300 299 300 301 302 303 306 305 307 304 305 307 308 308 311 307 308 310 314 311 310 315 316 317 317 316 318 317 317 317 318 318 318 319 320 320 321 321 322 325 327 328 328 328
299 299 298 298 302 302 305 306 303 303 304 305 306 306 306 307 309 309 313 312 314 313 315 318 319 317 317 317 317 316 317 317 318 318 317 317 318 320 322 322 323 326 328 328 328
297 297 298 299 302 303 304 305 304 302 306 306 308 308 307 306 307 309 312 314 314 316 312 318 316 317 317 316 317 317 316 317 317 317 317 317 319 321 321 322 322 323 325 327 328
296 297 298 299 304 303 305 304 303 303 309 308 309 309 308 307 307 306 308 312 311 313 315 313 314 316 318 317 316 317 316 317 318 318 317 318 319 321 321 322 321 321 325 326 327
296 297 298 299 302 305 304 303 302 306 309 308 309 308 308 308 306 308 306 307 308 310 315 315 314 314 316 317 317 317 317 317 318 319 318 317 319 320 321 321 322 321 321 325 326
296 297 298 301 302 303 303 303 305 311 308 307 308 309 310 309 308 310 309 307 308 309 314 315 315 315 315 315 316 316 317 318 318 318 320 318 320 320 321 321 320 320 320 323 325
296 298 298 300 303 301 303 305 310 307 306 309 308 309 309 309 310 310 311 309 310 309 313 314 315 316 316 315 316 317 318 319 319 321 321 320 321 321 322 322 321 321 321 323 324
296 297 298 300 302 301 302 307 308 305 307 309 308 308 308 310 311 311 311 311 311 310 311 312 315 315 317 317 317 317 318 320 321 322 322 321 322 322 322 322 322 322 322 323 324
296 298 298 301 299 302 303 307 305 305 307 308 308 308 309 309 309 311 312 312 310 311 311 313 314 315 316 317 317 318 319 318 319 322 324 323 322 322 321 321 322 321 321 322 322
296 299 299 300 299 302 304 303 305 306 307 307 308 309 308 309 309 312 312 311 312 312 312 314 314 314 316 317 318 319 319 319 320 321 323 322 322 322 321 322 321 323 323 321 323
296 299 299 300 299 302 303 303 304 303 305 306 308 308 308 308 308 308 314 311 309 310 312 312 316 317 316 318 319 319 320 320 320 320 321 322 322 322 322 323 323 323 323 323 321
298 300 299 299 302 302 302 303 303 304 303 305 306 307 308 308 308 308 308 311 308 311 314 311 314 316 317 316 316 318 318 319 320 321 321 322 322 321 321 322 322 323 322 323 322
298 298 299 301 302 302 303 303 304 304 304 304 305 307 307 307 308 307 308 308 307 309 316 318 314 313 312 314 315 317 317 317 319 320 322 324 321 320 320 320 321 321 322 322 322
297 300 299 300 301 303 303 304 304 304 304 304 305 306 306 307 307 308 308 307 306 309 311 317 319 314 315 315 318 319 318 319 318 320 319 319 319 319 319 319 320 320 320 321 321
296 299 300 302 301 301 302 304 304 304 304 304 304 305 305 306 307 307 307 307 307 307 312 315 318 318 318 317 318 318 319 318 320 319 320 319 318 318 319 318 319 319 319 319 320
296 297 299 300 301 301 301 302 304 304 304 304 305 305 305 306 307 307 306 307 307 307 308 310 314 314 314 315 316 315 315 316 316 319 319 319 319 318 316 317 319 319 320 319 318
295 296 297 299 301 302 303 303 304 304 304 303 304 305 306 306 305 305 305 306 306 307 308 309 314 313 312 314 314 313 314 315 318 318 319 320 319 315 314 318 320 320 319 318 318

GFSSW_850_thetae_063.txt.gz
Theta_e
303 303 302 301 301 302 302 302 303 305 305 306 305 305 304 302 302 303 309 310 311 310 308 316 319 318 316 316 317 318 320 321 321 322 322 321 321 321 322 322 322 326 327 330 334
301 300 299 299 299 299 299 299 301 302 302 301 304 306 307 307 304 306 310 309 310 306 308 316 318 318 316 317 317 319 320 320 322 321 321 321 321 321 322 322 322 325 327 331 331
300 299 299 298 298 298 299 299 299 300 300 301 302 304 307 307 311 312 314 305 311 316 307 315 318 318 317 317 317 318 319 321 321 319 320 321 321 321 321 322 322 324 324 327 332
302 300 298 298 297 298 298 298 298 299 299 299 300 301 304 306 313 309 305 304 305 314 313 316 317 318 319 319 317 319 319 319 319 319 318 320 320 321 322 322 322 325 326 327 331
300 298 299 299 298 298 298 298 298 298 299 300 299 299 300 310 312 312 306 305 318 315 316 316 317 318 319 318 317 319 319 318 318 318 318 319 320 321 321 321 323 326 328 328 331
302 302 302 301 299 298 299 299 299 299 299 299 300 299 306 309 310 311 306 304 309 317 317 316 317 317 318 318 319 318 318 319 318 318 319 319 320 320 321 322 324 328 328 329 330
303 302 301 300 301 300 299 299 298 299 299 300 300 300 306 306 309 309 306 306 305 305 312 317 317 317 318 319 317 318 318 319 319 319 319 319 320 321 320 322 325 328 328 330 330
302 300 299 300 301 299 299 299 299 300 300 301 301 307 308 306 308 310 310 308 308 307 307 314 316 318 317 316 318 318 318 319 320 320 320 320 321 322 321 325 325 327 329 330 331
300 300 299 299 299 299 299 298 301 301 302 302 308 310 309 308 308 308 308 309 311 309 308 309 314 316 318 318 319 320 320 320 320 321 321 321 322 322 324 324 325 326 328 329 330
302 301 299 299 297 298 299 302 306 306 309 310 310 311 310 308 308 312 313 312 313 313 310 309 314 317 317 318 318 320 321 321 321 322 321 321 323 322 324 324 325 325 326 328 329
300 300 299 298 297 300 304 308 307 311 308 307 308 311 308 311 310 311 313 315 313 312 313 311 315 319 318 318 318 319 321 321 322 321 320 321 321 323 323 323 324 325 326 328 329
299 298 297 296 297 301 307 307 306 305 307 306 307 307 307 307 307 310 314 313 314 316 314 313 315 316 317 317 318 319 320 320 321 320 319 320 319 321 322 322 323 324 325 327 329
299 297 297 297 299 305 306 307 306 306 307 308 309 310 310 308 307 309 311 313 315 316 317 314 316 317 316 318 318 320 320 320 320 320 320 320 319 319 321 322 322 322 323 325 327
298 297 297 297 304 306 306 306 307 306 311 311 311 311 311 308 308 307 310 314 315 317 317 317 315 317 317 318 319 320 320 319 319 320 321 322 321 321 321 322 323 323 322 323 325
297 296 297 297 302 305 305 306 307 307 315 309 312 310 310 310 309 310 306 311 314 314 313 318 316 314 317 318 319 320 319 319 319 320 321 322 320 320 322 323 323 323 322 323 325
296 296 298 301 304 305 305 306 308 314 313 309 309 311 311 311 311 309 309 308 310 312 312 312 313 316 316 315 317 318 319 319 319 321 324 323 322 322 323 323 323 321 322 321 325
296 297 297 301 303 305 305 307 313 311 308 310 310 310 310 311 313 311 312 311 309 309 313 314 313 314 317 315 316 317 319 321 322 324 324 323 323 323 323 323 323 323 321 322 323
296 297 298 300 301 304 306 309 310 307 307 310 310 309 309 311 314 313 312 312 310 312 314 314 314 315 316 317 316 317 319 321 324 326 324 323 323 324 324 323 322 322 322 322 325
297 297 299 301 302 303 306 309 308 307 308 309 307 306 308 311 312 313 314 314 312 311 313 314 313 314 315 317 317 318 320 319 320 325 327 324 323 324 324 322 323 322 322 322 322
297 299 300 301 302 304 306 307 307 307 308 307 306 307 309 310 312 313 315 314 313 313 312 314 314 314 316 316 317 317 319 320 321 323 325 324 326 324 322 322 323 323 324 324 323
297 299 301 302 303 303 307 306 305 305 307 307 307 308 309 310 310 312 316 314 312 312 315 313 315 315 316 317 318 318 320 321 320 321 323 325 325 324 323 324 324 324 323 324 324
297 301 302 302 303 304 305 304 303 305 305 306 307 308 309 310 310 310 311 312 310 310 319 314 314 315 319 316 318 319 320 321 323 325 323 325 324 322 322 321 322 323 323 323 323
297 299 300 302 304 305 304 304 303 305 305 305 306 307 308 308 309 309 309 310 309 310 314 316 313 316 317 319 317 318 320 321 321 322 325 328 324 322 321 320 320 321 322 323 323
298 302 299 301 302 304 304 304 304 303 305 305 306 306 307 308 308 309 310 309 308 308 308 312 319 315 314 316 316 317 318 319 319 322 323 324 324 322 321 319 319 320 321 321 322
296 300 301 303 303 303 304 305 304 304 304 304 305 306 307 307 307 308 309 309 309 308 309 312 319 320 317 318 319 317 317 317 319 319 321 321 321 320 320 320 319 319 320 321 321
297 298 299 300 302 303 303 304 304 306 305 305 306 306 306 306 307 308 308 309 309 309 309 311 314 317 318 317 318 319 319 319 319 319 320 320 320 320 320 317 318 320 320 321 321
296 297 298 300 302 304 304 303 303 304 305 305 305 306 306 306 307 307 307 307 309 310 309 310 311 315 317 314 314 317 317 317 317 318 319 319 320 319 317 317 318 319 320 321 320

GFSSW_850_thetae_066.txt.gz
Theta_e
303 301 300 300 299 299 299 299 299 300 302 303 304 305 306 307 307 307 312 310 310 311 310 310 317 318 320 319 318 318 320 321 321 322 322 323 323 322 321 322 322 322 325 331 335
300 300 299 298 298 298 298 298 298 299 299 300 301 302 303 304 308 309 311 312 310 309 309 310 315 319 319 318 318 319 321 320 321 322 322 322 322 321 322 322 323 322 324 329 330
300 299 299 298 298 297 298 298 298 298 299 299 300 300 301 303 309 314 312 311 305 306 314 311 314 318 320 319 318 319 320 320 320 321 321 320 321 321 321 321 321 324 325 328 333
301 300 299 300 300 299 298 298 298 298 298 299 299 299 300 302 314 312 311 311 310 307 315 313 313 317 320 320 318 318 318 319 319 320 320 320 320 320 321 322 322 322 325 325 330
301 303 303 302 301 300 299 298 298 298 298 299 299 299 300 306 309 310 311 311 309 319 316 315 315 317 318 319 319 319 318 318 319 319 319 319 319 320 320 321 321 322 326 327 328
304 304 303 302 299 299 299 298 298 298 298 299 299 300 305 308 306 311 312 310 308 312 319 317 316 317 317 318 319 319 318 318 319 319 319 319 319 319 319 320 321 324 327 328 329
302 303 302 300 299 298 298 297 297 298 298 299 301 301 308 306 306 307 309 308 307 307 308 316 318 317 317 318 318 318 318 319 319 319 319 319 319 321 320 320 321 324 327 328 331
302 301 300 299 298 297 296 296 297 298 300 301 302 307 309 307 308 308 309 310 311 309 308 308 313 316 318 319 319 319 318 319 319 319 320 319 319 320 321 321 321 324 326 329 331
302 302 301 300 298 296 296 297 300 305 305 306 305 311 312 310 310 309 309 310 311 310 309 309 310 314 316 319 319 318 318 319 318 320 321 320 320 321 321 323 324 325 326 328 330
300 300 300 299 296 295 298 305 307 308 310 311 312 312 313 311 311 311 314 312 310 312 312 311 311 312 317 318 320 318 318 319 320 321 321 321 321 321 322 324 325 324 324 327 329
300 300 300 296 295 296 307 309 308 311 312 311 311 311 311 310 308 309 312 315 314 314 316 313 313 311 317 318 319 318 319 319 320 322 322 322 321 321 323 323 325 325 325 325 328
298 299 299 296 295 299 308 309 307 307 307 307 308 308 308 309 309 307 312 314 315 315 315 315 315 314 315 317 317 317 319 320 321 322 321 321 321 321 322 323 323 324 325 326 327
298 299 298 295 296 307 307 307 308 308 307 309 310 310 311 310 310 308 310 314 315 317 316 317 315 313 315 317 318 319 319 320 320 321 321 320 320 321 321 321 322 322 323 324 326
298 298 297 296 302 306 307 307 307 307 310 315 312 313 312 309 310 309 308 312 315 317 317 318 318 315 316 319 317 318 318 318 320 321 321 321 322 323 323 321 322 322 323 323 323
297 297 296 296 297 303 306 306 307 307 315 311 312 312 312 311 311 310 308 310 315 317 317 319 318 315 317 318 318 318 320 320 321 320 321 320 322 322 322 321 322 323 323 323 323
298 297 297 298 303 304 305 306 308 312 316 310 311 313 313 313 313 311 309 309 313 315 315 315 313 315 316 316 318 318 319 320 321 321 322 321 322 323 324 323 323 324 323 322 323
297 297 297 299 301 303 304 306 312 312 310 310 311 311 310 311 312 312 311 308 311 313 314 313 314 314 314 315 316 316 319 321 323 324 324 321 322 325 324 323 323 323 322 322 323
297 296 296 299 300 301 304 308 311 309 312 310 310 310 307 309 313 314 313 312 309 310 311 316 318 316 315 316 318 316 317 322 328 328 323 322 323 324 324 324 323 322 322 322 323
297 297 299 299 300 302 303 309 307 308 309 309 309 307 307 310 311 314 315 315 314 311 311 314 316 315 316 316 318 317 318 318 321 322 325 327 323 324 324 323 322 323 322 322 324
297 298 298 300 301 302 304 306 308 308 308 309 307 307 309 310 311 312 315 315 315 313 312 312 313 314 314 315 316 318 317 320 320 325 327 327 325 325 325 324 323 323 324 324 324
297 298 299 301 302 302 304 305 306 307 307 308 308 307 309 309 310 311 315 316 314 312 312 314 314 315 316 315 318 318 319 319 320 321 326 328 327 327 325 325 325 325 323 324 324
297 300 300 302 303 303 304 305 305 306 306 306 307 308 309 309 310 310 311 313 311 311 315 316 315 315 315 316 317 317 319 319 323 323 323 325 327 324 323 322 323 324 324 324 324
298 298 298 301 304 305 304 304 305 305 305 306 306 307 308 308 308 309 310 311 309 310 311 310 315 315 314 317 317 319 318 319 321 323 327 329 324 323 322 321 320 322 322 322 322
297 300 298 301 303 304 304 305 304 304 304 305 306 306 307 307 308 308 309 311 309 310 308 309 314 318 316 315 319 319 318 319 322 324 325 326 326 323 322 322 321 320 320 321 321
296 299 300 303 303 303 304 305 305 304 305 304 305 306 307 307 307 308 308 308 309 309 309 311 316 317 317 319 317 316 317 319 322 323 324 324 323 323 323 321 319 320 321 322 322
296 299 298 299 301 303 303 304 304 306 305 305 305 305 306 306 306 307 307 308 309 312 311 310 316 314 317 318 318 318 318 318 320 320 318 319 321 320 321 320 320 320 322 321 321
296 296 299 300 301 302 305 303 303 304 304 306 306 306 306 306 307 308 308 308 309 310 311 311 311 313 317 317 317 319 318 319 319 320 320 322 321 319 320 318 318 321 320 319 319

GFSSW_850_thetae_069.txt.gz
Theta_e
301 299 300 299 299 299 299 299 299 299 299 300 301 301 302 304 307 307 308 308 309 310 310 309 309 314 315 318 319 319 316 315 315 317 318 320 321 322 322 322 323 322 322 326 332
301 300 300 299 298 298 298 298 298 298 298 298 299 299 301 301 304 309 313 311 311 309 306 308 309 311 318 319 320 316 314 315 316 317 318 318 319 322 320 321 322 322 324 331 333
300 299 298 298 297 298 298 298 298 298 298 298 298 299 299 300 302 312 312 307 310 312 309 309 313 310 317 318 318 317 316 316 317 318 319 317 317 319 320 320 320 321 331 330 329
299 300 302 301 299 298 297 297 298 298 298 298 298 299 299 299 307 313 311 310 311 311 312 315 313 310 312 316 318 316 316 317 317 318 317 316 319 317 319 321 321 321 325 329 331
303 303 303 302 301 298 297 297 297 297 297 298 298 299 300 303 305 304 309 311 312 311 319 317 314 311 312 315 318 317 317 317 317 317 317 318 316 317 318 319 321 321 324 326 329
301 301 302 301 299 297 296 296 297 297 297 298 299 299 301 306 304 308 307 308 310 311 312 313 317 313 315 316 315 317 318 318 318 318 317 317 316 317 318 319 319 320 325 325 326
300 303 303 301 300 297 296 296 296 297 297 301 302 302 303 301 303 304 307 308 308 307 307 308 309 311 316 317 317 317 317 317 317 317 316 317 316 317 319 319 319 319 325 327 327
300 301 301 300 298 296 296 296 297 298 303 305 304 305 306 306 309 309 308 308 310 309 309 308 308 309 313 317 318 318 316 316 317 317 317 316 317 316 319 319 319 319 324 327 328
301 301 300 299 296 295 295 301 304 304 306 308 307 306 311 311 310 310 310 309 310 311 311 310 309 310 313 316 317 317 316 316 317 317 317 315 317 317 319 318 318 319 325 327 328
300 299 299 298 295 295 299 308 307 308 309 311 311 312 312 311 310 309 310 314 311 310 311 311 310 309 312 314 317 318 317 315 316 316 317 316 316 317 319 318 322 323 325 326 329
299 298 298 297 295 296 307 308 307 310 308 312 312 313 311 312 309 308 309 314 314 311 312 313 311 310 311 313 316 317 318 317 316 317 318 319 319 316 319 319 320 323 324 324 329
298 298 297 298 294 306 307 308 307 307 307 306 305 307 308 309 308 309 308 309 315 314 313 315 313 313 314 315 313 317 317 316 317 318 319 319 319 316 317 317 319 322 323 324 328
298 298 298 296 295 306 306 307 307 307 305 306 308 308 309 310 309 310 309 311 313 314 315 316 316 315 315 315 315 316 317 317 318 319 318 318 318 318 319 318 319 320 324 324 327
298 298 297 295 299 304 306 307 306 307 308 309 310 310 311 310 309 310 308 310 313 315 317 318 317 316 314 314 314 318 318 318 318 318 318 319 320 317 318 319 319 318 320 324 326
297 298 297 296 298 301 304 305 306 306 309 314 312 312 312 310 311 309 308 309 311 316 316 317 318 318 318 316 315 318 319 318 319 320 320 320 317 317 318 320 319 317 318 323 325
297 297 297 295 300 303 304 304 306 311 311 311 312 311 312 311 312 310 308 309 310 315 316 316 315 316 316 315 316 316 319 320 320 320 322 321 318 317 318 320 321 319 319 322 322
297 297 297 296 296 301 302 304 307 309 310 310 311 312 312 311 312 311 308 307 310 313 314 314 315 314 315 316 316 317 319 324 324 321 321 320 320 319 319 321 322 320 319 322 322
297 298 297 296 295 300 301 306 308 309 310 311 310 310 309 309 309 312 308 306 306 308 309 314 316 314 314 314 315 316 319 323 327 327 324 322 321 320 320 320 322 321 321 321 323
296 298 297 296 299 300 302 304 306 305 308 310 309 308 308 308 310 313 312 311 308 307 309 312 315 314 315 315 316 318 318 317 320 320 323 324 322 320 320 321 320 320 321 323 324
296 296 297 297 300 300 303 303 304 305 307 308 308 308 307 310 311 310 314 315 314 311 309 311 313 313 316 315 316 318 317 319 319 325 327 325 326 322 323 322 321 320 319 322 325
296 297 297 298 299 301 300 302 302 303 304 307 308 308 309 309 309 310 316 315 312 312 311 312 314 313 314 316 316 317 319 319 320 321 325 328 328 323 320 321 322 321 321 322 322
296 298 299 300 301 302 300 301 302 303 304 306 306 306 307 308 309 310 310 315 310 311 312 311 313 316 314 315 316 317 318 319 323 325 322 320 323 321 319 319 319 319 320 321 322
296 297 297 299 302 301 302 301 302 302 303 306 306 307 306 306 308 309 309 311 309 310 310 310 313 317 315 315 316 316 317 318 319 320 325 327 323 322 321 320 319 319 320 322 321
296 298 299 299 299 301 303 302 304 303 304 304 304 305 306 306 306 307 308 310 309 309 309 310 312 315 317 318 318 317 319 319 320 323 324 325 326 324 323 323 318 320 321 321 321
296 295 298 294 297 299 301 303 305 305 304 304 304 304 304 306 307 306 308 308 309 310 310 312 313 314 315 313 316 318 317 318 320 320 325 324 324 323 323 322 320 320 320 320 321
295 295 297 298 299 299 299 302 303 303 304 305 305 305 305 305 305 306 309 309 311 310 311 311 313 313 313 316 316 319 319 317 319 321 322 322 322 320 322 320 320 319 318 318 319
294 294 296 297 299 299 301 302 303 303 303 303 305 306 307 307 307 307 308 308 309 309 310 311 311 312 314 315 315 317 318 318 319 320 320 322 322 321 320 320 318 317 317 317 317

GFSSW_850_thetae_072.txt.gz
Theta_e
301 299 299 299 298 298 298 298 298 298 298 299 299 299 300 300 303 304 305 312 309 308 310 310 309 309 315 315 315 318 313 312 313 315 316 317 315 318 321 324 324 324 324 323 328
299 299 298 298 298 297 297 297 298 298 298 298 298 299 299 299 300 302 311 311 309 309 309 306 306 309 313 316 318 315 314 315 314 314 315 316 315 316 317 320 322 321 322 324 329
301 300 299 300 301 299 297 297 297 297 298 297 298 298 299 298 299 307 310 310 310 310 311 311 311 307 310 315 317 315 318 315 315 316 316 315 315 317 316 317 320 322 326 327 331
301 302 302 301 301 300 298 297 297 297 297 297 297 297 298 299 300 313 311 309 309 310 311 315 315 313 308 312 317 315 316 316 317 316 316 315 316 315 316 317 320 320 323 330 331
301 300 300 299 297 297 297 296 296 296 297 296 297 298 301 302 302 303 309 307 310 310 310 316 317 312 309 310 313 315 316 318 318 317 316 316 315 315 316 317 319 321 328 328 328
300 299 300 300 300 298 297 296 296 296 296 297 300 301 304 304 302 305 306 308 308 310 309 308 315 312 311 312 311 315 316 317 317 316 316 315 315 315 316 317 318 318 326 327 328
300 301 300 299 298 296 296 296 297 297 300 301 303 303 306 301 304 302 304 306 308 308 308 307 307 308 309 315 316 317 314 314 314 315 315 316 314 314 316 317 318 318 322 327 328
301 301 300 299 297 296 296 296 298 303 307 303 306 306 306 303 310 309 308 305 307 309 309 307 310 308 309 313 316 317 316 316 315 315 316 314 316 315 318 317 318 318 318 322 326
301 300 299 297 296 295 296 302 301 307 308 305 307 307 306 309 310 310 310 311 312 310 310 309 310 309 310 313 314 315 316 315 315 315 315 313 315 315 317 317 316 318 318 320 326
300 300 298 296 295 295 303 304 305 309 309 309 310 310 308 310 310 309 309 309 313 310 311 310 309 307 307 312 316 317 316 315 314 315 316 317 316 317 317 316 316 316 317 320 327
299 299 299 297 295 302 306 306 306 307 307 308 311 310 311 312 312 312 309 309 314 311 310 311 309 308 308 309 313 314 315 316 315 316 316 316 316 317 317 317 314 316 320 320 326
299 298 298 297 294 306 306 306 307 306 306 306 305 306 308 308 308 308 309 308 310 312 310 313 312 310 311 313 314 314 315 315 316 316 316 315 316 316 316 316 316 318 320 322 327
299 298 298 297 294 304 304 305 307 306 305 305 305 305 305 304 306 306 309 308 312 313 312 313 315 313 314 314 315 314 315 316 318 317 315 315 316 316 317 316 317 318 322 322 325
298 297 297 296 297 302 304 305 305 305 306 307 309 309 308 309 308 308 309 309 311 313 315 316 315 316 314 315 315 315 315 318 319 319 317 317 319 317 318 316 316 316 318 320 323
297 297 297 297 296 302 303 304 304 306 305 310 310 310 310 309 309 309 309 308 310 316 316 315 317 317 318 315 313 315 316 318 319 319 319 319 318 318 317 317 317 316 317 318 322
296 296 297 297 296 300 301 302 305 308 306 310 312 311 311 310 311 308 308 308 309 315 315 314 315 315 316 317 316 314 318 319 319 319 320 319 320 319 317 317 318 318 320 317 322
296 296 297 297 297 296 301 303 304 308 306 310 311 311 312 312 311 308 306 306 309 312 313 314 315 313 315 316 315 316 319 323 323 323 320 319 320 320 318 318 318 318 319 318 320
296 296 297 297 296 296 300 303 305 305 307 308 308 310 312 309 310 309 306 306 305 309 307 309 312 314 314 315 317 317 319 323 324 324 323 322 320 319 319 319 319 320 320 317 325
296 295 295 295 297 298 300 301 303 304 305 306 307 308 308 308 308 310 307 306 305 306 308 309 313 312 313 314 314 316 319 318 321 320 322 322 321 320 320 320 319 318 319 318 324
295 295 295 297 298 299 301 299 301 302 303 303 306 309 308 308 308 310 312 314 311 307 307 309 311 311 315 315 316 317 317 319 320 323 325 323 323 326 322 322 320 320 319 320 325
294 295 297 297 298 299 299 299 301 301 301 304 305 306 307 307 307 309 315 314 311 311 311 312 312 312 314 316 317 319 320 319 319 321 326 327 329 322 321 319 319 319 320 321 322
295 294 298 298 298 299 299 299 299 300 301 302 304 306 306 306 306 308 312 314 310 310 312 310 312 315 314 315 315 316 318 318 324 322 320 321 324 320 322 322 319 320 320 321 323
295 295 296 296 299 298 299 301 301 301 301 301 304 305 304 305 306 308 311 310 309 310 309 309 313 315 314 315 315 316 317 318 318 319 324 325 323 321 322 322 320 320 321 321 322
295 293 296 298 298 298 300 301 302 302 302 301 303 304 304 305 305 306 308 311 309 309 309 309 310 314 316 317 316 320 317 317 319 322 320 322 324 323 322 323 321 319 320 320 321
295 294 295 292 299 298 298 299 300 300 302 304 303 304 304 304 304 305 308 308 310 310 310 309 310 313 314 313 313 317 318 318 320 319 322 321 323 323 323 323 321 318 318 320 318
295 294 296 296 297 297 298 298 297 300 303 304 304 306 306 305 305 306 308 308 310 309 310 309 310 311 312 314 314 314 316 318 317 319 319 320 321 320 322 321 319 318 317 317 315
294 294 295 295 295 294 298 299 299 299 302 302 303 304 305 306 306 307 307 307 308 308 309 310 310 309 311 311 312 316 316 318 318 318 319 322 321 320 321 320 318 315 315 313 311

GFSSW_850_thetae_075.txt.gz
Theta_e
299 298 298 298 297 297 297 297 297 298 298 298 298 298 298 299 300 301 302 304 311 309 307 309 310 310 310 314 315 316 311 309 311 313 313 315 314 316 317 317 317 322 325 325 328
299 299 299 298 298 298 298 298 297 297 297 297 297 298 298 298 300 303 305 310 309 309 309 309 306 307 310 315 315 313 311 311 311 313 313 314 314 315 315 315 316 317 323 323 326
300 299 299 299 299 298 297 297 297 297 297 297 297 297 298 297 299 307 309 309 309 309 310 309 309 306 308 312 315 314 314 312 314 316 316 313 314 315 315 315 316 316 318 324 326
300 300 299 298 298 298 297 297 297 297 297 297 296 297 297 299 300 310 309 309 309 310 310 311 316 312 307 308 312 314 313 315 316 316 315 313 315 314 314 315 317 317 317 325 327
300 299 298 298 297 297 297 297 297 296 296 296 296 297 300 302 301 302 308 309 308 310 310 311 317 313 308 307 309 313 314 316 316 316 316 316 313 314 315 317 317 316 316 328 326
300 301 301 300 299 297 296 297 296 296 296 299 302 301 304 304 302 304 305 304 306 310 310 310 309 315 311 309 308 311 312 313 315 315 316 315 315 314 316 317 316 316 317 328 327
301 302 301 300 298 296 296 296 296 297 304 304 306 304 304 302 302 302 303 305 307 308 309 308 307 308 308 309 312 314 314 313 313 313 313 315 313 313 316 317 317 316 316 327 327
300 301 300 299 297 296 296 296 297 302 305 307 307 304 306 303 303 308 309 305 305 307 308 308 308 308 308 309 313 314 314 315 315 313 313 314 315 314 317 317 316 316 316 323 327
300 299 299 298 296 295 295 299 300 304 305 307 305 306 307 307 307 309 309 310 311 308 309 309 309 310 308 308 311 313 315 314 315 313 313 311 314 313 316 316 314 315 315 318 326
300 299 299 297 296 295 304 301 304 309 309 308 308 309 306 308 310 309 309 308 311 311 310 310 309 306 305 309 312 314 314 314 314 313 314 313 312 313 316 316 315 316 317 314 321
300 300 299 297 296 298 305 303 305 306 306 306 309 309 309 311 311 310 309 308 309 311 308 310 307 307 306 307 311 312 313 313 312 313 315 314 314 313 313 314 313 316 317 315 316
299 299 298 297 295 299 305 306 302 302 305 305 304 305 305 308 308 308 309 307 308 311 308 310 310 308 308 308 310 312 313 313 314 314 317 313 313 314 314 313 315 315 316 315 316
298 297 297 296 295 301 303 304 304 305 304 304 304 305 306 305 306 306 305 308 309 310 310 309 311 313 311 311 313 313 313 314 315 316 316 315 316 315 314 315 317 318 315 316 318
297 297 297 296 298 297 303 303 304 305 304 305 307 307 306 305 306 304 305 308 308 312 312 312 312 314 313 314 314 315 313 314 318 319 318 314 318 316 315 315 315 315 315 317 319
296 296 296 296 296 296 299 302 303 306 305 306 311 309 308 307 309 308 308 308 310 315 314 314 315 316 316 315 314 315 314 317 318 319 318 318 317 316 316 317 317 315 317 317 320
296 296 295 296 296 296 298 301 303 304 302 306 311 310 310 309 309 307 307 308 308 313 314 313 314 314 314 315 314 314 317 318 317 319 323 318 317 317 316 317 317 316 317 318 318
296 296 296 296 296 296 296 302 302 306 304 308 308 307 310 311 310 307 306 306 308 312 312 313 314 312 314 315 315 316 318 321 322 322 322 317 318 317 316 317 318 318 318 319 318
295 296 295 294 295 296 299 301 303 302 305 305 305 305 309 311 311 308 306 305 305 309 307 309 307 313 313 313 316 316 317 321 322 322 319 319 320 318 318 318 319 319 320 319 318
295 296 294 295 295 296 300 298 300 302 304 302 304 309 308 307 306 307 306 306 305 305 308 307 309 312 313 313 314 318 318 316 321 320 320 319 320 319 320 319 318 319 317 318 317
295 295 296 297 296 298 298 298 299 301 301 301 304 307 307 306 306 307 307 310 308 305 306 307 310 309 313 313 314 316 316 319 321 322 323 321 322 324 322 322 319 319 319 319 321
294 294 297 297 297 298 298 297 299 300 299 301 303 305 306 306 306 307 311 312 310 310 308 311 309 310 315 316 317 318 319 318 318 320 325 324 328 322 323 323 320 320 321 322 322
294 289 297 297 298 297 295 299 299 300 299 300 302 302 306 305 305 307 309 313 311 310 312 309 312 314 313 312 314 316 318 318 322 321 319 322 323 320 321 322 319 320 322 321 322
294 295 295 296 294 296 297 298 299 299 300 301 301 300 304 305 305 307 310 310 309 308 310 310 311 312 313 314 314 317 317 317 318 318 322 322 323 321 320 322 321 320 319 317 316
294 287 294 297 296 294 293 297 298 300 300 300 301 302 303 303 304 306 306 307 309 309 309 308 309 311 311 314 315 316 316 317 319 321 321 321 324 320 319 319 319 318 316 313 313
295 293 293 288 297 297 298 299 297 298 299 301 302 302 303 304 304 304 307 308 310 310 309 307 308 312 312 312 312 313 313 316 317 318 321 319 320 321 320 319 318 318 315 311 309
295 293 295 295 296 294 296 297 298 299 299 301 302 302 303 305 305 305 306 307 309 308 309 308 309 310 310 311 311 310 310 312 314 318 318 318 318 319 320 320 319 317 313 309 306
294 295 294 294 294 291 290 297 297 297 298 300 301 303 302 303 305 306 305 306 306 307 308 308 308 307 308 307 308 310 313 309 313 317 317 318 318 320 321 320 317 314 310 306 303

GFSSW_850_thetae_078.txt.gz
Theta_e
298 298 298 298 298 298 298 298 298 298 298 298 298 298 298 299 301 301 302 303 303 308 308 309 308 311 312 314 314 314 309 308 309 311 311 313 313 315 315 316 316 318 317 325 327
298 298 298 297 297 298 297 297 297 297 297 297 297 298 298 298 299 302 306 305 308 309 307 308 309 309 310 313 314 312 309 309 308 310 311 313 313 314 315 314 315 316 317 317 320
299 299 298 298 297 297 297 297 297 297 297 297 297 297 297 298 299 307 309 309 309 309 309 309 307 306 308 311 314 313 312 311 312 313 314 312 313 315 314 313 316 316 316 316 319
299 298 298 297 297 297 297 297 297 297 296 296 296 296 297 298 299 308 308 308 308 309 309 310 314 312 306 306 310 312 312 313 313 314 314 312 314 313 315 315 317 316 316 316 317
300 299 298 297 297 297 297 297 297 296 296 296 297 300 301 301 301 302 308 308 308 308 309 311 316 313 308 306 308 309 311 313 314 315 315 315 312 314 314 316 317 317 317 316 316
301 301 301 299 298 297 297 297 296 296 296 299 303 304 304 303 302 301 301 305 307 307 309 310 311 315 312 309 307 309 309 309 311 312 314 315 315 314 315 316 317 317 317 317 317
301 299 299 298 298 297 297 297 296 297 298 300 304 306 306 303 301 302 302 303 303 306 309 310 308 310 307 307 308 311 312 312 311 312 312 315 313 313 315 316 316 316 317 317 316
301 300 299 299 298 297 296 296 298 299 299 302 305 307 305 302 303 303 305 307 304 306 307 308 308 307 308 308 309 312 312 314 313 312 312 312 315 312 315 315 315 316 316 316 317
301 300 300 299 297 296 296 297 301 304 307 307 307 306 305 305 307 308 308 309 308 305 306 308 309 308 308 306 306 310 312 313 313 313 312 310 314 313 315 313 313 315 316 316 315
299 299 299 297 296 295 297 298 302 306 307 308 308 307 305 306 310 309 309 308 309 310 309 308 308 305 305 306 306 311 313 312 312 311 312 312 312 311 314 314 314 315 316 317 316
298 298 298 296 296 295 301 301 302 305 303 304 306 308 305 306 308 310 308 308 309 310 307 308 306 307 305 307 308 310 311 311 311 311 312 313 312 311 310 312 312 314 315 316 317
296 297 297 296 295 299 304 304 299 299 299 304 303 304 303 305 308 307 309 308 309 311 307 309 308 307 306 306 307 307 309 311 311 312 313 313 314 314 312 311 314 315 315 316 317
295 296 296 295 295 298 303 302 302 303 303 304 303 304 305 305 305 305 306 307 307 308 309 309 309 310 309 310 310 311 312 312 313 313 314 313 315 314 313 312 314 315 316 317 317
296 296 296 295 296 295 302 302 303 304 302 303 306 306 306 306 305 305 305 306 306 308 311 310 310 311 313 313 311 313 312 313 313 317 315 315 319 315 314 315 313 314 316 318 318
297 296 296 295 296 296 296 299 300 305 297 303 309 308 307 306 308 305 305 307 307 312 313 313 315 315 315 313 312 314 313 316 317 316 317 317 317 315 314 314 314 314 317 317 317
297 295 296 295 295 296 295 299 303 299 297 303 308 308 308 309 309 307 307 307 309 314 314 312 313 313 314 314 314 313 315 316 316 316 319 316 317 316 315 315 315 315 317 318 318
294 294 295 295 294 295 295 301 298 300 301 305 305 303 304 307 310 307 306 306 309 310 310 311 313 312 313 314 314 314 317 317 320 320 319 316 318 317 316 315 315 316 317 318 318
293 294 295 295 294 295 298 298 298 300 303 302 301 303 306 307 308 308 305 306 305 308 309 310 307 313 312 313 314 315 316 315 321 322 320 317 317 317 319 319 318 319 319 320 318
295 295 294 296 294 295 299 295 298 301 300 300 301 307 306 306 305 305 305 305 304 306 308 307 307 311 312 312 313 317 320 316 319 318 321 318 317 320 321 321 319 319 321 321 322
295 294 296 297 296 298 294 297 298 299 299 300 303 306 306 305 306 305 306 307 306 305 305 307 309 309 312 312 313 316 316 320 319 320 323 319 321 324 323 322 320 320 320 321 321
293 293 297 296 297 297 289 296 298 298 299 300 301 301 302 303 305 306 309 311 310 309 306 308 308 309 314 315 315 317 318 317 319 321 320 321 322 322 323 322 320 320 317 318 322
293 288 296 296 295 295 292 298 298 299 299 300 300 300 301 305 304 307 308 311 310 309 311 309 311 312 312 312 313 316 317 316 321 320 320 320 319 321 321 319 320 317 316 316 316
293 294 295 296 290 294 297 297 298 298 299 300 301 301 301 303 304 306 308 307 307 309 311 309 311 311 313 313 314 316 316 316 316 317 317 321 320 321 320 317 317 315 313 313 312
294 287 293 296 295 295 293 296 298 298 299 300 300 301 301 302 304 305 305 306 306 309 310 307 309 308 309 309 312 313 312 312 315 319 319 318 320 320 319 317 317 316 310 309 309
294 292 293 288 295 296 296 297 297 297 298 298 300 301 302 303 305 305 305 305 307 309 309 307 308 311 310 310 311 311 311 311 313 315 318 316 318 318 319 318 317 315 309 306 304
294 293 294 294 295 294 295 296 297 298 298 298 301 300 299 302 303 305 306 305 306 308 308 307 309 309 308 308 306 306 304 306 308 311 316 316 318 317 319 319 317 314 308 304 302
293 293 294 293 294 290 288 294 296 295 295 297 299 298 299 301 301 302 304 305 305 306 307 308 307 307 307 305 305 304 308 305 307 309 313 315 316 317 319 320 316 310 307 303 301

GFSSW_850_thetae_084.txt.gz
Theta_e
298 298 298 298 298 298 298 298 298 298 298 298 298 298 299 299 300 301 303 303 302 303 305 311 314 314 312 313 314 314 317 319 318 317 317 316 316 316 316 316 316 317 319 320 323
298 298 298 298 298 298 298 298 298 298 298 298 298 298 298 299 300 301 304 306 305 302 303 311 313 315 314 314 314 315 318 318 319 317 317 316 316 316 316 317 317 317 317 317 322
298 298 298 298 297 297 297 297 297 297 298 298 298 298 298 299 303 305 307 309 304 303 307 309 311 313 314 315 316 316 317 318 316 315 315 316 316 315 316 317 316 316 316 316 319
299 299 298 298 297 297 297 297 297 297 297 297 298 298 299 300 306 307 307 308 308 309 310 309 309 311 312 313 313 316 315 315 315 315 314 316 315 316 316 316 316 316 315 316 316
300 299 298 298 298 297 297 297 297 297 297 297 298 298 299 306 304 302 306 307 307 308 311 310 310 310 312 312 312 313 313 313 313 313 313 313 315 315 315 316 316 316 316 316 316
300 300 299 298 297 297 297 297 297 297 297 298 298 299 302 307 303 302 301 306 308 310 311 313 313 313 313 314 314 314 313 314 313 314 314 315 315 315 315 315 315 315 316 316 316
301 300 298 297 297 297 296 296 297 297 298 299 300 301 305 305 302 302 302 301 304 308 310 311 313 312 311 313 312 312 312 313 313 313 314 314 317 317 315 314 315 316 317 317 317
299 298 297 296 296 296 296 296 297 297 299 300 302 306 308 302 302 304 304 303 302 303 305 308 311 311 311 309 310 310 311 313 313 316 316 316 316 316 315 316 317 317 317 317 317
298 297 297 296 296 296 296 297 298 300 302 303 306 307 308 304 308 310 309 309 308 304 305 307 307 308 309 310 310 310 310 311 314 315 316 316 317 317 316 316 317 317 317 318 318
298 295 294 294 295 295 296 297 299 301 304 307 307 307 308 309 311 310 310 309 309 309 307 307 308 310 310 310 310 310 310 312 313 314 314 314 315 316 315 317 317 318 318 318 318
296 294 295 294 294 295 296 302 303 305 302 303 303 305 303 304 305 307 308 309 308 309 308 308 310 310 309 310 310 310 309 309 310 311 312 313 315 316 316 316 317 318 318 318 318
295 296 295 294 295 296 299 301 299 299 303 301 303 303 304 304 304 305 307 308 310 312 311 310 310 310 309 309 309 310 310 311 312 312 314 315 316 317 317 317 317 317 318 319 318
295 296 294 294 295 296 300 299 298 300 304 303 305 306 307 306 307 308 306 309 311 312 313 313 312 312 311 311 311 311 311 311 313 315 316 317 318 318 318 317 316 316 316 318 318
294 295 294 294 296 295 300 296 298 301 306 302 309 308 307 307 309 307 307 307 310 310 311 313 312 312 311 311 311 311 313 314 315 316 318 318 319 319 319 319 318 318 318 317 318
296 293 294 294 294 298 295 297 299 303 302 305 309 307 303 307 308 308 306 306 307 310 310 311 311 312 312 311 313 314 315 315 316 317 318 318 320 319 319 320 321 320 319 318 318
293 293 294 294 294 294 294 297 302 305 301 303 306 303 305 307 309 308 307 306 306 308 310 310 312 315 315 314 312 314 315 315 316 317 320 318 319 320 321 323 323 323 322 322 322
293 294 294 294 296 294 294 302 302 300 301 303 302 301 304 308 308 309 310 310 312 310 310 310 311 312 315 315 316 315 315 314 320 321 319 318 320 320 323 323 324 325 324 324 324
293 294 294 294 294 294 298 301 299 300 301 301 301 301 304 306 306 309 310 311 311 311 311 312 313 313 314 314 313 315 313 315 317 319 319 319 321 323 323 323 323 322 322 322 322
293 293 296 295 294 295 300 299 300 301 300 300 299 300 302 304 301 306 310 310 310 310 312 312 311 312 314 314 313 316 318 316 319 318 320 318 320 323 322 322 321 320 319 319 319
293 296 297 295 295 297 299 299 300 299 299 299 298 300 300 300 299 301 305 311 310 310 309 311 311 313 315 315 315 316 316 319 319 320 320 319 320 323 324 322 320 320 318 316 315
293 298 296 296 296 298 300 298 298 298 299 300 299 299 299 300 301 302 303 309 307 308 308 311 311 314 315 315 315 318 318 318 319 320 322 319 321 323 322 319 319 319 315 313 312
294 300 296 296 300 299 300 299 298 299 298 300 301 301 301 301 302 303 304 306 305 305 309 312 313 312 314 314 315 315 317 318 320 321 320 322 321 322 321 319 318 315 313 310 309
296 296 295 297 300 299 298 298 298 298 299 299 299 300 301 301 301 302 303 305 305 305 307 305 313 313 314 315 315 316 317 317 317 317 318 320 321 320 319 320 318 315 312 308 306
296 298 297 297 297 298 298 298 298 297 298 299 300 300 301 301 302 302 302 303 303 305 304 304 312 313 313 313 315 316 315 315 316 318 318 318 316 315 314 315 318 314 310 306 303
296 297 296 299 298 297 297 297 297 297 298 299 299 301 300 300 301 302 303 303 302 305 302 307 314 312 311 310 310 311 311 311 312 313 313 312 310 312 315 317 317 312 308 304 301
295 296 295 296 296 296 296 296 295 296 297 298 297 298 299 299 299 300 302 303 303 305 304 305 313 310 310 309 307 307 306 306 306 307 309 312 314 315 316 316 315 311 307 302 299
293 294 296 295 296 296 296 295 295 295 296 296 297 297 298 299 299 300 300 300 300 303 306 309 309 308 309 307 306 306 307 308 310 312 313 314 315 316 318 317 312 308 304 301 299

GFSSW_850_thetae_087.txt.gz
Theta_e
299 299 299 299 299 298 298 298 298 298 298 298 298 299 299 299 300 302 309 310 309 304 303 312 316 312 313 315 317 318 320 321 321 321 321 320 320 319 318 318 318 318 319 321 324
299 299 299 299 298 298 298 298 297 297 298 298 299 299 299 299 300 307 308 306 304 303 302 311 315 316 316 315 316 319 320 320 321 321 321 320 319 319 319 319 318 318 317 318 320
299 299 298 298 298 298 298 297 297 298 298 298 298 299 299 299 309 310 306 308 308 305 309 309 313 315 316 316 317 318 319 319 319 320 319 319 319 318 319 319 319 319 318 318 318
299 299 298 298 298 298 298 298 298 298 298 298 298 299 299 300 310 311 304 306 308 306 312 310 311 313 317 317 317 319 318 319 318 318 318 318 317 318 318 318 318 318 318 318 318
299 299 298 298 298 298 298 298 298 298 298 298 298 299 299 309 309 307 304 306 308 311 314 312 311 311 315 315 314 316 316 316 316 315 315 316 317 317 317 317 317 317 318 318 318
300 299 299 299 298 298 298 297 298 298 298 298 298 299 303 310 307 305 303 306 308 312 313 313 312 312 313 314 314 314 316 315 315 315 315 316 317 316 316 316 316 317 317 318 318
299 298 298 298 297 297 297 297 297 297 297 298 299 301 308 308 308 306 306 306 306 309 312 312 313 315 314 315 313 314 315 315 315 314 315 314 315 316 316 316 317 317 317 317 318
298 297 297 297 297 297 296 297 297 297 298 299 301 307 309 308 306 307 307 308 307 306 308 311 312 313 313 312 312 312 312 313 314 315 316 315 316 318 317 317 318 317 317 318 318
298 298 297 296 296 296 296 296 297 298 300 301 308 310 311 307 309 311 311 310 308 306 306 307 308 310 312 312 312 312 312 313 313 314 316 317 318 318 317 318 319 318 318 319 319
298 296 295 295 295 295 296 297 298 300 306 309 310 311 312 311 309 311 310 311 311 310 309 307 308 310 311 312 312 311 312 313 313 314 315 316 317 316 315 316 317 317 318 319 319
297 294 295 294 295 295 297 305 308 310 307 306 306 307 304 305 306 305 309 310 310 311 313 309 310 311 311 312 312 312 312 312 313 313 312 313 314 315 315 315 317 317 317 319 319
296 295 294 294 295 298 302 304 302 302 305 304 306 306 307 308 309 308 306 308 311 312 313 312 312 312 312 312 311 311 312 312 312 313 314 315 317 317 317 317 317 318 318 318 319
295 295 294 294 295 300 302 301 300 301 307 306 308 309 308 309 311 311 308 309 310 312 313 314 314 314 312 311 311 311 311 313 313 313 316 317 318 318 319 320 319 319 318 318 319
294 294 294 295 300 300 304 299 301 300 313 307 311 309 307 308 312 310 309 309 311 311 312 313 314 314 313 313 313 313 312 312 313 315 316 318 320 319 319 319 320 320 320 319 318
294 294 294 294 300 301 300 299 302 305 310 307 311 308 305 309 309 311 308 309 310 311 311 312 313 313 314 313 312 312 313 315 316 317 318 317 318 318 320 321 323 323 322 322 320
293 294 294 300 301 300 298 297 305 314 306 307 307 305 305 308 309 310 310 309 309 309 310 312 312 313 313 313 313 313 314 316 315 317 319 317 317 317 321 325 324 325 324 325 325
293 294 295 298 302 295 295 305 311 306 304 306 305 304 304 307 308 309 309 311 312 313 312 311 311 312 312 314 315 313 315 317 318 320 319 318 319 319 324 324 324 324 323 324 324
293 294 295 298 298 296 303 307 304 303 304 304 303 303 302 305 306 305 307 309 310 312 312 313 313 312 311 314 315 315 316 316 314 316 320 319 319 321 324 322 321 322 322 323 323
293 298 301 298 295 300 304 305 305 304 302 302 302 301 303 305 302 302 305 308 311 313 315 315 313 313 314 314 314 314 315 315 315 316 318 318 317 324 323 323 322 321 320 321 321
299 300 300 295 294 302 304 303 302 302 301 301 301 301 303 303 302 302 303 310 312 311 310 314 315 314 314 315 315 315 315 318 318 318 319 317 318 324 325 322 321 321 320 319 319
298 302 300 295 300 302 306 302 300 300 300 301 301 301 302 302 302 303 304 308 309 309 308 311 314 314 315 316 315 315 318 318 318 319 320 321 324 325 322 321 320 319 319 317 316
298 304 298 300 304 302 303 302 298 300 300 301 302 302 302 303 302 303 303 305 307 307 306 307 312 315 315 314 315 316 316 317 319 318 319 321 322 322 321 320 320 319 317 314 312
300 300 297 301 305 303 301 300 300 300 300 301 301 301 302 302 302 303 303 303 304 306 307 305 310 314 314 315 315 315 317 317 318 319 320 321 322 321 317 316 318 319 317 314 310
299 303 300 300 300 302 300 300 300 299 299 300 300 301 302 302 302 304 304 304 304 304 305 304 307 310 315 314 316 315 315 317 318 320 319 319 318 316 314 316 318 319 315 311 307
299 301 301 302 301 300 300 299 299 299 299 299 300 302 302 301 301 301 303 303 303 305 305 307 307 308 313 314 315 316 315 316 316 316 317 315 313 313 316 317 320 316 312 308 304
298 299 298 299 298 299 297 299 298 298 298 299 299 299 300 300 300 301 301 302 303 305 303 304 308 306 315 311 311 311 311 310 310 309 308 310 313 318 318 319 317 312 308 304 301
296 298 300 297 300 300 299 298 297 297 298 298 298 299 299 300 299 300 301 301 302 303 304 304 307 312 314 311 309 309 309 308 310 312 314 317 317 315 311 305 303 304 302 299 297

GFSSW_850_thetae_090.txt.gz
Theta_e
299 299 299 299 299 299 299 299 298 299 299 299 299 299 299 299 300 301 308 308 311 310 307 304 315 313 311 315 317 320 321 322 321 321 322 322 322 321 320 319 319 319 319 320 325
299 299 299 299 299 299 298 298 298 298 299 299 299 299 299 299 300 303 309 309 309 308 307 305 312 316 312 314 315 318 322 320 320 321 321 322 321 321 320 320 319 319 319 319 321
299 299 299 299 298 298 298 298 298 298 298 298 298 299 299 299 306 314 306 307 308 308 306 306 311 315 316 316 316 316 319 319 319 319 319 320 320 320 320 320 319 320 319 319 318
299 299 299 298 298 298 298 298 298 298 298 298 299 299 299 299 310 311 308 306 304 306 310 313 310 313 316 318 317 317 317 318 318 319 319 319 319 319 319 320 319 319 319 319 319
300 299 299 298 298 299 299 299 298 298 298 298 298 298 299 310 311 310 308 304 304 308 314 314 312 312 313 314 316 317 317 318 318 317 318 317 317 317 318 318 318 318 318 318 319
300 299 299 299 299 299 299 298 298 298 298 298 298 298 301 308 309 307 307 306 308 312 313 314 313 313 313 313 314 315 314 315 315 316 315 316 316 316 316 316 316 317 317 317 318
301 299 298 298 298 298 298 298 297 297 297 298 298 300 308 308 308 309 308 306 306 308 311 313 313 314 314 315 314 315 315 316 316 316 316 316 316 317 316 316 316 316 317 317 317
300 299 298 297 297 297 297 297 297 297 297 298 300 307 308 308 309 308 308 308 308 307 308 310 312 313 314 315 315 314 314 313 313 313 314 314 314 314 315 316 318 318 318 317 318
299 298 298 297 296 296 296 296 297 297 298 300 306 311 309 311 309 311 312 312 311 309 307 307 308 311 312 314 313 313 312 313 312 314 315 314 315 317 317 317 318 318 318 319 318
299 298 296 296 296 295 296 298 304 301 308 310 311 312 312 311 311 311 312 311 312 311 308 307 308 309 310 311 314 313 313 313 313 314 314 314 315 316 316 316 315 315 318 318 318
299 297 295 295 295 295 297 307 309 312 312 312 311 311 310 306 308 308 306 310 312 312 313 311 310 309 311 311 311 312 313 314 314 314 313 314 314 313 314 315 315 315 314 315 317
299 296 295 295 295 299 304 307 304 303 305 306 306 306 308 309 311 311 308 308 310 312 313 314 312 312 312 313 313 312 313 312 312 313 313 313 313 315 316 317 317 316 316 317 317
298 294 294 295 296 302 303 303 302 303 307 308 308 310 310 310 312 312 310 308 309 311 312 313 314 314 313 313 313 312 312 311 311 312 313 314 314 315 316 317 317 317 317 317 317
295 294 294 296 303 301 306 301 302 302 311 309 309 310 309 308 313 312 311 311 312 312 311 311 313 314 314 314 314 313 313 313 313 313 312 314 317 317 317 317 319 320 320 320 320
294 294 294 298 303 304 302 301 303 308 313 309 311 309 307 308 309 311 311 310 311 311 312 312 313 313 314 314 314 313 313 313 314 315 316 316 317 316 316 317 319 324 324 326 326
294 294 297 301 302 302 300 299 306 315 311 307 309 308 305 307 309 310 310 310 311 311 311 311 311 313 313 314 313 313 313 313 314 315 318 315 316 316 316 325 326 325 324 324 325
293 294 296 302 304 302 295 306 313 311 306 307 307 306 305 304 306 308 308 310 311 313 314 313 311 312 313 313 314 315 314 314 315 318 318 316 319 317 323 325 324 324 323 323 324
293 294 297 301 301 298 305 309 309 306 306 306 304 304 303 304 304 307 305 306 307 313 313 312 313 313 313 313 313 314 315 314 317 318 317 318 323 320 324 323 322 322 322 322 323
293 299 303 303 296 302 306 309 307 306 304 303 302 303 304 305 305 304 304 304 310 313 314 315 314 315 314 313 312 313 318 314 318 317 318 315 321 321 324 322 321 321 321 320 320
300 302 302 296 296 304 307 307 304 303 302 302 302 302 303 304 304 304 304 307 311 311 309 312 313 312 313 314 313 314 315 318 318 320 316 315 316 319 322 322 320 320 320 318 317
300 303 302 294 300 306 309 305 303 301 301 302 302 302 303 303 303 303 304 305 309 308 307 309 311 311 312 317 316 314 316 317 318 318 319 322 324 322 321 322 319 319 318 316 314
301 307 300 300 307 305 306 304 300 301 301 301 302 302 303 303 303 303 303 304 305 307 307 308 308 310 311 312 315 314 315 316 318 318 317 320 321 319 320 320 320 319 317 314 311
302 302 297 303 308 305 303 302 301 301 301 301 302 302 302 302 302 303 303 304 305 305 305 306 307 309 311 311 314 317 317 316 317 319 321 324 322 316 316 317 320 318 315 312 308
302 306 302 302 302 304 303 301 301 300 300 300 301 301 302 303 303 303 304 304 304 304 305 305 306 306 310 310 310 313 317 317 318 321 319 321 319 317 319 320 319 316 312 309 305
302 305 303 304 303 302 301 300 300 300 300 300 301 302 302 302 302 302 302 302 302 305 305 305 307 307 308 308 308 311 316 316 317 318 320 317 315 318 317 314 312 311 309 305 302
298 303 300 302 300 301 298 301 300 300 300 300 301 301 301 300 301 300 301 302 303 303 306 304 304 306 306 307 309 313 315 315 314 315 316 314 318 314 309 305 306 304 302 300 298
298 300 302 299 301 302 302 300 299 299 299 299 299 299 299 300 299 299 299 300 301 303 304 304 304 306 306 306 313 316 313 313 311 314 315 316 315 312 309 303 299 300 297 296 294

GFSSW_850_thetae_093.txt.gz
Theta_e
302 301 300 300 300 300 300 300 300 299 299 299 299 299 299 299 300 300 302 305 306 309 309 309 305 315 312 312 315 318 319 320 319 318 318 320 318 320 320 319 319 319 318 323 326
302 301 300 300 300 299 299 299 299 299 299 299 299 299 299 299 300 302 310 308 309 309 309 308 307 313 312 312 313 312 315 318 317 318 318 319 316 317 318 319 319 319 319 320 324
301 300 300 300 299 299 299 299 299 299 299 299 299 300 299 299 302 312 306 305 305 306 307 307 305 307 313 313 312 313 313 314 317 319 318 317 317 318 317 318 319 319 319 319 321
301 300 300 299 299 299 299 299 300 300 300 300 299 299 298 299 308 310 309 309 306 304 306 306 307 307 309 312 314 312 314 314 315 316 316 316 317 317 317 317 318 319 318 318 319
301 300 300 299 299 299 299 300 300 300 300 299 298 298 298 304 305 306 309 308 305 305 306 311 313 313 308 311 312 313 315 316 316 316 316 317 316 316 315 316 316 317 317 317 317
301 300 299 299 299 299 300 299 299 299 299 298 297 298 299 308 307 308 308 307 306 309 312 313 314 314 312 311 310 312 312 313 314 314 315 314 313 315 315 316 316 315 316 316 316
300 300 299 299 300 299 299 298 298 298 297 297 298 300 303 301 306 308 308 308 307 306 307 309 312 313 313 312 315 314 312 312 312 313 312 314 313 314 315 316 316 315 316 316 316
301 299 299 300 299 299 298 297 297 297 297 297 300 305 306 304 309 308 308 309 308 308 307 307 308 309 312 313 313 312 311 311 312 311 312 311 312 313 314 314 313 314 315 315 315
300 300 299 298 298 298 297 296 296 297 298 300 301 305 311 311 310 310 312 310 311 311 309 307 307 308 310 310 310 311 311 310 311 311 311 310 310 311 313 314 314 315 316 315 316
300 299 299 298 296 295 296 296 301 306 307 307 310 311 312 311 308 310 311 312 311 311 309 308 307 305 305 306 309 310 310 308 309 309 310 310 310 311 312 313 313 313 313 314 314
299 299 298 297 295 295 298 304 308 311 311 312 313 309 311 309 306 307 307 307 308 311 310 308 305 305 305 306 308 308 309 309 309 310 310 310 310 310 310 311 311 312 313 313 314
300 299 297 295 295 301 304 306 304 303 303 305 309 310 307 306 310 312 310 308 306 311 310 310 308 309 309 308 309 310 309 309 310 311 310 309 309 310 310 311 313 313 314 314 314
300 298 296 294 295 302 303 303 302 301 304 307 305 307 309 310 311 312 310 308 307 308 308 309 312 312 311 311 311 311 311 310 310 309 309 309 309 310 312 313 314 315 315 315 315
298 297 294 295 300 301 305 301 301 299 309 311 307 309 309 309 310 312 312 311 310 308 308 309 309 311 312 312 312 312 312 312 312 311 310 311 312 312 314 315 315 316 319 317 324
296 294 294 298 303 303 301 302 301 308 315 308 309 309 308 308 309 312 311 310 310 310 310 310 310 310 311 311 312 313 313 313 312 310 312 314 314 314 315 315 314 323 323 324 325
294 294 295 299 300 302 301 297 307 313 313 308 309 309 306 306 307 311 311 310 310 310 310 309 310 309 309 311 312 312 312 312 311 310 313 313 314 314 313 314 325 324 323 323 323
294 293 301 301 304 303 299 306 311 313 308 307 307 306 305 304 304 304 308 306 309 307 308 311 312 310 309 309 311 312 312 311 312 312 314 316 319 316 320 323 324 323 322 322 321
293 294 297 302 302 299 306 307 310 308 306 305 303 303 303 303 303 305 304 302 303 311 313 312 311 312 312 310 310 311 311 315 315 314 314 316 320 319 321 316 318 321 320 319 319
293 297 302 302 296 303 306 309 306 305 303 302 302 303 303 305 304 303 303 303 310 309 311 313 313 311 310 312 312 311 313 314 317 315 316 315 315 318 317 317 315 318 317 316 315
300 302 303 302 296 305 305 308 304 302 302 302 301 303 303 303 303 303 303 305 309 307 306 308 309 309 310 313 312 313 312 314 316 321 319 316 315 323 321 318 318 317 315 313 311
301 303 303 294 299 306 303 305 303 301 301 301 301 302 302 302 302 302 303 304 305 305 305 307 308 308 308 311 315 315 315 315 316 316 317 321 323 319 317 316 319 315 312 309 307
301 303 299 301 305 307 304 304 301 302 301 301 302 302 302 303 302 302 302 306 305 306 305 306 306 307 305 305 306 314 315 315 316 317 318 317 319 314 315 316 317 313 310 306 304
302 302 296 304 303 303 303 302 301 301 301 301 301 302 302 301 301 302 303 305 305 305 305 305 303 303 301 306 310 312 311 310 312 317 316 318 322 313 316 315 311 309 306 304 301
303 300 302 302 302 303 301 302 301 300 300 300 300 301 301 303 302 303 303 304 302 305 305 304 304 303 302 304 306 307 309 309 312 317 318 321 318 317 315 311 309 306 303 301 299
302 302 302 300 301 301 301 300 301 300 300 300 300 302 302 301 301 301 302 301 302 305 304 302 303 304 305 305 305 307 308 309 313 316 317 316 316 314 310 308 305 303 301 299 297
300 302 301 301 300 301 298 301 300 300 300 299 299 300 299 299 299 299 299 299 300 301 303 302 303 301 303 304 305 306 308 311 312 314 315 314 315 308 305 303 301 299 298 296 295
300 301 302 299 299 299 299 300 300 299 299 299 299 299 299 299 300 300 300 299 300 299 296 300 300 300 301 305 305 309 313 311 312 313 313 316 311 307 302 300 298 297 295 294 293

GFSSW_850_thetae_096.txt.gz
Theta_e
320 318 313 307 305 304 303 302 302 301 300 300 299 299 299 299 300 301 303 305 305 307 306 306 308 308 315 308 312 315 314 316 318 319 319 319 317 317 318 317 318 318 318 321 327
318 318 315 308 304 303 303 302 301 300 300 300 300 300 299 299 301 304 307 307 308 306 308 308 308 307 313 311 311 310 311 316 316 317 318 318 316 316 316 316 317 318 321 326 334
316 314 313 307 304 303 302 302 300 300 300 300 300 300 299 299 301 309 305 308 308 306 307 308 308 306 307 312 311 311 312 312 313 315 316 316 315 316 315 315 317 317 317 318 324
314 312 308 305 303 302 301 301 300 300 301 301 300 300 299 299 303 311 307 308 308 304 305 306 306 305 306 309 312 310 311 312 313 314 314 313 315 314 315 316 318 318 316 315 316
313 309 304 302 302 301 300 300 300 301 301 300 299 298 298 299 302 306 304 308 307 305 305 308 311 310 308 307 309 310 312 313 314 314 314 314 313 314 315 315 315 316 315 315 315
313 308 303 301 301 300 300 300 300 300 300 298 297 297 298 303 305 308 307 307 307 306 311 312 314 314 313 311 308 310 310 310 311 312 312 312 311 313 314 315 315 315 315 315 316
312 306 305 301 300 299 300 299 299 298 297 297 297 298 300 300 303 308 307 308 308 308 306 307 307 307 309 311 312 313 312 310 311 312 310 312 311 311 314 314 314 315 315 315 315
310 307 303 301 299 300 299 298 298 296 296 297 298 303 302 301 306 307 307 309 308 309 308 307 306 307 308 311 311 311 310 311 312 311 311 310 311 309 312 312 311 312 313 313 313
307 303 301 300 299 299 298 297 296 296 298 300 302 304 306 308 310 310 311 310 309 310 309 308 308 307 307 308 308 309 310 311 310 310 309 308 310 310 312 312 311 311 312 313 315
309 303 301 299 300 299 297 296 296 298 304 304 306 309 307 309 307 309 312 312 311 311 310 308 307 304 303 304 309 309 310 308 308 307 309 308 307 309 311 310 309 310 311 312 312
305 302 300 299 299 296 295 301 304 308 306 308 307 308 311 310 307 308 307 308 309 308 309 307 304 303 303 303 306 307 308 307 307 307 309 309 308 308 307 309 308 310 312 312 313
302 301 299 300 297 295 300 305 304 303 302 306 309 309 312 309 306 310 309 308 306 305 309 309 305 306 306 306 306 306 306 306 307 308 308 308 308 308 308 307 310 310 311 312 313
302 301 301 298 295 298 303 302 303 302 301 302 302 306 308 307 308 311 310 309 306 306 308 309 309 310 309 309 309 308 307 308 309 309 308 307 308 309 310 310 310 311 312 314 315
301 300 299 295 295 303 304 301 301 298 304 308 307 307 307 309 310 310 311 310 308 306 306 306 307 308 308 310 311 310 310 310 311 310 311 308 311 311 311 311 312 313 315 323 323
302 299 296 294 303 302 302 302 301 306 304 308 307 309 309 309 308 311 311 311 309 309 309 309 308 308 308 309 309 310 311 311 311 310 309 311 311 311 310 312 312 313 322 322 321
299 296 294 296 301 302 302 301 302 309 304 310 310 309 307 307 306 310 311 310 309 309 308 307 309 308 307 308 308 309 311 310 310 309 312 312 310 311 311 314 319 321 322 320 318
296 294 294 300 302 303 302 305 310 312 308 306 307 306 304 304 304 303 306 307 307 305 304 307 307 308 309 309 308 309 310 311 311 310 312 310 311 312 313 318 317 317 319 316 315
294 294 299 301 302 303 302 305 311 307 305 303 303 302 302 302 303 303 302 301 307 309 310 312 311 309 308 310 310 308 311 313 316 314 312 312 314 316 319 317 317 315 315 312 311
293 294 298 301 300 301 305 308 305 304 303 302 302 302 303 303 303 303 302 307 308 305 309 310 311 306 308 307 310 312 310 310 313 313 316 313 312 317 318 317 316 313 313 310 307
295 300 301 301 297 304 304 308 302 302 301 302 301 303 303 302 302 302 302 306 306 305 305 307 307 307 307 305 307 312 311 312 311 315 315 314 314 318 318 316 315 315 310 306 304
301 302 302 298 302 306 302 303 301 301 301 301 301 302 301 302 302 302 303 304 304 305 305 305 306 306 305 305 306 304 310 314 315 314 315 316 316 316 316 315 315 313 307 303 301
301 301 301 301 305 304 303 303 301 301 301 302 301 302 302 302 301 301 302 305 305 304 304 305 304 306 304 303 303 303 306 314 316 317 315 314 316 314 312 314 311 307 304 302 299
302 298 296 304 302 301 302 301 301 301 301 301 301 302 301 300 300 302 303 305 304 303 303 304 302 302 301 301 305 305 306 309 310 312 314 315 317 311 311 306 304 303 301 299 298
302 299 300 302 302 301 301 302 301 299 299 300 300 300 300 302 301 302 301 304 302 305 305 303 303 302 302 301 303 304 305 306 309 310 313 314 317 315 309 309 305 303 300 298 296
302 300 301 299 299 300 301 301 301 300 300 299 300 300 299 300 299 299 299 299 299 305 303 300 302 302 303 302 302 302 303 303 306 308 313 314 315 309 307 305 302 300 298 296 295
302 299 300 299 300 298 299 299 300 299 299 298 298 299 298 298 298 298 299 298 298 299 301 301 298 301 301 301 301 303 304 305 306 312 313 315 312 305 303 301 299 297 296 294 293
299 301 300 298 298 298 298 300 300 299 299 299 299 298 298 298 299 298 298 299 298 298 296 299 298 299 299 301 302 302 304 305 311 309 312 313 309 304 300 297 295 295 293 292 291

GFSSW_850_thetae_099.txt.gz
Theta_e
320 319 320 318 317 310 308 305 305 303 303 301 300 300 301 302 303 304 306 306 307 305 304 303 306 308 312 308 313 315 313 312 315 316 315 317 316 317 318 317 318 318 317 325 331
320 320 318 317 314 310 306 304 302 302 301 300 300 301 301 302 304 306 308 307 307 305 308 308 308 308 309 312 309 309 309 312 314 315 316 317 316 317 316 316 316 317 318 318 329
323 321 320 317 315 310 305 302 301 300 300 300 301 301 301 302 302 307 306 307 309 306 307 308 308 307 306 310 309 309 310 310 312 314 314 313 313 314 314 314 316 316 317 317 317
324 322 322 318 315 310 304 303 301 299 299 300 300 300 300 301 304 311 309 307 307 306 305 306 307 305 303 307 311 310 309 311 311 312 312 311 313 313 313 313 314 315 316 316 316
325 323 319 316 312 310 305 302 300 300 300 299 298 298 298 299 302 306 304 304 306 307 305 305 306 306 306 305 307 307 308 311 312 313 313 313 312 312 313 313 314 314 314 314 315
324 322 317 312 307 306 304 302 300 300 300 298 297 297 298 300 304 306 306 307 307 306 309 306 311 312 311 311 308 310 309 309 310 310 310 310 310 311 312 313 314 314 314 314 315
321 317 317 313 305 305 302 301 301 300 298 297 296 297 301 300 303 305 307 307 308 307 307 307 308 306 307 308 310 311 310 309 310 311 309 312 309 309 313 313 312 311 312 312 312
321 318 316 314 308 304 301 300 300 299 297 296 297 300 303 300 300 302 302 307 307 308 308 308 307 307 306 307 309 310 310 310 310 309 310 309 311 309 312 311 311 312 312 312 313
321 317 315 316 308 303 299 299 298 297 296 297 300 303 303 302 305 309 308 306 308 307 308 308 307 307 306 306 307 308 309 309 310 310 309 308 309 309 311 311 310 310 311 311 312
319 316 314 313 308 301 299 300 297 297 298 302 305 305 304 309 309 306 309 311 310 310 309 308 307 303 301 304 308 308 308 308 308 308 307 306 307 307 309 309 309 310 310 311 311
316 313 313 308 303 300 300 296 301 302 303 304 305 303 308 308 310 309 307 311 309 308 308 306 303 303 302 303 306 307 306 305 304 305 306 306 307 308 308 305 305 307 309 310 311
313 311 310 305 301 299 297 299 305 302 303 305 305 308 306 308 311 306 307 307 306 304 307 308 304 304 304 304 304 304 304 304 305 305 305 305 306 308 306 305 308 309 309 310 311
312 311 311 301 300 299 295 301 304 303 300 299 302 307 309 309 311 307 310 308 305 304 304 307 309 309 306 306 307 306 305 306 307 307 307 306 309 309 309 309 310 310 311 312 317
311 308 303 300 300 295 299 302 302 300 297 301 305 304 306 308 308 308 309 308 305 304 304 305 306 306 306 307 308 309 309 309 309 308 309 307 311 311 310 308 309 311 315 320 318
308 304 300 300 297 300 302 302 302 301 301 306 306 307 306 309 308 309 310 310 308 308 307 307 308 307 307 307 307 308 308 309 309 309 309 310 309 310 310 310 312 316 320 317 315
304 301 301 300 298 302 302 302 301 308 306 308 309 308 308 308 307 310 310 310 309 308 307 307 308 308 307 308 307 307 307 309 307 307 310 310 309 309 308 313 317 317 314 312 311
302 301 300 295 299 302 302 300 309 310 307 308 309 309 305 304 303 305 305 306 307 304 305 308 307 307 308 309 308 307 308 308 310 309 311 310 310 308 317 318 316 315 313 310 308
301 298 295 296 302 302 302 305 311 307 304 303 303 303 302 302 302 302 301 305 306 309 309 310 307 307 306 309 309 308 307 308 313 314 311 311 312 311 316 315 313 312 311 308 307
300 296 294 301 302 302 304 308 308 304 303 302 302 302 303 303 302 303 304 308 305 304 307 308 309 305 305 305 304 308 310 310 312 311 313 310 311 316 315 314 315 313 310 306 303
295 294 297 301 301 302 305 308 302 302 302 302 302 303 302 301 301 301 304 304 304 303 304 306 304 305 305 303 305 307 308 310 312 314 314 311 312 311 316 316 315 312 307 304 301
295 301 300 301 300 303 304 304 301 301 301 302 302 301 301 301 301 301 302 303 304 304 304 304 304 304 302 303 303 302 302 308 311 312 317 314 312 316 315 315 316 308 304 301 299
301 301 302 299 304 304 303 303 301 301 301 301 301 302 301 301 300 300 302 304 304 303 303 304 303 304 302 302 301 301 307 309 302 308 309 311 314 313 310 308 306 303 300 300 297
301 300 300 302 303 301 301 300 301 301 300 300 301 301 300 300 299 301 303 305 302 303 302 303 301 302 300 300 301 303 303 305 307 308 309 313 316 311 308 306 303 301 300 297 296
300 298 299 301 302 301 301 301 301 299 299 299 299 300 299 301 300 301 300 302 300 304 305 302 302 301 301 301 302 303 302 302 303 303 305 307 308 313 309 306 302 300 298 296 295
303 300 301 300 299 300 300 301 300 299 299 298 299 298 298 300 298 298 298 298 298 302 302 299 301 302 302 302 302 301 301 301 302 302 303 304 310 309 306 302 300 298 296 295 293
302 299 299 299 299 298 299 300 300 299 298 298 298 298 297 297 297 297 298 298 298 301 300 300 297 300 302 300 299 300 300 301 302 304 305 305 310 304 300 298 297 295 294 293 292
300 300 300 297 298 298 297 299 299 298 299 298 298 297 297 297 298 298 298 298 298 297 296 298 298 298 297 299 300 299 302 302 302 308 308 312 307 302 299 296 293 293 292 291 290

GFSSW_850_thetae_102.txt.gz
Theta_e
324 323 321 322 320 318 316 313 309 304 305 303 301 301 301 303 304 305 307 307 308 307 305 304 307 308 309 311 313 313 310 310 311 313 313 315 315 316 318 318 317 318 317 318 316
325 325 324 323 321 320 317 312 308 305 303 302 301 301 301 302 304 307 308 307 307 307 306 305 304 307 308 311 308 309 309 309 310 312 314 315 315 315 315 315 315 316 316 316 315
326 325 324 323 322 321 318 313 307 304 302 301 301 301 301 301 303 307 307 307 308 306 306 308 308 308 306 309 308 307 308 308 312 314 313 312 312 313 313 312 314 314 315 315 315
326 326 324 324 324 322 318 314 307 303 302 300 300 301 301 301 304 309 306 307 305 306 306 306 308 307 303 305 309 308 308 310 311 313 312 309 312 310 312 313 314 314 313 314 314
325 325 324 323 323 321 318 313 307 302 300 300 300 300 299 299 302 305 305 306 305 303 307 305 306 305 303 304 306 307 308 310 311 310 311 311 310 311 311 313 313 313 313 314 314
324 324 324 324 324 318 315 311 306 302 300 299 299 298 298 298 305 304 305 305 306 306 306 305 308 307 310 310 308 309 308 309 310 310 309 308 308 309 312 313 312 312 312 312 312
324 325 324 323 323 316 313 309 304 301 300 298 297 296 297 303 306 304 304 306 306 307 306 308 308 309 307 306 308 310 309 308 309 310 309 311 308 308 312 311 311 311 311 312 312
322 323 323 322 321 319 309 308 304 300 299 296 296 300 299 304 301 302 302 306 307 307 308 307 306 306 306 306 307 309 308 310 309 309 310 308 310 309 312 310 310 311 312 311 311
321 320 320 321 316 318 310 308 302 299 297 296 300 302 301 301 301 306 304 303 304 307 307 308 306 306 306 305 303 306 307 309 309 309 308 308 308 307 309 308 307 310 310 311 311
319 316 319 318 314 314 308 303 298 298 298 299 304 303 303 303 309 307 307 309 307 308 307 306 305 302 301 303 304 306 308 307 307 306 306 304 304 304 307 307 308 309 309 310 311
319 317 317 316 314 310 306 306 302 301 301 303 304 302 303 309 309 308 307 310 309 308 307 305 303 304 304 302 304 306 306 305 303 303 304 304 305 304 305 306 305 308 309 310 311
318 317 317 316 311 311 305 298 301 302 302 303 301 304 303 306 308 310 307 309 306 305 306 307 304 304 303 302 303 303 303 303 303 304 303 303 305 306 305 305 307 309 309 309 310
317 317 316 312 309 307 305 301 300 302 301 301 303 304 305 305 307 309 308 306 304 303 304 306 308 308 305 306 305 304 304 305 306 306 305 305 307 307 307 307 309 312 315 318 316
317 316 314 309 306 303 299 298 302 301 297 298 301 302 305 309 310 306 308 307 304 304 302 303 304 306 306 306 306 306 305 307 307 308 307 306 309 308 308 308 308 317 316 313 313
316 315 310 308 304 299 301 302 301 299 304 302 304 303 304 307 307 308 308 307 305 305 304 305 307 306 306 306 306 306 307 307 307 307 307 306 308 308 308 308 316 315 313 311 310
315 311 306 302 299 300 302 302 302 307 302 306 306 306 307 308 307 308 309 309 308 307 306 306 307 307 307 307 307 307 307 307 306 307 309 308 308 309 307 314 316 315 313 310 308
310 307 304 303 300 300 301 301 303 302 305 308 308 307 308 307 306 307 307 306 307 305 304 308 307 306 306 309 307 305 307 309 308 309 310 309 308 309 315 316 316 314 311 308 306
307 303 301 301 301 301 301 304 302 303 304 302 303 304 302 301 302 302 305 306 305 308 308 306 305 306 305 306 304 305 307 308 311 312 309 309 309 308 315 313 312 311 308 305 303
302 300 300 298 302 301 302 304 301 304 302 302 303 302 302 302 302 303 306 307 305 304 306 309 309 305 304 304 303 305 309 309 311 310 311 309 309 314 315 314 314 311 306 303 301
300 297 297 301 301 301 304 304 305 301 302 303 303 303 302 302 302 302 304 304 304 303 303 305 303 304 304 302 302 302 303 305 307 311 313 309 310 310 314 313 312 308 304 301 299
298 297 298 301 302 302 302 306 302 301 301 302 302 302 302 301 301 301 303 303 303 304 302 302 302 303 301 302 300 300 300 303 308 308 310 313 312 314 312 311 309 305 302 299 297
299 300 300 301 302 302 304 304 301 301 301 302 302 302 301 301 300 300 303 304 304 302 302 303 302 302 301 300 301 301 305 307 298 302 306 306 308 311 309 307 305 303 300 297 296
300 300 301 299 303 302 303 301 301 301 300 300 301 301 300 300 300 302 304 303 302 301 302 301 300 301 299 300 301 301 302 304 304 305 304 302 306 310 309 306 301 299 297 296 295
298 298 299 300 302 302 301 301 300 299 299 299 300 300 300 301 300 300 301 299 299 303 304 301 300 300 299 300 301 302 301 301 300 295 301 303 304 304 307 304 300 298 295 294 293
301 297 299 300 300 299 300 301 300 299 298 298 298 298 299 300 298 298 297 297 298 302 301 299 301 301 301 301 301 301 301 301 300 300 300 300 300 303 304 300 297 295 294 293 292
301 300 299 299 300 298 299 300 300 298 298 297 298 297 296 297 297 297 297 297 297 302 299 298 296 300 301 301 301 300 298 298 299 300 300 301 302 305 299 296 295 294 292 292 291
300 299 300 297 297 298 298 299 299 299 298 298 297 297 297 297 297 297 297 297 297 296 296 297 297 297 296 298 298 297 299 300 301 304 301 301 303 300 297 294 292 292 291 290 289

GFSSW_850_thetae_105.txt.gz
Theta_e
326 325 325 325 324 323 323 322 318 316 311 308 309 307 304 305 306 307 310 308 307 306 305 305 308 309 306 310 312 311 312 313 314 314 315 316 317 316 316 317 316 316 316 316 315
326 326 326 325 324 323 323 322 320 317 313 308 305 304 303 304 306 310 308 307 307 307 306 304 306 307 310 308 311 314 313 311 312 313 314 315 315 314 315 315 315 315 315 315 315
325 325 325 325 325 324 323 323 322 318 312 306 304 302 301 302 307 307 307 307 307 306 306 307 306 305 306 309 307 309 311 311 313 313 314 314 313 313 314 315 314 315 314 314 314
325 325 326 325 325 324 323 323 322 318 312 307 303 301 300 302 312 308 308 306 305 306 306 308 307 306 306 308 308 308 308 310 311 312 313 313 313 312 312 313 313 312 313 313 313
324 324 325 325 324 323 323 322 323 317 312 306 302 301 299 300 304 310 308 307 308 307 304 306 307 305 305 304 305 308 309 310 310 310 310 310 311 312 312 312 311 312 313 313 313
322 324 324 324 324 324 323 323 320 314 308 303 301 299 298 298 308 306 305 305 305 304 304 306 305 305 306 309 308 309 307 309 309 309 309 310 311 309 311 312 312 312 311 311 311
316 319 322 323 324 323 323 322 319 310 306 302 299 298 298 306 308 307 304 304 306 306 306 306 307 310 308 307 307 308 310 310 310 311 311 310 311 311 312 312 310 310 310 311 311
308 317 318 321 322 322 321 319 317 312 302 299 297 298 300 309 306 306 303 303 306 306 306 307 307 309 305 306 307 309 309 310 311 310 310 310 313 311 309 308 309 310 311 311 311
308 318 316 319 318 320 317 318 311 310 300 297 297 300 303 306 304 302 301 300 306 306 307 305 307 306 305 306 307 307 309 310 310 310 310 310 310 310 309 308 308 309 310 311 311
309 312 315 317 318 316 316 315 309 306 299 298 303 304 307 307 308 306 307 307 302 303 303 306 305 306 305 306 308 308 309 309 310 310 309 308 307 307 307 307 308 309 309 310 309
312 314 318 316 317 315 314 310 307 305 301 306 307 306 303 308 308 308 307 308 307 307 308 304 307 307 307 306 306 307 307 307 307 307 306 309 309 308 308 307 308 309 308 307 309
313 315 313 317 316 315 313 308 305 304 303 304 303 303 305 307 307 309 306 309 307 309 307 306 307 307 307 305 305 305 306 307 307 307 306 309 309 310 309 308 308 308 310 317 317
314 314 317 313 315 314 313 310 303 303 303 304 306 305 304 303 304 307 308 308 307 307 308 310 310 307 305 305 306 307 308 308 309 309 308 308 310 309 310 308 313 318 317 315 312
314 314 315 314 312 310 308 307 301 300 301 304 301 304 304 305 306 303 308 306 305 307 305 306 307 308 307 309 308 309 307 308 308 309 310 309 310 310 310 310 317 317 314 312 310
314 315 315 312 312 309 307 299 302 300 309 304 302 303 305 306 306 306 306 306 306 305 305 306 306 305 307 307 306 308 308 308 309 309 309 309 310 310 309 310 316 317 314 311 308
314 314 315 310 309 307 302 302 301 304 309 304 305 304 308 308 307 307 306 307 306 306 306 306 306 307 308 307 307 307 308 308 308 309 311 310 310 310 310 311 317 316 312 308 305
315 314 313 313 308 304 302 301 302 306 305 308 307 307 307 306 307 308 308 308 309 309 308 307 306 307 307 309 307 308 310 309 310 312 310 309 310 310 312 317 317 314 309 306 303
315 311 308 305 304 302 302 302 306 304 304 304 305 307 307 302 302 302 308 308 306 307 308 305 308 307 306 305 305 306 310 311 311 311 311 310 312 311 316 313 312 309 306 305 303
310 306 302 301 302 301 302 305 306 304 302 302 303 304 302 302 302 306 307 307 305 305 308 309 308 305 304 304 303 307 310 307 310 311 310 310 310 316 314 313 312 309 305 302 300
306 302 299 300 300 301 303 304 303 302 302 303 304 303 303 302 302 305 307 305 305 304 304 306 306 304 304 302 302 304 302 306 311 308 306 306 310 312 313 313 311 307 303 300 298
303 299 299 300 300 301 303 303 303 301 301 302 302 303 302 302 302 303 304 304 303 304 303 303 303 303 302 302 301 301 301 304 308 310 307 304 307 313 312 308 306 304 300 298 297
299 298 299 299 302 301 303 303 302 301 301 302 302 302 304 305 301 301 304 305 303 303 303 303 303 302 301 301 301 302 304 305 304 303 307 308 306 311 308 306 303 301 298 297 296
298 298 298 299 302 302 303 303 302 301 300 301 302 302 301 301 301 303 304 302 302 302 304 303 302 301 302 302 301 303 302 305 304 304 304 305 305 310 308 304 301 299 297 296 295
299 300 299 300 300 301 303 302 300 299 299 300 300 300 301 301 301 301 302 299 299 304 303 302 301 300 299 301 302 302 302 302 302 302 301 303 304 305 303 304 300 297 296 294 293
298 298 299 300 301 301 301 301 300 299 298 298 299 299 301 300 299 299 298 298 299 304 301 302 301 302 301 301 302 302 301 301 302 301 301 301 301 302 302 303 298 295 294 293 292
300 299 298 299 301 300 300 300 300 298 299 298 299 297 298 298 298 298 298 298 298 303 301 300 301 301 300 300 300 299 299 299 299 299 299 299 301 301 300 297 296 294 293 292 291
299 299 300 299 298 299 300 300 299 299 299 298 298 298 298 297 297 297 297 297 298 300 300 300 300 299 298 297 297 296 298 299 300 302 301 301 301 301 298 295 293 292 291 291 289

GFSSW_850_thetae_108.txt.gz
Theta_e
326 326 326 325 325 324 324 323 323 323 323 323 320 316 310 311 312 313 313 312 311 307 305 305 308 309 311 312 312 313 317 319 320 319 320 318 319 319 318 319 319 318 318 318 317
325 326 325 325 325 325 324 323 323 323 323 322 321 317 310 309 312 316 311 307 307 307 306 309 310 310 310 311 312 313 316 318 318 318 317 316 317 317 317 317 317 317 317 317 317
325 325 325 325 326 325 325 324 323 322 322 323 321 316 309 309 312 308 308 308 307 306 307 307 307 308 309 311 311 313 315 317 314 313 314 315 315 315 315 316 316 316 316 315 316
323 324 325 324 325 325 325 324 323 322 322 322 321 318 307 307 319 309 309 307 306 306 307 309 308 309 310 311 311 311 312 312 313 312 313 314 313 313 313 314 313 313 314 314 315
320 322 322 323 323 324 324 324 323 322 322 321 319 315 305 305 309 308 310 308 307 306 309 309 309 310 311 309 309 311 311 310 311 311 311 311 312 313 312 312 313 314 314 314 315
310 315 319 321 322 323 324 323 323 322 322 321 316 310 303 307 312 311 308 305 305 307 307 308 309 309 309 309 310 310 311 312 312 312 312 313 313 313 313 313 313 313 313 313 313
308 308 309 311 319 320 321 322 322 321 319 318 310 304 304 309 313 312 310 306 306 307 308 307 308 307 310 311 311 311 311 312 313 312 313 312 314 314 313 313 313 312 312 312 313
306 307 307 309 312 318 319 319 320 319 317 314 307 300 306 312 309 311 307 305 304 307 307 309 309 310 310 310 310 311 312 314 314 314 314 313 315 316 314 313 313 313 313 313 313
304 306 307 310 313 318 317 317 317 316 315 310 301 305 309 310 308 306 305 304 304 307 307 306 308 309 309 311 312 313 314 315 314 313 313 314 315 314 313 313 313 312 312 313 313
305 306 307 311 312 317 316 315 315 314 308 305 301 306 311 312 307 308 307 304 303 307 308 307 308 310 311 312 315 316 314 314 314 314 313 313 313 313 311 311 311 312 312 313 313
305 308 309 314 318 313 316 314 310 308 306 311 311 312 306 307 307 310 307 308 305 304 306 308 309 311 312 312 312 312 311 312 312 312 310 311 313 314 314 313 313 313 313 313 315
306 309 314 313 315 314 313 312 312 309 309 309 308 308 311 309 310 310 308 310 309 309 308 309 309 310 310 310 310 310 311 312 312 312 312 313 314 314 314 314 313 313 313 318 318
307 311 313 313 315 314 313 314 313 308 306 311 309 310 310 308 309 312 309 309 312 311 311 311 312 312 310 311 311 311 311 312 312 312 312 313 313 314 313 313 312 316 319 318 317
308 313 313 315 313 313 311 312 308 304 305 314 308 308 308 308 309 310 310 310 311 313 312 312 312 312 311 311 311 311 311 311 310 311 312 312 312 313 313 313 316 318 318 317 315
311 312 313 314 312 310 312 310 308 306 314 310 307 305 307 308 308 310 309 309 311 311 312 312 309 309 311 310 311 311 309 310 311 312 313 312 312 312 313 313 316 319 318 314 312
313 313 314 313 312 312 311 304 304 309 315 312 307 307 308 307 308 308 307 308 309 310 309 310 308 310 310 310 310 310 310 311 311 312 313 312 312 311 313 313 317 319 315 313 311
313 315 315 314 312 309 303 304 308 313 308 310 309 307 309 308 308 310 308 309 310 310 309 309 309 310 310 310 310 310 311 312 313 313 311 311 311 312 314 317 318 316 314 312 310
315 313 313 312 310 308 304 306 313 313 311 307 308 309 309 307 308 309 308 308 309 309 309 310 311 310 308 310 310 310 311 311 310 310 311 312 312 315 317 315 313 311 309 307 307
315 309 311 306 307 305 307 310 313 312 308 307 306 310 309 306 307 309 309 308 309 310 309 310 309 307 306 305 306 309 311 310 312 311 312 311 312 317 315 315 313 311 308 306 304
308 304 302 303 304 304 306 312 311 307 304 305 307 309 310 307 306 308 310 309 308 307 310 309 309 307 306 304 304 307 306 310 311 309 307 307 308 311 315 314 311 308 306 305 304
304 300 299 301 301 302 308 308 307 302 303 304 306 307 308 305 306 307 309 306 307 306 307 308 308 305 304 305 307 304 304 305 307 309 308 307 307 315 313 310 309 307 305 304 303
300 299 298 300 302 303 305 306 303 302 302 303 304 305 307 307 304 305 306 307 305 304 305 305 305 306 304 303 303 303 303 303 306 304 306 308 308 313 311 309 307 305 303 302 301
298 297 297 299 305 305 304 304 303 303 304 305 306 305 304 307 308 305 305 303 304 304 305 305 304 304 302 304 304 304 305 305 307 306 306 307 308 312 308 307 305 304 302 301 299
299 301 298 298 300 304 304 304 303 302 302 302 305 305 306 305 304 305 304 301 303 304 304 303 303 302 301 303 304 304 304 303 304 305 305 305 305 306 307 306 305 303 301 299 298
301 304 302 303 303 304 303 304 304 304 301 301 302 304 304 304 303 304 303 301 303 304 304 303 302 302 302 301 302 301 302 303 303 303 304 303 304 304 303 303 303 300 299 298 295
300 302 300 303 302 303 304 304 303 301 301 301 302 302 302 302 302 302 303 302 302 304 303 303 302 302 301 301 301 301 301 301 301 301 301 301 303 302 302 301 300 298 297 295 293
299 299 300 301 303 304 304 303 303 302 300 301 301 301 301 300 300 300 300 300 301 303 303 302 302 301 300 299 299 299 300 300 300 301 302 303 304 305 302 300 299 296 294 292 291

GFSSW_850_thetae_111.txt.gz
Theta_e
326 326 326 326 326 325 325 325 324 324 323 323 323 324 323 320 319 317 315 315 313 312 309 311 311 311 310 314 315 316 319 322 324 325 325 323 322 322 321 321 321 321 321 321 321
326 326 325 325 326 325 325 325 325 324 323 323 322 323 322 320 319 315 313 310 308 307 308 312 313 313 313 314 316 317 320 321 323 321 321 321 321 320 320 320 320 320 320 319 319
325 325 326 325 325 325 325 326 325 325 323 322 322 322 322 322 315 314 310 308 308 307 311 311 311 313 314 315 316 317 319 321 320 319 317 318 317 318 318 319 318 319 319 318 317
323 323 323 323 324 324 324 324 324 324 323 323 322 322 322 321 323 315 312 311 310 309 311 311 311 311 314 316 316 317 317 316 317 317 316 317 317 318 317 317 317 316 316 315 316
313 314 313 316 321 323 324 323 323 324 323 323 323 322 321 316 317 316 313 312 309 309 312 313 313 314 316 317 316 316 317 316 315 314 314 314 314 315 315 315 315 314 315 315 315
307 307 308 308 315 319 321 322 322 321 321 321 321 321 313 317 315 310 314 313 311 312 312 312 313 313 314 315 316 315 315 315 315 315 315 315 315 315 315 315 315 315 315 315 315
304 305 306 307 308 311 312 320 320 319 319 319 318 318 310 316 316 312 313 310 312 311 312 312 311 311 313 315 314 315 316 317 317 316 316 315 316 317 316 316 316 315 315 315 315
302 303 303 305 306 308 315 315 317 319 317 317 316 310 310 316 316 313 311 310 309 311 311 311 311 311 312 314 315 315 316 317 319 319 317 316 318 319 317 317 317 316 316 315 315
302 302 303 304 306 310 314 316 316 317 316 314 312 309 315 314 312 312 311 311 310 310 310 310 310 312 313 316 317 317 318 320 321 319 317 317 318 319 317 316 316 316 316 315 315
302 304 304 305 306 312 314 314 315 315 314 310 307 310 314 317 317 310 311 309 308 308 310 309 310 314 315 315 317 319 320 321 319 319 318 317 317 318 316 315 315 315 315 315 315
299 302 305 307 313 313 316 315 312 311 307 313 316 316 317 314 310 311 312 308 307 308 312 312 313 315 316 317 316 317 317 318 317 318 317 317 316 316 315 316 316 315 315 315 315
298 299 303 307 313 313 313 314 313 312 315 313 314 315 315 316 316 316 314 313 313 312 313 314 314 314 315 315 315 315 315 316 315 315 315 315 315 316 317 317 316 316 316 316 316
299 301 303 309 312 314 313 312 312 311 312 313 314 314 313 314 314 315 315 314 315 316 316 315 314 314 314 314 314 314 314 314 315 315 315 315 315 315 316 315 315 315 316 319 319
300 303 307 312 314 313 313 314 310 312 311 315 315 314 313 313 315 312 312 315 315 315 316 316 316 315 315 315 314 314 314 314 314 314 314 314 314 317 316 315 315 317 319 319 317
302 306 309 310 313 311 312 311 310 312 317 313 314 309 310 312 313 313 313 314 317 316 315 316 316 315 315 315 315 313 314 313 313 313 313 314 314 316 316 315 317 319 319 317 316
305 311 310 313 313 312 311 310 310 313 317 313 311 310 311 311 312 310 310 312 314 315 315 316 314 314 312 312 312 313 312 311 312 312 313 314 315 315 315 315 317 320 317 316 315
312 313 312 313 312 311 311 308 311 317 313 314 313 311 312 313 312 311 311 313 314 314 314 314 313 313 311 311 310 311 311 312 312 313 314 314 314 315 317 320 320 320 317 314 313
314 313 313 314 311 312 309 309 316 313 314 312 313 312 312 312 311 311 312 312 312 313 313 315 317 312 311 311 311 311 310 312 317 316 316 314 314 316 320 318 316 315 313 311 310
314 314 312 310 311 310 309 314 314 313 313 313 312 312 313 312 310 311 311 313 312 312 312 313 312 312 309 309 309 310 313 311 313 315 315 315 316 320 317 316 315 312 311 310 309
314 310 308 308 306 307 310 312 313 314 314 312 313 313 315 315 311 311 311 312 311 310 311 312 315 310 309 307 308 308 308 313 311 311 311 311 311 313 319 316 313 311 310 308 307
312 304 303 303 302 305 310 313 313 312 309 310 312 312 312 312 312 310 310 311 311 310 311 312 312 311 308 308 308 308 307 307 308 310 312 312 312 318 317 314 313 311 308 306 306
304 303 301 301 302 302 309 311 310 310 305 307 308 310 310 311 310 309 309 310 309 311 311 309 310 311 309 307 306 307 307 308 310 308 308 308 307 315 314 312 309 308 306 305 304
298 297 300 301 306 307 307 308 308 307 307 307 307 307 308 310 308 307 308 306 306 308 308 308 308 309 307 306 306 305 306 305 306 307 307 312 310 313 310 310 309 307 305 304 303
299 301 297 299 300 307 309 309 308 308 308 308 308 307 307 310 309 309 308 305 305 306 303 305 307 307 307 305 306 306 305 306 307 309 307 306 306 310 310 308 306 306 305 303 301
301 304 302 304 304 306 308 307 307 304 305 305 307 307 308 309 308 308 308 305 305 305 305 305 306 305 305 305 303 304 305 305 305 306 306 305 306 306 305 305 305 304 303 302 299
301 305 302 304 303 306 306 307 307 305 305 305 306 307 308 308 307 307 307 306 306 307 306 305 305 304 304 303 303 303 303 303 303 304 304 304 304 304 303 305 304 302 300 299 296
301 303 303 303 305 306 306 307 307 306 304 305 305 306 305 305 304 304 305 305 305 305 305 305 304 303 303 301 301 301 302 302 302 303 303 305 304 306 306 305 302 299 297 295 293

GFSSW_850_thetae_114.txt.gz
Theta_e
326 326 326 326 326 326 326 325 325 325 325 324 323 323 322 323 323 324 317 317 317 316 311 312 314 314 313 312 315 316 318 320 322 323 325 323 323 322 322 322 322 322 322 322 322
327 326 325 325 326 325 325 325 325 325 325 324 323 322 323 322 323 321 317 313 310 310 310 312 315 315 315 316 316 318 319 321 322 323 323 322 320 320 320 321 321 321 321 321 321
326 325 325 324 325 325 325 324 324 324 324 324 324 323 323 322 319 315 314 314 315 313 315 313 314 314 316 316 317 318 320 320 321 321 321 321 319 319 319 319 319 320 320 320 319
322 321 321 322 322 320 322 323 323 323 323 323 324 322 322 322 322 319 317 317 317 313 314 314 314 314 316 318 318 319 319 319 319 319 318 318 317 318 318 319 319 319 318 317 317
310 310 310 310 310 309 319 320 321 322 322 322 321 321 321 320 319 320 319 316 317 315 313 315 316 316 318 318 319 320 319 319 318 318 318 317 316 316 317 316 316 316 316 315 316
306 306 306 307 307 308 311 314 319 319 320 320 320 320 315 317 319 318 312 314 316 313 314 315 315 316 316 317 317 318 318 318 318 317 317 318 317 317 317 317 317 316 315 315 315
301 302 303 303 304 305 307 311 316 314 318 318 318 318 311 316 318 320 314 312 313 314 315 314 315 314 314 316 316 317 317 317 318 318 319 318 319 319 317 318 318 318 317 316 316
300 301 302 302 303 304 306 306 312 317 314 315 316 315 312 317 318 318 319 319 313 312 313 314 314 314 314 314 315 316 317 319 318 319 319 319 319 319 318 319 319 318 317 317 316
300 300 301 302 303 305 306 308 311 316 314 315 314 313 314 315 317 318 315 315 315 314 312 313 313 313 314 315 316 317 319 320 320 320 321 319 319 319 319 319 318 318 317 317 316
298 298 299 301 304 307 308 314 312 314 313 313 309 310 313 316 317 315 312 312 313 312 312 312 312 313 315 316 319 319 319 319 320 321 321 320 319 319 318 318 318 317 317 317 317
298 297 298 300 304 306 310 313 312 312 310 314 313 314 316 317 314 314 314 312 311 312 312 313 314 316 316 317 317 317 317 318 318 318 319 320 318 319 318 318 318 318 317 316 316
297 297 300 301 304 308 311 312 313 314 314 314 314 314 314 314 315 315 316 314 314 314 314 313 316 316 316 316 316 317 317 317 317 317 317 317 317 317 317 317 316 317 317 316 316
296 297 300 302 306 308 313 312 313 311 314 314 312 314 314 315 314 315 314 316 316 316 316 316 316 316 315 315 314 315 315 317 316 315 316 316 316 316 317 317 317 317 317 318 318
296 299 302 304 307 309 311 313 313 312 315 312 313 314 314 313 315 315 315 315 316 317 317 316 315 314 316 316 316 315 316 316 315 315 317 316 317 317 317 317 317 317 319 320 318
297 301 304 306 309 310 310 312 311 310 315 311 312 312 313 315 315 314 314 315 316 316 316 317 316 315 317 317 317 316 316 316 315 315 316 315 315 315 316 316 316 319 320 318 317
298 302 305 310 310 310 311 311 311 314 316 311 313 313 314 313 314 314 313 312 314 315 315 316 316 316 316 317 316 313 312 315 316 314 315 314 314 314 315 317 317 321 318 317 316
299 304 307 312 310 310 311 310 313 315 312 311 312 314 312 313 314 314 314 313 313 316 317 316 315 315 316 315 313 312 312 313 317 315 316 313 313 314 321 321 321 319 317 315 313
302 307 310 313 311 311 311 310 316 312 313 312 312 313 314 313 314 314 313 313 313 314 315 314 316 314 315 315 313 312 312 315 315 315 315 316 318 319 319 318 317 315 313 312 310
305 311 314 314 311 309 310 312 313 312 312 312 312 313 312 313 313 313 312 312 313 313 313 315 314 313 313 314 312 312 313 313 314 314 315 315 318 320 317 316 313 312 311 309 308
305 311 311 310 310 309 310 312 313 312 312 313 313 314 314 313 313 314 312 313 312 313 313 313 313 314 313 309 309 309 309 312 315 318 315 313 314 318 318 315 313 311 309 308 306
309 309 307 309 306 306 310 313 313 312 312 315 314 314 315 314 314 316 314 312 312 312 312 312 313 314 312 310 310 309 309 309 310 309 315 313 313 317 316 314 313 310 308 306 305
309 305 304 305 303 302 308 311 312 313 313 314 313 313 314 314 313 313 314 313 311 312 311 310 312 314 312 310 308 308 310 310 311 309 310 310 310 316 315 314 310 308 307 306 305
304 300 302 302 306 307 307 311 311 313 313 313 311 310 311 312 312 312 310 308 308 311 312 310 311 311 310 311 308 307 308 308 309 310 309 310 309 313 311 309 309 308 307 305 304
302 301 299 300 302 308 308 310 311 310 312 310 310 310 310 310 311 310 309 307 307 308 306 308 309 311 312 309 307 308 307 306 308 310 308 308 307 309 312 309 307 306 305 304 301
301 302 303 302 301 306 308 309 311 312 309 309 310 310 310 310 312 311 310 307 306 305 305 306 307 308 307 307 306 305 305 306 306 307 308 309 308 307 307 307 306 304 303 302 299
301 304 303 306 303 305 308 310 311 310 309 310 309 309 308 310 311 311 309 309 308 307 307 307 307 305 305 305 304 304 304 304 304 304 305 305 306 306 305 307 306 303 301 298 296
300 303 305 305 305 306 308 309 310 308 306 307 307 308 309 309 308 307 308 307 307 308 308 307 306 305 304 303 302 302 303 303 303 304 304 305 306 306 306 303 299 299 296 294 293

GFSSW_850_thetae_117.txt.gz
Theta_e
326 326 326 326 325 325 325 325 325 324 324 324 325 324 323 322 321 319 320 318 317 314 313 312 314 314 315 313 312 313 311 312 314 317 318 321 317 320 320 321 321 321 322 322 322
327 326 326 326 324 324 324 323 324 323 323 323 324 324 323 322 321 319 317 313 314 317 316 314 313 314 315 315 313 312 311 313 315 317 319 319 318 318 318 318 319 321 321 321 321
326 326 326 325 322 323 322 322 321 322 322 321 322 323 323 322 320 316 313 316 319 317 315 315 313 314 314 315 316 315 314 314 317 318 319 317 317 318 317 317 319 318 319 319 319
320 320 320 320 318 317 317 316 314 320 319 319 320 320 321 321 320 319 319 320 320 317 317 316 315 314 314 313 316 314 315 316 317 318 318 317 318 315 316 316 317 317 316 317 317
309 309 308 308 307 307 307 308 316 318 318 316 316 318 319 319 319 316 320 320 316 316 317 314 314 315 315 315 316 315 316 317 317 317 317 317 315 316 316 316 316 316 316 316 316
306 305 305 305 305 305 305 306 307 312 316 312 314 316 317 313 312 320 320 315 315 316 316 314 314 315 315 315 314 316 316 315 316 316 317 316 316 316 317 317 317 317 317 316 315
300 300 301 301 302 302 303 303 306 306 314 314 313 313 314 314 309 310 316 317 312 313 315 315 315 314 315 313 314 314 313 313 314 316 315 316 316 316 317 317 317 317 317 317 316
299 300 300 301 302 303 303 303 305 308 311 314 313 314 312 309 313 314 316 317 320 314 314 313 314 314 314 314 313 313 313 314 314 315 317 315 317 316 318 318 317 317 317 317 317
299 299 299 299 300 302 303 304 308 310 311 315 311 312 311 314 314 316 318 318 317 318 316 313 313 314 313 312 312 312 312 314 315 316 317 316 317 318 318 318 317 317 317 317 317
298 298 298 298 300 301 304 305 310 312 311 312 311 308 309 314 315 317 313 312 315 314 314 313 312 309 309 311 314 314 314 314 314 314 315 315 315 315 318 318 317 317 317 317 316
298 297 297 298 302 301 306 310 309 311 310 311 310 310 311 315 314 317 313 313 312 313 311 312 310 310 309 311 313 314 315 315 315 315 315 314 314 314 315 315 315 316 316 316 318
297 296 297 299 302 303 310 309 311 312 312 313 313 313 314 312 313 314 315 314 312 310 311 310 311 312 313 314 315 315 315 314 313 314 314 313 313 312 313 313 314 315 315 316 320
298 297 298 300 303 305 308 309 310 311 311 311 311 313 313 314 314 314 313 314 314 313 313 312 313 313 313 314 315 315 314 313 313 313 313 313 313 312 313 314 315 316 316 316 319
299 298 299 303 303 305 307 307 311 312 309 312 312 313 313 314 314 314 314 314 314 315 315 315 314 315 314 314 313 313 315 316 316 316 315 313 315 314 314 314 314 314 317 317 316
300 299 300 303 308 308 307 309 311 312 307 309 312 313 315 314 314 314 314 315 315 315 314 315 315 315 316 316 314 314 316 312 312 314 315 314 313 313 312 313 315 317 316 315 314
301 299 302 302 305 307 308 310 311 311 312 312 312 314 313 314 315 314 314 315 315 314 314 314 314 314 315 315 315 316 314 311 310 313 315 315 313 313 312 315 319 317 315 313 312
300 300 301 303 307 307 308 311 311 311 310 309 311 313 313 313 313 313 313 313 311 311 312 313 314 314 315 315 314 315 312 313 312 313 313 313 314 313 319 317 318 315 311 310 309
300 300 301 303 306 308 309 309 312 310 308 310 311 311 312 312 312 312 312 312 312 311 311 312 313 314 313 314 315 314 311 313 316 315 314 313 315 317 315 313 310 310 309 307 307
300 301 304 306 307 309 309 309 309 309 309 310 310 310 310 311 312 311 312 312 311 310 312 312 314 312 312 312 313 312 311 311 313 313 313 311 316 313 312 312 310 308 307 307 306
301 301 305 309 310 309 308 309 309 309 309 310 311 312 312 312 312 311 311 312 311 311 310 312 313 313 313 309 309 310 309 313 312 316 315 312 313 319 316 313 311 308 307 305 304
301 304 306 308 309 308 310 310 310 310 310 312 312 311 314 313 314 314 315 314 313 311 309 312 311 313 312 311 308 308 308 308 313 311 313 314 313 316 315 312 311 308 306 304 302
304 303 304 308 305 302 307 309 310 310 311 310 312 313 314 313 313 314 315 314 309 310 310 308 311 313 313 311 310 308 310 309 308 308 308 309 309 315 314 313 310 307 305 302 301
303 303 304 305 307 305 307 308 309 310 312 312 313 313 313 311 311 312 311 309 309 311 310 309 308 310 311 311 311 311 308 309 309 309 309 310 310 313 313 310 308 306 302 300 299
300 300 300 301 304 306 307 308 309 310 310 311 313 311 310 310 311 310 310 308 307 307 308 309 308 309 311 311 309 307 308 307 307 306 307 307 307 309 311 309 306 303 300 298 297
300 301 301 300 302 304 307 308 308 309 310 311 312 310 310 310 310 311 310 306 306 306 306 306 306 308 308 308 308 308 307 306 307 306 307 306 308 307 307 305 303 302 299 296 295
300 301 302 304 303 303 305 309 308 309 310 311 309 310 310 311 311 312 310 308 308 306 305 305 306 304 305 305 305 305 304 303 304 304 304 303 304 305 303 301 299 298 296 294 293
300 301 303 304 304 303 304 307 308 309 310 310 309 310 310 309 309 308 306 308 308 306 305 306 305 304 304 303 302 301 302 304 303 306 305 300 305 302 298 296 296 294 293 292 291

GFSSW_850_thetae_120.txt.gz
Theta_e
326 326 326 326 325 325 325 324 323 323 323 321 321 321 322 322 318 317 319 317 315 318 317 314 315 314 314 314 313 312 309 310 313 315 315 318 316 318 318 318 319 320 321 321 321
327 327 326 326 326 325 325 323 323 319 319 318 319 319 319 320 319 315 316 313 315 319 316 316 314 313 314 314 314 310 307 311 312 314 315 316 316 316 317 317 317 318 319 319 319
325 325 325 324 324 324 322 318 315 316 314 314 314 313 315 315 316 317 313 317 319 320 316 317 315 314 313 313 314 312 310 311 314 316 316 316 316 317 316 316 316 316 317 316 316
319 318 318 316 314 312 309 309 307 307 307 307 309 313 314 312 317 318 319 319 319 318 316 317 315 314 312 312 314 312 313 314 314 315 315 314 316 315 315 316 317 317 317 316 316
309 308 308 308 307 307 306 306 306 306 306 308 309 312 311 314 312 309 313 316 319 314 315 316 314 314 314 313 314 313 314 315 315 315 315 316 314 314 315 317 316 317 316 316 316
306 305 305 305 304 304 303 303 303 304 304 305 310 312 313 310 308 317 320 319 318 313 315 314 314 314 314 314 313 314 313 313 314 314 314 314 314 315 316 317 317 317 317 317 317
300 300 300 301 301 301 302 302 302 303 304 306 311 313 311 309 306 308 309 315 314 312 312 314 314 314 313 313 314 313 312 312 312 314 313 315 314 314 317 317 317 317 317 318 317
299 299 300 300 300 301 301 302 302 303 304 305 312 312 310 306 311 314 313 312 315 317 316 313 314 313 314 313 313 312 311 312 313 314 315 314 316 314 318 316 316 317 318 317 317
299 299 299 299 298 299 299 300 302 304 307 308 311 311 308 311 313 314 317 317 315 317 318 318 315 312 313 311 310 311 311 312 313 314 314 314 315 314 315 316 315 315 316 317 317
298 298 298 298 298 298 300 300 303 309 310 310 310 307 309 313 314 316 313 312 317 316 315 317 313 309 308 310 312 312 312 311 312 311 312 312 313 314 314 314 314 315 316 316 315
299 298 297 297 297 299 301 303 307 309 309 309 308 309 309 311 315 315 316 312 313 314 312 312 309 308 310 309 311 312 312 313 312 312 312 312 312 312 312 311 312 314 314 314 316
298 298 296 297 299 300 305 306 311 310 310 309 308 310 306 310 311 308 312 313 311 310 310 310 309 309 309 310 310 311 313 314 314 313 313 311 310 309 310 311 312 312 314 316 320
299 298 297 300 300 301 301 302 308 309 310 310 309 310 310 309 311 311 311 313 313 310 309 309 310 311 311 311 312 313 313 313 313 313 313 312 313 311 313 313 313 314 314 317 317
300 300 298 300 300 303 303 302 308 310 309 308 312 310 311 313 314 313 312 311 312 313 313 312 312 312 313 314 313 313 312 313 314 311 312 312 315 313 313 312 312 315 316 315 313
300 300 299 300 305 306 303 308 310 310 296 306 311 312 313 313 313 313 313 313 313 313 313 314 313 313 314 314 314 315 315 315 313 311 310 313 313 312 311 311 315 313 312 310 309
300 300 300 301 303 304 308 311 311 300 300 309 312 312 313 313 314 314 314 314 314 312 312 313 314 313 313 313 313 314 313 310 309 309 313 311 312 312 315 317 314 312 309 308 307
300 300 300 301 304 304 309 310 309 304 306 308 311 313 314 314 313 313 313 312 312 314 314 313 313 311 312 313 313 314 314 317 312 311 312 312 312 314 314 311 310 308 306 306 305
300 301 300 300 301 305 309 310 307 306 307 308 308 307 311 312 312 313 311 311 309 309 309 311 311 311 312 313 313 314 315 315 316 314 311 311 310 314 311 308 308 308 306 305 303
299 300 300 299 300 306 309 309 305 307 308 308 308 308 307 308 309 310 311 311 311 310 311 310 311 311 310 311 312 312 311 311 313 312 312 310 313 312 312 309 306 305 306 304 303
299 300 300 301 306 307 307 308 306 307 308 308 310 310 311 311 311 310 309 311 312 310 309 310 311 312 312 309 309 311 309 311 311 316 315 312 311 314 314 309 309 306 304 303 302
299 300 301 304 306 306 307 305 306 307 308 310 309 310 311 312 312 312 313 313 311 311 309 310 310 311 311 309 308 307 307 307 312 312 313 313 308 313 314 311 310 307 304 301 299
299 301 301 304 305 305 306 306 307 308 307 307 308 309 310 312 312 312 314 314 310 310 310 309 309 310 311 310 307 307 307 308 311 310 308 307 307 313 311 311 308 302 300 299 298
300 300 302 305 305 305 306 306 307 308 309 310 310 311 310 311 310 310 312 310 311 310 310 308 308 310 309 309 309 310 308 308 309 309 309 309 307 312 311 310 304 301 299 297 295
299 300 301 303 303 304 304 306 308 308 308 309 310 311 311 311 310 310 308 307 307 307 310 309 308 308 309 310 308 307 309 307 308 310 309 308 307 307 309 306 301 300 297 295 294
299 300 300 300 301 303 306 306 306 307 308 309 309 309 310 309 309 309 307 305 306 306 305 305 307 308 308 308 310 310 310 309 307 307 307 306 306 305 304 302 299 297 296 294 293
298 300 301 301 301 302 304 306 306 307 307 309 309 309 309 310 308 310 307 305 306 306 304 304 305 304 304 305 305 307 306 304 303 304 305 304 304 301 299 297 296 295 294 293 291
298 299 301 302 302 303 303 304 306 307 307 307 307 309 309 309 309 309 309 307 308 306 304 304 304 303 304 303 301 302 302 302 303 305 305 302 304 299 297 297 295 292 292 291 289

GFSSW_850_thetae_123.txt.gz
Theta_e
325 325 326 326 326 326 325 325 324 324 322 316 313 310 308 308 308 308 312 317 316 318 317 316 314 314 314 314 313 311 307 310 312 314 315 316 314 317 317 317 318 318 318 319 321
327 327 326 326 325 325 324 324 323 319 313 311 309 307 307 307 307 310 316 313 317 319 318 318 317 314 313 314 313 309 306 309 310 313 313 314 314 315 316 316 317 317 318 317 317
325 325 325 325 324 322 320 316 313 309 307 307 306 306 307 306 307 315 312 315 318 317 318 317 316 314 313 312 313 310 308 308 312 314 315 313 313 315 314 313 316 317 317 317 316
321 320 319 318 315 313 310 308 307 307 306 306 305 305 306 307 308 316 314 317 318 315 315 316 315 314 311 311 312 311 311 312 313 315 313 312 314 313 315 316 316 316 316 316 316
310 310 309 309 308 307 307 306 305 305 304 304 304 304 306 309 307 307 312 315 311 317 314 316 315 313 313 312 313 311 312 313 313 313 313 314 312 313 314 317 317 316 316 317 317
307 306 306 305 305 304 303 302 302 302 303 303 304 303 308 309 307 314 317 318 319 316 313 315 313 314 314 313 312 312 312 312 313 314 314 313 312 313 315 316 316 317 317 316 317
303 302 301 301 301 301 301 301 302 302 302 303 305 308 308 306 306 306 306 308 318 315 313 313 314 312 313 312 313 313 312 311 312 315 313 313 313 313 315 316 315 315 315 315 316
300 299 299 300 300 300 300 301 301 301 302 304 305 309 307 306 307 312 314 313 310 316 314 314 313 313 312 313 312 311 311 313 312 313 314 314 314 313 315 315 314 314 315 314 316
299 299 299 299 299 299 299 299 299 300 302 307 306 308 307 308 313 315 314 315 316 312 314 317 314 313 312 311 310 310 312 311 312 312 312 312 313 313 314 314 313 313 314 313 314
299 298 298 298 298 298 298 299 300 301 308 307 309 306 307 307 314 316 314 313 317 316 316 316 313 308 307 309 313 312 311 310 313 311 311 312 312 311 312 311 311 311 314 313 313
299 298 298 298 298 298 298 300 304 307 308 306 307 308 308 312 313 314 315 314 315 315 312 312 310 309 310 308 310 310 311 311 310 310 311 311 311 311 309 311 311 312 312 316 318
299 298 297 297 297 297 298 300 308 309 308 306 304 308 304 308 309 307 310 314 313 311 310 310 309 309 308 309 309 309 310 310 310 311 311 310 311 309 309 310 312 312 313 317 318
298 298 298 297 296 297 298 299 308 309 308 308 308 308 307 307 309 307 307 312 311 310 309 310 311 310 310 310 310 310 311 311 312 311 311 310 312 310 311 312 313 315 315 316 312
299 299 299 298 298 298 301 302 305 308 307 305 310 310 310 311 311 310 308 311 312 312 311 310 309 309 309 310 310 311 310 311 313 313 315 310 315 313 310 312 311 309 307 307 307
300 299 300 298 302 301 304 305 309 308 296 304 311 311 312 313 312 313 312 311 310 312 311 312 313 312 312 312 312 313 313 313 313 312 310 311 311 310 314 315 309 307 306 305 305
298 300 300 299 301 301 308 309 309 297 297 304 312 312 313 313 312 313 313 313 311 312 311 311 312 312 312 312 311 313 313 312 309 309 315 312 310 309 314 314 309 306 305 304 303
299 300 300 300 299 303 308 310 307 299 303 305 311 312 312 312 312 313 312 313 312 314 313 312 312 311 312 312 311 311 313 318 314 311 312 311 310 311 312 310 307 305 304 305 304
299 300 301 300 302 305 308 308 305 302 303 306 306 308 313 312 312 313 311 311 310 310 308 311 311 309 310 310 311 312 312 313 316 314 310 309 310 311 311 308 306 306 305 305 304
299 300 301 301 301 305 308 308 304 305 306 306 306 305 304 307 309 311 311 311 309 309 311 309 310 310 310 311 311 312 313 311 312 310 312 309 311 311 310 308 307 307 306 305 304
299 299 299 299 299 303 306 305 306 306 306 307 307 307 308 308 310 308 308 310 311 308 309 309 310 311 311 308 308 310 309 310 309 314 315 310 310 309 313 310 308 309 307 305 302
300 298 299 299 304 304 304 303 305 305 306 308 308 307 309 311 311 311 311 311 311 310 307 307 308 310 310 309 308 306 307 308 310 309 312 312 309 310 312 311 310 308 305 303 299
298 299 300 301 304 303 304 303 304 304 306 305 306 306 307 308 309 311 312 312 310 309 311 310 310 311 311 309 306 306 306 307 309 310 308 307 307 308 310 309 309 306 301 299 298
298 298 301 303 303 304 303 304 304 305 305 307 309 307 308 308 308 309 310 310 311 309 308 308 307 311 312 308 308 309 308 307 308 307 309 310 308 312 310 309 305 300 297 296 295
299 299 299 302 302 302 303 304 305 305 305 306 308 309 310 310 309 310 308 307 308 308 309 309 306 308 310 309 308 309 309 308 308 309 309 309 307 308 309 304 301 297 295 294 293
298 299 299 301 300 302 303 302 303 305 306 307 306 306 307 309 308 308 308 306 305 307 307 306 308 307 308 308 309 310 310 310 309 308 309 307 306 304 304 302 297 295 294 293 292
297 297 299 300 300 299 302 304 303 304 304 306 307 307 307 308 307 307 307 304 306 305 304 304 306 304 305 305 306 308 308 307 308 308 306 304 304 299 298 297 296 295 294 292 291
296 297 299 299 301 300 300 301 303 304 305 305 305 306 307 307 308 308 308 307 306 306 304 304 305 305 308 304 302 302 304 305 305 304 304 300 302 298 297 295 294 292 292 291 289

GFSSW_850_thetae_126.txt.gz
Theta_e
326 326 325 325 325 326 326 325 324 322 320 315 310 308 307 306 306 307 308 314 316 318 316 317 318 314 314 314 312 311 308 310 313 311 314 314 312 315 315 316 316 317 317 317 318
326 326 326 326 326 325 325 323 320 314 310 308 307 306 306 306 306 311 316 313 317 318 315 316 318 316 314 313 312 308 306 310 309 311 313 313 312 314 314 315 316 317 317 316 316
324 324 324 324 324 323 321 317 312 309 307 306 306 305 305 305 306 313 313 313 317 317 314 316 317 314 312 312 312 308 307 308 311 312 313 312 312 314 314 313 315 316 317 317 317
323 323 322 321 318 314 311 309 308 307 306 305 304 304 304 305 304 314 312 313 316 318 312 316 316 313 310 311 311 310 310 310 312 313 312 311 312 313 314 315 316 315 316 316 316
317 316 313 311 310 308 307 306 305 304 303 303 303 303 304 305 305 306 311 314 316 316 314 316 315 313 312 312 312 311 311 312 313 313 313 314 311 311 313 315 315 315 314 314 314
309 309 308 307 306 305 304 302 302 302 302 302 302 303 304 305 306 308 311 311 315 317 313 314 313 313 313 312 312 311 311 311 313 314 314 312 311 313 315 314 314 314 314 314 314
306 305 305 303 303 301 301 301 301 301 301 302 302 302 303 304 305 306 306 307 309 317 313 313 313 312 312 311 312 312 311 310 312 313 312 312 312 312 314 314 313 313 313 313 313
302 302 301 300 300 300 300 300 300 300 300 301 301 302 303 305 305 308 309 313 313 309 315 313 313 313 312 312 311 312 309 312 312 311 312 312 312 312 314 313 312 313 313 313 313
300 299 299 299 299 299 299 299 299 299 300 300 301 303 304 307 311 314 314 315 316 310 314 314 315 313 312 310 310 309 313 311 310 311 310 311 312 311 313 311 312 312 313 312 313
300 299 299 299 299 299 298 298 299 299 301 302 304 305 306 306 313 314 314 314 316 312 316 316 314 307 306 309 312 312 311 309 309 310 310 309 310 310 312 311 312 312 312 312 315
303 301 299 298 298 298 298 299 302 304 306 303 305 306 306 311 313 312 314 315 316 316 313 313 312 312 314 308 309 309 310 310 308 308 309 310 310 309 310 311 310 311 310 313 312
303 300 298 297 297 297 297 298 303 305 305 302 302 305 303 307 307 309 310 313 313 312 310 309 310 311 309 309 309 309 309 309 308 309 310 309 310 309 307 309 310 312 313 310 308
302 299 298 297 296 296 297 299 306 309 306 304 305 307 305 305 306 304 304 309 310 310 310 311 312 310 309 309 310 309 309 309 310 309 310 309 311 310 309 309 307 306 305 306 305
302 299 298 297 297 298 303 305 302 306 300 302 307 309 309 308 309 308 307 308 311 310 308 309 309 309 309 310 309 310 309 310 310 312 314 310 313 310 311 308 306 304 304 304 304
301 300 299 298 298 302 304 304 307 307 296 303 310 310 311 311 312 312 309 310 310 311 310 311 312 310 309 310 309 310 311 311 312 312 310 310 310 310 312 309 306 304 303 302 303
301 299 299 299 298 303 307 308 308 296 296 302 311 311 311 313 312 312 311 311 310 310 311 310 311 310 311 311 310 312 313 312 308 309 314 312 311 308 312 311 306 304 304 304 306
300 299 299 299 299 301 308 309 302 296 300 304 311 312 312 312 311 311 312 312 311 313 312 312 311 310 312 312 311 311 312 313 312 311 315 308 309 310 311 310 306 305 304 306 308
299 299 301 300 300 303 308 307 300 299 300 304 304 310 312 311 312 312 311 312 311 309 308 310 311 310 309 311 311 310 311 313 316 313 310 308 310 308 310 308 306 306 306 305 306
299 299 301 300 300 304 307 307 301 302 304 306 303 303 303 305 311 310 310 309 309 308 312 310 310 308 309 310 310 311 312 310 312 309 312 310 308 310 310 308 306 306 306 305 304
300 299 300 300 300 302 306 304 304 304 305 306 303 306 306 307 308 307 308 308 310 308 309 309 310 309 310 308 307 309 308 310 308 314 314 310 308 309 310 310 309 307 306 306 304
300 299 299 300 299 301 305 303 303 304 304 306 307 306 308 310 310 310 310 309 310 309 307 308 309 310 310 309 307 307 309 308 310 309 312 311 309 306 310 309 309 307 308 306 302
300 298 299 299 302 301 303 302 303 302 304 304 305 306 306 307 307 309 311 311 310 309 310 309 307 308 309 309 307 306 309 310 312 310 309 307 309 307 308 308 309 308 305 303 299
299 298 300 300 299 300 300 301 302 302 303 304 306 305 304 304 304 307 306 307 308 309 308 309 309 313 311 307 308 308 306 307 308 306 309 311 309 310 309 309 308 301 299 297 296
298 297 299 301 300 301 301 300 302 303 302 302 305 306 307 308 307 308 309 307 307 309 309 309 307 309 311 308 307 309 308 306 307 305 308 308 308 310 309 306 300 297 297 296 295
298 298 298 300 300 302 303 302 302 302 303 304 303 303 304 306 308 307 307 307 305 306 308 307 308 307 306 307 308 307 309 309 308 307 309 309 307 306 306 304 298 294 295 294 292
297 298 298 298 299 299 302 301 302 302 302 304 305 305 304 305 305 304 305 304 304 304 303 303 308 305 306 306 307 307 307 308 308 308 307 307 306 300 297 296 295 295 294 293 291
297 297 298 298 298 298 298 300 301 302 302 302 302 303 304 305 305 306 306 306 306 305 303 304 305 307 311 305 305 307 306 306 307 305 304 302 302 297 297 296 294 294 293 292 290

GFSSW_850_thetae_129.txt.gz
Theta_e
324 325 325 325 325 325 325 326 324 322 319 314 311 310 308 307 306 307 310 312 315 317 316 316 318 317 315 313 312 311 317 318 317 315 316 313 315 314 315 315 316 316 316 317 316
324 325 325 324 324 324 325 324 321 316 312 310 309 307 306 306 306 309 314 314 316 317 316 313 316 317 314 313 312 312 316 317 313 313 314 314 314 314 315 316 316 316 316 316 316
324 324 324 324 324 324 323 319 313 309 308 308 306 305 305 305 305 312 315 314 316 317 316 311 316 315 313 312 311 308 315 310 311 312 312 313 314 314 315 316 316 315 315 315 315
323 322 322 323 321 318 314 311 308 307 306 305 304 304 304 305 305 314 313 313 315 316 317 312 316 313 312 313 311 313 311 310 312 312 312 313 313 314 313 315 314 314 313 314 313
316 318 317 315 312 310 308 307 306 304 304 303 303 304 304 305 305 306 307 311 312 314 313 314 315 313 314 313 313 313 312 312 312 313 313 312 313 314 314 313 313 313 313 312 313
310 311 310 309 308 306 305 303 302 302 302 303 303 303 303 303 305 306 307 309 310 314 314 314 312 313 313 312 313 311 312 312 312 314 313 314 313 311 313 313 313 313 312 311 313
307 307 306 305 304 303 302 301 301 301 302 302 302 302 303 304 305 305 305 306 309 310 315 313 313 312 312 313 312 312 314 314 314 313 313 311 314 314 313 312 312 313 310 312 314
305 304 303 301 301 300 300 300 300 300 301 301 301 301 302 304 304 305 307 306 309 312 311 312 313 313 313 312 312 314 312 317 314 312 311 313 313 314 313 312 312 312 309 312 315
302 301 300 300 299 299 299 299 299 300 300 300 301 302 303 306 309 313 314 314 314 314 310 313 314 313 312 313 315 312 317 314 313 311 312 312 313 313 312 311 312 312 311 311 312
301 299 299 299 299 298 298 298 299 299 301 302 303 304 304 305 311 313 314 313 315 310 312 315 313 311 310 314 314 314 314 312 312 312 312 311 313 312 312 312 310 310 312 310 307
301 299 299 299 298 298 298 298 300 302 304 303 304 305 305 308 311 312 314 314 315 315 316 313 316 318 317 312 311 311 312 312 311 310 310 312 312 312 313 311 312 313 311 307 305
303 301 300 298 298 297 297 297 300 303 303 300 301 302 303 305 306 309 312 314 314 316 311 312 316 315 312 312 311 312 313 312 311 310 312 312 313 313 311 309 309 311 308 306 305
303 302 299 298 297 297 297 298 301 306 305 302 303 304 304 303 304 303 306 311 312 312 312 315 314 311 312 311 312 311 312 312 311 311 312 313 314 312 310 308 307 306 305 304 304
303 301 298 297 297 298 301 303 301 304 303 301 306 308 309 307 307 306 304 306 310 312 310 312 311 310 311 311 311 312 311 311 311 313 316 312 314 312 312 309 307 306 305 304 303
301 301 299 297 298 302 304 302 306 306 302 303 310 309 310 309 311 312 308 308 311 311 311 312 312 310 311 312 310 312 311 312 313 314 313 313 314 312 312 311 308 305 304 304 303
302 301 299 298 298 305 306 307 308 302 299 302 310 311 311 312 312 311 308 310 310 311 311 311 310 311 312 311 310 311 313 313 310 312 316 314 314 313 315 314 309 306 305 305 305
302 299 299 298 299 303 307 309 304 300 300 303 311 312 311 312 311 312 311 312 312 311 312 312 312 311 311 312 311 312 314 315 316 316 316 311 314 314 313 311 310 308 306 306 305
300 300 300 299 300 303 307 307 298 299 299 302 304 311 312 311 312 311 312 313 311 310 311 313 312 311 311 312 313 313 314 315 317 316 313 309 313 313 312 309 308 307 306 306 305
300 299 299 301 300 303 308 305 300 299 302 306 303 302 303 306 311 311 311 312 312 311 314 312 312 309 309 310 312 312 314 312 315 311 314 313 312 311 311 309 308 307 307 306 304
300 299 299 300 300 302 307 305 304 303 305 305 301 305 303 308 307 308 308 309 310 309 309 312 313 309 309 308 307 312 311 314 314 316 314 312 312 312 312 312 309 308 308 307 304
301 299 299 299 300 301 305 304 303 304 304 306 306 306 308 309 310 310 310 309 310 309 308 309 310 311 311 310 311 311 312 311 313 312 316 314 312 311 312 312 311 309 308 307 302
301 300 299 299 300 299 303 302 302 303 303 304 305 306 306 308 307 308 311 311 309 308 308 309 310 311 311 309 308 308 311 312 315 313 313 312 313 311 311 311 310 310 307 303 302
300 299 299 299 300 299 300 302 302 302 302 303 305 305 305 305 304 306 306 306 305 308 309 309 312 311 311 310 310 311 312 310 310 311 313 314 313 311 311 310 310 305 300 300 301
299 298 299 301 299 299 299 300 301 301 301 301 303 304 306 307 305 306 309 307 307 308 309 309 310 311 312 310 309 311 310 308 310 312 312 313 312 312 311 310 305 302 301 299 295
300 298 299 299 299 300 300 300 300 299 302 302 303 302 305 307 307 308 308 307 306 306 308 309 310 309 310 309 309 309 310 310 309 310 311 312 311 310 310 310 308 300 296 294 293
297 298 297 297 299 299 300 301 301 301 301 303 303 304 303 303 304 304 304 304 305 305 306 305 310 306 309 308 308 309 309 309 309 309 309 310 311 305 300 299 298 297 296 294 293
299 298 299 299 298 300 300 300 300 301 301 301 302 303 304 304 304 304 304 305 305 307 307 307 308 308 309 308 307 309 308 308 309 309 310 311 310 302 301 300 299 297 296 294 292